<?xml version="1.0" encoding="UTF-8" standalone="no" ?>
<gpx xmlns="http://www.topografix.com/GPX/1/1" xmlns:xsi="http://www.w3.org/2001/XMLSchema-instance" xsi:schemaLocation="http://www.topografix.com/GPX/1/1 http://www.topografix.com/GPX/1/1/gpx.xsd" version="1.1" creator="VisuGPX - https://www.visugpx.com">
  <metadata>
    <name>Refuge d\'EnBeys par SOM</name>
    <desc><![CDATA[Le service SOM d\'ATR effectue sa rando annuelle : cette année le refuge d\'En Beys]]></desc>
  </metadata>
  <wpt lat="43.6406" lon="1.37749">
    <ele>197.68</ele>
    <name><![CDATA[001]]></name>
  </wpt>
  <wpt lat="43.6406" lon="1.37749">
    <ele>197.68</ele>
    <name><![CDATA[002]]></name>
  </wpt>
  <wpt lat="43.64658" lon="1.35136">
    <ele>136.87</ele>
    <name><![CDATA[003]]></name>
  </wpt>
  <wpt lat="43.64625" lon="1.42941">
    <ele>129.66</ele>
    <name><![CDATA[006]]></name>
  </wpt>
  <wpt lat="43.64618" lon="1.47153">
    <ele>130.62</ele>
    <name><![CDATA[007]]></name>
  </wpt>
  <wpt lat="43.63995" lon="1.37782">
    <ele>156.1</ele>
    <name><![CDATA[008]]></name>
  </wpt>
  <wpt lat="44.05513" lon="1.66399">
    <ele>148.65</ele>
    <name><![CDATA[009]]></name>
  </wpt>
  <wpt lat="43.5984" lon="1.18678">
    <ele>237.33</ele>
    <name><![CDATA[010]]></name>
  </wpt>
  <wpt lat="43.5984" lon="1.1868">
    <ele>236.61</ele>
    <name><![CDATA[011]]></name>
  </wpt>
  <wpt lat="43.60112" lon="1.16603">
    <ele>289.96</ele>
    <name><![CDATA[012]]></name>
  </wpt>
  <wpt lat="43.45539" lon="1.28507">
    <ele>180.37</ele>
    <name><![CDATA[013]]></name>
  </wpt>
  <wpt lat="43.17149" lon="2.6426">
    <ele>144.08</ele>
    <name><![CDATA[014]]></name>
  </wpt>
  <wpt lat="43.14788" lon="2.62817">
    <ele>594.94</ele>
    <name><![CDATA[015]]></name>
  </wpt>
  <wpt lat="43.60789" lon="1.44192">
    <ele>147.93</ele>
    <name><![CDATA[016]]></name>
  </wpt>
  <wpt lat="43.64048" lon="1.37749">
    <ele>147.93</ele>
    <name><![CDATA[017]]></name>
  </wpt>
  <wpt lat="43.41991" lon="2.11182">
    <ele>617.29</ele>
    <name><![CDATA[018]]></name>
  </wpt>
  <wpt lat="43.40873" lon="2.0805">
    <ele>605.75</ele>
    <name><![CDATA[019]]></name>
  </wpt>
  <wpt lat="43.63986" lon="1.37794">
    <ele>130.38</ele>
    <name><![CDATA[020]]></name>
  </wpt>
  <wpt lat="43.58877" lon="1.43055">
    <ele>151.53</ele>
    <name><![CDATA[021]]></name>
  </wpt>
  <wpt lat="44.01075" lon="1.98139">
    <ele>283.47</ele>
    <name><![CDATA[022]]></name>
  </wpt>
  <wpt lat="44.01074" lon="1.98145">
    <ele>283.47</ele>
    <name><![CDATA[023]]></name>
  </wpt>
  <wpt lat="43.63959" lon="1.37798">
    <ele>203.44</ele>
    <name><![CDATA[024]]></name>
  </wpt>
  <wpt lat="44.02274" lon="1.72102">
    <ele>411.81</ele>
    <name><![CDATA[025]]></name>
  </wpt>
  <wpt lat="43.99447" lon="1.71359">
    <ele>233.96</ele>
    <name><![CDATA[026]]></name>
  </wpt>
  <wpt lat="43.77243" lon="2.33009">
    <ele>448.82</ele>
    <name><![CDATA[027]]></name>
  </wpt>
  <wpt lat="43.79771" lon="2.35107">
    <ele>324.33</ele>
    <name><![CDATA[028]]></name>
  </wpt>
  <wpt lat="43.79758" lon="2.35132">
    <ele>329.37</ele>
    <name><![CDATA[029]]></name>
  </wpt>
  <wpt lat="43.77274" lon="2.33008">
    <ele>426.95</ele>
    <name><![CDATA[030]]></name>
  </wpt>
  <wpt lat="42.75647" lon="1.84109">
    <ele>1445.22</ele>
    <name><![CDATA[031]]></name>
  </wpt>
  <wpt lat="42.75516" lon="1.84278">
    <ele>1463.96</ele>
    <name><![CDATA[032]]></name>
  </wpt>
  <wpt lat="42.74706" lon="1.86587">
    <ele>1724.96</ele>
    <name><![CDATA[033]]></name>
  </wpt>
  <wpt lat="42.52297" lon="2.22161">
    <ele>847.28</ele>
    <name><![CDATA[034]]></name>
  </wpt>
  <wpt lat="42.50294" lon="2.2306">
    <ele>1187.34</ele>
    <name><![CDATA[035]]></name>
  </wpt>
  <wpt lat="43.63985" lon="1.37729">
    <ele>157.3</ele>
    <name><![CDATA[036]]></name>
  </wpt>
  <wpt lat="43.51772" lon="1.45337">
    <ele>262.08</ele>
    <name><![CDATA[037]]></name>
  </wpt>
  <wpt lat="42.94104" lon="1.70562">
    <ele>602.15</ele>
    <name><![CDATA[038]]></name>
  </wpt>
  <wpt lat="43.56608" lon="1.30436">
    <ele>164.75</ele>
    <name><![CDATA[039]]></name>
  </wpt>
  <wpt lat="43.566" lon="1.30442">
    <ele>164.75</ele>
    <name><![CDATA[040]]></name>
  </wpt>
  <wpt lat="43.84273" lon="2.08345">
    <ele>238.53</ele>
    <name><![CDATA[041]]></name>
  </wpt>
  <wpt lat="43.84274" lon="2.08345">
    <ele>238.53</ele>
    <name><![CDATA[042]]></name>
  </wpt>
  <wpt lat="43.54795" lon="1.45382">
    <ele>232.52</ele>
    <name><![CDATA[043]]></name>
  </wpt>
  <wpt lat="43.10582" lon="0.61792">
    <ele>401.47</ele>
    <name><![CDATA[044]]></name>
  </wpt>
  <wpt lat="43.10579" lon="0.61796">
    <ele>411.81</ele>
    <name><![CDATA[045]]></name>
  </wpt>
  <wpt lat="31.62925" lon="-7.9902">
    <ele>487.27</ele>
    <name><![CDATA[046]]></name>
  </wpt>
  <wpt lat="31.62762" lon="-7.99034">
    <ele>500.49</ele>
    <name><![CDATA[047]]></name>
  </wpt>
  <wpt lat="31.23534" lon="-7.66435">
    <ele>1387.06</ele>
    <name><![CDATA[048]]></name>
  </wpt>
  <wpt lat="38.85555" lon="-94.79902">
    <ele>3.01</ele>
    <name><![CDATA[GARMIN]]></name>
  </wpt>
  <wpt lat="50.98288" lon="-1.4639">
    <ele>3.01</ele>
    <name><![CDATA[GRMEUR]]></name>
  </wpt>
  <wpt lat="25.06178" lon="121.64027">
    <ele>3.01</ele>
    <name><![CDATA[GRMTWN]]></name>
  </wpt>
  <wpt lat="43.61173" lon="1.32782">
    <ele>107.31</ele>
    <name><![CDATA[MAP]]></name>
  </wpt>
  <trk>
    <name><![CDATA[ACTIVE LOG: 10 OCT 2015 09:20]]></name>
    <trkseg>
      <trkpt lat="43.62314" lon="1.38874">
        <ele>150.1</ele>
        <time>2015-10-10T09:20:56Z</time>
      </trkpt>
      <trkpt lat="43.62314" lon="1.38874">
        <ele>1141.7</ele>
        <time>2015-10-10T09:20:57Z</time>
      </trkpt>
      <trkpt lat="43.62314" lon="1.38874">
        <ele>1140.26</ele>
        <time>2015-10-10T09:21:05Z</time>
      </trkpt>
      <trkpt lat="43.62314" lon="1.38874">
        <ele>1140.74</ele>
        <time>2015-10-10T09:21:59Z</time>
      </trkpt>
      <trkpt lat="43.62314" lon="1.38874">
        <ele>1142.66</ele>
        <time>2015-10-10T09:22:09Z</time>
      </trkpt>
      <trkpt lat="43.62314" lon="1.38874">
        <ele>1142.18</ele>
        <time>2015-10-10T09:22:53Z</time>
      </trkpt>
      <trkpt lat="43.62314" lon="1.38874">
        <ele>1143.14</ele>
        <time>2015-10-10T09:23:28Z</time>
      </trkpt>
      <trkpt lat="43.62314" lon="1.38874">
        <ele>1141.22</ele>
        <time>2015-10-10T09:23:29Z</time>
      </trkpt>
      <trkpt lat="43.62314" lon="1.38874">
        <ele>1139.78</ele>
        <time>2015-10-10T09:23:42Z</time>
      </trkpt>
      <trkpt lat="43.62314" lon="1.38874">
        <ele>1141.22</ele>
        <time>2015-10-10T09:23:44Z</time>
      </trkpt>
      <trkpt lat="43.62314" lon="1.38874">
        <ele>1139.78</ele>
        <time>2015-10-10T09:23:45Z</time>
      </trkpt>
      <trkpt lat="43.62314" lon="1.38874">
        <ele>1141.7</ele>
        <time>2015-10-10T09:23:55Z</time>
      </trkpt>
    </trkseg>
  </trk>
  <trk>
    <name><![CDATA[ACTIVE LOG: 10 OCT 2015 09:24]]></name>
    <trkseg>
      <trkpt lat="42.67906" lon="1.94969">
        <ele>1141.22</ele>
        <time>2015-10-10T09:24:24Z</time>
      </trkpt>
      <trkpt lat="42.67901" lon="1.94931">
        <ele>1140.74</ele>
        <time>2015-10-10T09:25:01Z</time>
      </trkpt>
      <trkpt lat="42.67894" lon="1.94948">
        <ele>1140.74</ele>
        <time>2015-10-10T09:25:43Z</time>
      </trkpt>
      <trkpt lat="42.67898" lon="1.94954">
        <ele>1140.26</ele>
        <time>2015-10-10T09:26:02Z</time>
      </trkpt>
      <trkpt lat="42.67897" lon="1.94962">
        <ele>1139.78</ele>
        <time>2015-10-10T09:26:35Z</time>
      </trkpt>
      <trkpt lat="42.67896" lon="1.94962">
        <ele>1139.78</ele>
        <time>2015-10-10T09:27:24Z</time>
      </trkpt>
      <trkpt lat="42.67894" lon="1.94961">
        <ele>1139.3</ele>
        <time>2015-10-10T09:27:46Z</time>
      </trkpt>
      <trkpt lat="42.6789" lon="1.94955">
        <ele>1139.3</ele>
        <time>2015-10-10T09:28:11Z</time>
      </trkpt>
      <trkpt lat="42.67884" lon="1.94944">
        <ele>1139.3</ele>
        <time>2015-10-10T09:28:31Z</time>
      </trkpt>
      <trkpt lat="42.67882" lon="1.94947">
        <ele>1140.74</ele>
        <time>2015-10-10T09:28:52Z</time>
      </trkpt>
      <trkpt lat="42.67873" lon="1.94962">
        <ele>1140.26</ele>
        <time>2015-10-10T09:29:08Z</time>
      </trkpt>
      <trkpt lat="42.67857" lon="1.94965">
        <ele>1140.26</ele>
        <time>2015-10-10T09:29:26Z</time>
      </trkpt>
      <trkpt lat="42.67848" lon="1.94973">
        <ele>1141.22</ele>
        <time>2015-10-10T09:29:40Z</time>
      </trkpt>
      <trkpt lat="42.6784" lon="1.94988">
        <ele>1141.22</ele>
        <time>2015-10-10T09:29:57Z</time>
      </trkpt>
      <trkpt lat="42.67838" lon="1.94994">
        <ele>1140.26</ele>
        <time>2015-10-10T09:30:02Z</time>
      </trkpt>
      <trkpt lat="42.67838" lon="1.94997">
        <ele>1141.7</ele>
        <time>2015-10-10T09:30:05Z</time>
      </trkpt>
      <trkpt lat="42.67827" lon="1.95009">
        <ele>1141.7</ele>
        <time>2015-10-10T09:30:19Z</time>
      </trkpt>
      <trkpt lat="42.67814" lon="1.95014">
        <ele>1141.7</ele>
        <time>2015-10-10T09:30:36Z</time>
      </trkpt>
      <trkpt lat="42.67808" lon="1.95015">
        <ele>1142.66</ele>
        <time>2015-10-10T09:30:47Z</time>
      </trkpt>
      <trkpt lat="42.67798" lon="1.95022">
        <ele>1145.55</ele>
        <time>2015-10-10T09:31:01Z</time>
      </trkpt>
      <trkpt lat="42.67797" lon="1.95031">
        <ele>1145.55</ele>
        <time>2015-10-10T09:31:10Z</time>
      </trkpt>
      <trkpt lat="42.67793" lon="1.95045">
        <ele>1146.03</ele>
        <time>2015-10-10T09:31:18Z</time>
      </trkpt>
      <trkpt lat="42.67781" lon="1.95053">
        <ele>1147.47</ele>
        <time>2015-10-10T09:31:32Z</time>
      </trkpt>
      <trkpt lat="42.67768" lon="1.95078">
        <ele>1147.95</ele>
        <time>2015-10-10T09:31:53Z</time>
      </trkpt>
      <trkpt lat="42.67765" lon="1.95081">
        <ele>1147.95</ele>
        <time>2015-10-10T09:31:56Z</time>
      </trkpt>
      <trkpt lat="42.67749" lon="1.95094">
        <ele>1149.87</ele>
        <time>2015-10-10T09:32:12Z</time>
      </trkpt>
      <trkpt lat="42.6774" lon="1.95107">
        <ele>1150.84</ele>
        <time>2015-10-10T09:32:23Z</time>
      </trkpt>
      <trkpt lat="42.67726" lon="1.95123">
        <ele>1153.24</ele>
        <time>2015-10-10T09:32:41Z</time>
      </trkpt>
      <trkpt lat="42.67714" lon="1.95139">
        <ele>1154.2</ele>
        <time>2015-10-10T09:32:56Z</time>
      </trkpt>
      <trkpt lat="42.67708" lon="1.95143">
        <ele>1154.68</ele>
        <time>2015-10-10T09:33:02Z</time>
      </trkpt>
      <trkpt lat="42.67698" lon="1.95154">
        <ele>1156.12</ele>
        <time>2015-10-10T09:33:12Z</time>
      </trkpt>
      <trkpt lat="42.67689" lon="1.95174">
        <ele>1156.12</ele>
        <time>2015-10-10T09:33:24Z</time>
      </trkpt>
      <trkpt lat="42.67681" lon="1.95186">
        <ele>1157.56</ele>
        <time>2015-10-10T09:33:36Z</time>
      </trkpt>
      <trkpt lat="42.67676" lon="1.95193">
        <ele>1158.05</ele>
        <time>2015-10-10T09:33:47Z</time>
      </trkpt>
      <trkpt lat="42.67667" lon="1.95189">
        <ele>1159.01</ele>
        <time>2015-10-10T09:34:08Z</time>
      </trkpt>
      <trkpt lat="42.67654" lon="1.95196">
        <ele>1159.49</ele>
        <time>2015-10-10T09:34:34Z</time>
      </trkpt>
      <trkpt lat="42.6764" lon="1.95204">
        <ele>1160.45</ele>
        <time>2015-10-10T09:34:53Z</time>
      </trkpt>
      <trkpt lat="42.67637" lon="1.95205">
        <ele>1161.41</ele>
        <time>2015-10-10T09:35:15Z</time>
      </trkpt>
      <trkpt lat="42.67621" lon="1.95209">
        <ele>1160.93</ele>
        <time>2015-10-10T09:35:31Z</time>
      </trkpt>
      <trkpt lat="42.67606" lon="1.9522">
        <ele>1160.45</ele>
        <time>2015-10-10T09:35:45Z</time>
      </trkpt>
      <trkpt lat="42.67597" lon="1.95241">
        <ele>1159.49</ele>
        <time>2015-10-10T09:36:00Z</time>
      </trkpt>
      <trkpt lat="42.67593" lon="1.95261">
        <ele>1159.49</ele>
        <time>2015-10-10T09:36:13Z</time>
      </trkpt>
      <trkpt lat="42.67593" lon="1.95283">
        <ele>1160.45</ele>
        <time>2015-10-10T09:36:28Z</time>
      </trkpt>
      <trkpt lat="42.67589" lon="1.9532">
        <ele>1160.93</ele>
        <time>2015-10-10T09:36:52Z</time>
      </trkpt>
      <trkpt lat="42.67582" lon="1.95334">
        <ele>1161.89</ele>
        <time>2015-10-10T09:37:02Z</time>
      </trkpt>
      <trkpt lat="42.67572" lon="1.95338">
        <ele>1163.33</ele>
        <time>2015-10-10T09:37:11Z</time>
      </trkpt>
      <trkpt lat="42.67565" lon="1.95341">
        <ele>1163.81</ele>
        <time>2015-10-10T09:37:17Z</time>
      </trkpt>
      <trkpt lat="42.6756" lon="1.95343">
        <ele>1163.33</ele>
        <time>2015-10-10T09:37:21Z</time>
      </trkpt>
      <trkpt lat="42.67543" lon="1.9534">
        <ele>1164.77</ele>
        <time>2015-10-10T09:37:37Z</time>
      </trkpt>
      <trkpt lat="42.67531" lon="1.95348">
        <ele>1166.22</ele>
        <time>2015-10-10T09:37:51Z</time>
      </trkpt>
      <trkpt lat="42.67513" lon="1.95361">
        <ele>1169.1</ele>
        <time>2015-10-10T09:38:09Z</time>
      </trkpt>
      <trkpt lat="42.67496" lon="1.95367">
        <ele>1171.02</ele>
        <time>2015-10-10T09:38:28Z</time>
      </trkpt>
      <trkpt lat="42.67483" lon="1.95386">
        <ele>1173.43</ele>
        <time>2015-10-10T09:38:51Z</time>
      </trkpt>
      <trkpt lat="42.67473" lon="1.95397">
        <ele>1173.43</ele>
        <time>2015-10-10T09:39:08Z</time>
      </trkpt>
      <trkpt lat="42.6747" lon="1.954">
        <ele>1174.87</ele>
        <time>2015-10-10T09:39:11Z</time>
      </trkpt>
      <trkpt lat="42.67462" lon="1.9541">
        <ele>1175.83</ele>
        <time>2015-10-10T09:39:23Z</time>
      </trkpt>
      <trkpt lat="42.67459" lon="1.95432">
        <ele>1178.23</ele>
        <time>2015-10-10T09:39:43Z</time>
      </trkpt>
      <trkpt lat="42.67454" lon="1.95444">
        <ele>1178.23</ele>
        <time>2015-10-10T09:39:55Z</time>
      </trkpt>
      <trkpt lat="42.67442" lon="1.95451">
        <ele>1179.67</ele>
        <time>2015-10-10T09:40:08Z</time>
      </trkpt>
      <trkpt lat="42.67431" lon="1.95455">
        <ele>1180.16</ele>
        <time>2015-10-10T09:40:20Z</time>
      </trkpt>
      <trkpt lat="42.67426" lon="1.9546">
        <ele>1179.19</ele>
        <time>2015-10-10T09:40:26Z</time>
      </trkpt>
      <trkpt lat="42.67412" lon="1.95471">
        <ele>1178.71</ele>
        <time>2015-10-10T09:40:41Z</time>
      </trkpt>
      <trkpt lat="42.67401" lon="1.95487">
        <ele>1178.71</ele>
        <time>2015-10-10T09:40:56Z</time>
      </trkpt>
      <trkpt lat="42.67391" lon="1.95503">
        <ele>1180.64</ele>
        <time>2015-10-10T09:41:13Z</time>
      </trkpt>
      <trkpt lat="42.67382" lon="1.95512">
        <ele>1182.56</ele>
        <time>2015-10-10T09:41:26Z</time>
      </trkpt>
      <trkpt lat="42.6737" lon="1.95526">
        <ele>1184.48</ele>
        <time>2015-10-10T09:41:43Z</time>
      </trkpt>
      <trkpt lat="42.67369" lon="1.95527">
        <ele>1185.44</ele>
        <time>2015-10-10T09:41:44Z</time>
      </trkpt>
      <trkpt lat="42.67362" lon="1.95531">
        <ele>1187.37</ele>
        <time>2015-10-10T09:41:56Z</time>
      </trkpt>
      <trkpt lat="42.67345" lon="1.95533">
        <ele>1189.29</ele>
        <time>2015-10-10T09:42:16Z</time>
      </trkpt>
      <trkpt lat="42.67335" lon="1.95558">
        <ele>1189.77</ele>
        <time>2015-10-10T09:42:37Z</time>
      </trkpt>
      <trkpt lat="42.67327" lon="1.95549">
        <ele>1191.69</ele>
        <time>2015-10-10T09:42:54Z</time>
      </trkpt>
      <trkpt lat="42.67338" lon="1.95526">
        <ele>1193.13</ele>
        <time>2015-10-10T09:43:15Z</time>
      </trkpt>
      <trkpt lat="42.67323" lon="1.95515">
        <ele>1195.54</ele>
        <time>2015-10-10T09:43:33Z</time>
      </trkpt>
      <trkpt lat="42.67306" lon="1.95523">
        <ele>1197.46</ele>
        <time>2015-10-10T09:43:49Z</time>
      </trkpt>
      <trkpt lat="42.67305" lon="1.95552">
        <ele>1198.42</ele>
        <time>2015-10-10T09:44:04Z</time>
      </trkpt>
      <trkpt lat="42.67304" lon="1.95568">
        <ele>1199.38</ele>
        <time>2015-10-10T09:44:15Z</time>
      </trkpt>
      <trkpt lat="42.67301" lon="1.95585">
        <ele>1200.82</ele>
        <time>2015-10-10T09:44:31Z</time>
      </trkpt>
      <trkpt lat="42.67296" lon="1.95594">
        <ele>1202.27</ele>
        <time>2015-10-10T09:44:41Z</time>
      </trkpt>
      <trkpt lat="42.67284" lon="1.95607">
        <ele>1202.75</ele>
        <time>2015-10-10T09:44:56Z</time>
      </trkpt>
      <trkpt lat="42.6727" lon="1.95611">
        <ele>1204.67</ele>
        <time>2015-10-10T09:45:10Z</time>
      </trkpt>
      <trkpt lat="42.67257" lon="1.95618">
        <ele>1206.59</ele>
        <time>2015-10-10T09:45:26Z</time>
      </trkpt>
      <trkpt lat="42.67244" lon="1.95621">
        <ele>1207.55</ele>
        <time>2015-10-10T09:45:40Z</time>
      </trkpt>
      <trkpt lat="42.67235" lon="1.95623">
        <ele>1208.51</ele>
        <time>2015-10-10T09:45:52Z</time>
      </trkpt>
      <trkpt lat="42.6723" lon="1.95627">
        <ele>1209.96</ele>
        <time>2015-10-10T09:45:58Z</time>
      </trkpt>
      <trkpt lat="42.67221" lon="1.95643">
        <ele>1208.51</ele>
        <time>2015-10-10T09:46:12Z</time>
      </trkpt>
      <trkpt lat="42.67216" lon="1.95652">
        <ele>1208.51</ele>
        <time>2015-10-10T09:46:18Z</time>
      </trkpt>
      <trkpt lat="42.67208" lon="1.95663">
        <ele>1209</ele>
        <time>2015-10-10T09:46:26Z</time>
      </trkpt>
      <trkpt lat="42.67197" lon="1.95679">
        <ele>1208.51</ele>
        <time>2015-10-10T09:46:40Z</time>
      </trkpt>
      <trkpt lat="42.67187" lon="1.95689">
        <ele>1208.51</ele>
        <time>2015-10-10T09:46:53Z</time>
      </trkpt>
      <trkpt lat="42.67168" lon="1.95709">
        <ele>1209</ele>
        <time>2015-10-10T09:47:13Z</time>
      </trkpt>
      <trkpt lat="42.67149" lon="1.95717">
        <ele>1210.92</ele>
        <time>2015-10-10T09:47:33Z</time>
      </trkpt>
      <trkpt lat="42.67136" lon="1.95723">
        <ele>1211.88</ele>
        <time>2015-10-10T09:47:46Z</time>
      </trkpt>
      <trkpt lat="42.67119" lon="1.9573">
        <ele>1213.32</ele>
        <time>2015-10-10T09:48:02Z</time>
      </trkpt>
      <trkpt lat="42.67114" lon="1.95732">
        <ele>1214.76</ele>
        <time>2015-10-10T09:48:07Z</time>
      </trkpt>
      <trkpt lat="42.67095" lon="1.95738">
        <ele>1215.72</ele>
        <time>2015-10-10T09:48:29Z</time>
      </trkpt>
      <trkpt lat="42.67089" lon="1.95738">
        <ele>1217.65</ele>
        <time>2015-10-10T09:48:37Z</time>
      </trkpt>
      <trkpt lat="42.6708" lon="1.95744">
        <ele>1221.01</ele>
        <time>2015-10-10T09:48:52Z</time>
      </trkpt>
      <trkpt lat="42.67066" lon="1.95744">
        <ele>1221.49</ele>
        <time>2015-10-10T09:49:11Z</time>
      </trkpt>
      <trkpt lat="42.67056" lon="1.95746">
        <ele>1223.9</ele>
        <time>2015-10-10T09:49:25Z</time>
      </trkpt>
      <trkpt lat="42.67048" lon="1.95764">
        <ele>1226.78</ele>
        <time>2015-10-10T09:49:43Z</time>
      </trkpt>
      <trkpt lat="42.67048" lon="1.95775">
        <ele>1227.74</ele>
        <time>2015-10-10T09:49:50Z</time>
      </trkpt>
      <trkpt lat="42.67045" lon="1.95791">
        <ele>1229.18</ele>
        <time>2015-10-10T09:50:04Z</time>
      </trkpt>
      <trkpt lat="42.67046" lon="1.95796">
        <ele>1230.14</ele>
        <time>2015-10-10T09:50:07Z</time>
      </trkpt>
      <trkpt lat="42.67043" lon="1.95815">
        <ele>1231.11</ele>
        <time>2015-10-10T09:50:21Z</time>
      </trkpt>
      <trkpt lat="42.67042" lon="1.95828">
        <ele>1233.51</ele>
        <time>2015-10-10T09:50:31Z</time>
      </trkpt>
      <trkpt lat="42.6704" lon="1.95848">
        <ele>1235.91</ele>
        <time>2015-10-10T09:50:47Z</time>
      </trkpt>
      <trkpt lat="42.6704" lon="1.95861">
        <ele>1238.32</ele>
        <time>2015-10-10T09:51:00Z</time>
      </trkpt>
      <trkpt lat="42.6704" lon="1.95881">
        <ele>1239.28</ele>
        <time>2015-10-10T09:51:15Z</time>
      </trkpt>
      <trkpt lat="42.67043" lon="1.95896">
        <ele>1243.12</ele>
        <time>2015-10-10T09:51:32Z</time>
      </trkpt>
      <trkpt lat="42.67042" lon="1.95903">
        <ele>1242.64</ele>
        <time>2015-10-10T09:51:39Z</time>
      </trkpt>
      <trkpt lat="42.67042" lon="1.95906">
        <ele>1243.12</ele>
        <time>2015-10-10T09:51:42Z</time>
      </trkpt>
      <trkpt lat="42.67038" lon="1.95923">
        <ele>1244.56</ele>
        <time>2015-10-10T09:51:56Z</time>
      </trkpt>
      <trkpt lat="42.67031" lon="1.95952">
        <ele>1247.45</ele>
        <time>2015-10-10T09:52:15Z</time>
      </trkpt>
      <trkpt lat="42.6703" lon="1.95959">
        <ele>1247.93</ele>
        <time>2015-10-10T09:52:20Z</time>
      </trkpt>
      <trkpt lat="42.67024" lon="1.95979">
        <ele>1249.37</ele>
        <time>2015-10-10T09:52:39Z</time>
      </trkpt>
      <trkpt lat="42.67021" lon="1.95986">
        <ele>1249.37</ele>
        <time>2015-10-10T09:52:47Z</time>
      </trkpt>
      <trkpt lat="42.67014" lon="1.95993">
        <ele>1251.29</ele>
        <time>2015-10-10T09:52:55Z</time>
      </trkpt>
      <trkpt lat="42.67012" lon="1.96011">
        <ele>1251.77</ele>
        <time>2015-10-10T09:53:09Z</time>
      </trkpt>
      <trkpt lat="42.67005" lon="1.96025">
        <ele>1254.66</ele>
        <time>2015-10-10T09:53:25Z</time>
      </trkpt>
      <trkpt lat="42.66996" lon="1.96041">
        <ele>1256.58</ele>
        <time>2015-10-10T09:53:42Z</time>
      </trkpt>
      <trkpt lat="42.66982" lon="1.96056">
        <ele>1258.98</ele>
        <time>2015-10-10T09:53:57Z</time>
      </trkpt>
      <trkpt lat="42.66979" lon="1.96058">
        <ele>1258.98</ele>
        <time>2015-10-10T09:54:00Z</time>
      </trkpt>
      <trkpt lat="42.66965" lon="1.96071">
        <ele>1260.43</ele>
        <time>2015-10-10T09:54:17Z</time>
      </trkpt>
      <trkpt lat="42.66959" lon="1.96079">
        <ele>1260.43</ele>
        <time>2015-10-10T09:54:26Z</time>
      </trkpt>
      <trkpt lat="42.66952" lon="1.96094">
        <ele>1261.39</ele>
        <time>2015-10-10T09:54:41Z</time>
      </trkpt>
      <trkpt lat="42.66944" lon="1.96104">
        <ele>1263.31</ele>
        <time>2015-10-10T09:54:54Z</time>
      </trkpt>
      <trkpt lat="42.66935" lon="1.96116">
        <ele>1265.23</ele>
        <time>2015-10-10T09:55:05Z</time>
      </trkpt>
      <trkpt lat="42.66926" lon="1.96127">
        <ele>1266.19</ele>
        <time>2015-10-10T09:55:16Z</time>
      </trkpt>
      <trkpt lat="42.66913" lon="1.96135">
        <ele>1268.6</ele>
        <time>2015-10-10T09:55:31Z</time>
      </trkpt>
      <trkpt lat="42.66902" lon="1.96144">
        <ele>1270.04</ele>
        <time>2015-10-10T09:55:45Z</time>
      </trkpt>
      <trkpt lat="42.66891" lon="1.96163">
        <ele>1272.92</ele>
        <time>2015-10-10T09:56:04Z</time>
      </trkpt>
      <trkpt lat="42.66879" lon="1.9617">
        <ele>1272.92</ele>
        <time>2015-10-10T09:56:17Z</time>
      </trkpt>
      <trkpt lat="42.66876" lon="1.96172">
        <ele>1273.4</ele>
        <time>2015-10-10T09:56:19Z</time>
      </trkpt>
      <trkpt lat="42.66865" lon="1.96184">
        <ele>1273.88</ele>
        <time>2015-10-10T09:56:30Z</time>
      </trkpt>
      <trkpt lat="42.66854" lon="1.96194">
        <ele>1272.92</ele>
        <time>2015-10-10T09:56:46Z</time>
      </trkpt>
      <trkpt lat="42.66845" lon="1.96202">
        <ele>1272.44</ele>
        <time>2015-10-10T09:56:54Z</time>
      </trkpt>
      <trkpt lat="42.66835" lon="1.96209">
        <ele>1272.92</ele>
        <time>2015-10-10T09:57:05Z</time>
      </trkpt>
      <trkpt lat="42.66824" lon="1.96224">
        <ele>1273.88</ele>
        <time>2015-10-10T09:57:20Z</time>
      </trkpt>
      <trkpt lat="42.66812" lon="1.96233">
        <ele>1275.33</ele>
        <time>2015-10-10T09:57:32Z</time>
      </trkpt>
      <trkpt lat="42.66807" lon="1.96254">
        <ele>1276.29</ele>
        <time>2015-10-10T09:57:46Z</time>
      </trkpt>
      <trkpt lat="42.66796" lon="1.96269">
        <ele>1278.21</ele>
        <time>2015-10-10T09:58:02Z</time>
      </trkpt>
      <trkpt lat="42.66784" lon="1.96277">
        <ele>1278.21</ele>
        <time>2015-10-10T09:58:14Z</time>
      </trkpt>
      <trkpt lat="42.66773" lon="1.96283">
        <ele>1280.13</ele>
        <time>2015-10-10T09:58:27Z</time>
      </trkpt>
      <trkpt lat="42.66762" lon="1.96289">
        <ele>1281.09</ele>
        <time>2015-10-10T09:58:40Z</time>
      </trkpt>
      <trkpt lat="42.66747" lon="1.96303">
        <ele>1281.57</ele>
        <time>2015-10-10T09:58:57Z</time>
      </trkpt>
      <trkpt lat="42.66739" lon="1.96322">
        <ele>1282.54</ele>
        <time>2015-10-10T09:59:10Z</time>
      </trkpt>
      <trkpt lat="42.66729" lon="1.96349">
        <ele>1283.98</ele>
        <time>2015-10-10T09:59:27Z</time>
      </trkpt>
      <trkpt lat="42.66726" lon="1.96362">
        <ele>1284.46</ele>
        <time>2015-10-10T09:59:38Z</time>
      </trkpt>
      <trkpt lat="42.66725" lon="1.96363">
        <ele>1283.98</ele>
        <time>2015-10-10T09:59:39Z</time>
      </trkpt>
      <trkpt lat="42.66716" lon="1.96377">
        <ele>1283.98</ele>
        <time>2015-10-10T09:59:50Z</time>
      </trkpt>
      <trkpt lat="42.66708" lon="1.96384">
        <ele>1283.98</ele>
        <time>2015-10-10T09:59:58Z</time>
      </trkpt>
      <trkpt lat="42.66706" lon="1.96389">
        <ele>1283.5</ele>
        <time>2015-10-10T10:00:02Z</time>
      </trkpt>
      <trkpt lat="42.66701" lon="1.96395">
        <ele>1282.54</ele>
        <time>2015-10-10T10:00:08Z</time>
      </trkpt>
      <trkpt lat="42.66698" lon="1.964">
        <ele>1283.98</ele>
        <time>2015-10-10T10:00:12Z</time>
      </trkpt>
      <trkpt lat="42.66692" lon="1.96418">
        <ele>1283.5</ele>
        <time>2015-10-10T10:00:24Z</time>
      </trkpt>
      <trkpt lat="42.66687" lon="1.96437">
        <ele>1284.94</ele>
        <time>2015-10-10T10:00:37Z</time>
      </trkpt>
      <trkpt lat="42.66679" lon="1.96451">
        <ele>1285.9</ele>
        <time>2015-10-10T10:00:49Z</time>
      </trkpt>
      <trkpt lat="42.66678" lon="1.96452">
        <ele>1286.86</ele>
        <time>2015-10-10T10:00:51Z</time>
      </trkpt>
      <trkpt lat="42.66673" lon="1.96462">
        <ele>1285.9</ele>
        <time>2015-10-10T10:00:59Z</time>
      </trkpt>
      <trkpt lat="42.6667" lon="1.96468">
        <ele>1286.86</ele>
        <time>2015-10-10T10:01:04Z</time>
      </trkpt>
      <trkpt lat="42.66661" lon="1.96479">
        <ele>1287.34</ele>
        <time>2015-10-10T10:01:17Z</time>
      </trkpt>
      <trkpt lat="42.6666" lon="1.9648">
        <ele>1287.82</ele>
        <time>2015-10-10T10:01:19Z</time>
      </trkpt>
      <trkpt lat="42.66657" lon="1.96486">
        <ele>1287.82</ele>
        <time>2015-10-10T10:01:23Z</time>
      </trkpt>
      <trkpt lat="42.66654" lon="1.9649">
        <ele>1287.82</ele>
        <time>2015-10-10T10:01:27Z</time>
      </trkpt>
      <trkpt lat="42.66652" lon="1.96492">
        <ele>1288.3</ele>
        <time>2015-10-10T10:01:29Z</time>
      </trkpt>
      <trkpt lat="42.66646" lon="1.96496">
        <ele>1288.3</ele>
        <time>2015-10-10T10:01:34Z</time>
      </trkpt>
      <trkpt lat="42.66639" lon="1.96502">
        <ele>1287.82</ele>
        <time>2015-10-10T10:01:40Z</time>
      </trkpt>
      <trkpt lat="42.66637" lon="1.96512">
        <ele>1288.78</ele>
        <time>2015-10-10T10:01:48Z</time>
      </trkpt>
      <trkpt lat="42.66629" lon="1.96525">
        <ele>1291.67</ele>
        <time>2015-10-10T10:02:01Z</time>
      </trkpt>
      <trkpt lat="42.66633" lon="1.96541">
        <ele>1291.19</ele>
        <time>2015-10-10T10:02:16Z</time>
      </trkpt>
      <trkpt lat="42.66638" lon="1.96554">
        <ele>1292.15</ele>
        <time>2015-10-10T10:02:29Z</time>
      </trkpt>
      <trkpt lat="42.66646" lon="1.9657">
        <ele>1293.59</ele>
        <time>2015-10-10T10:02:45Z</time>
      </trkpt>
      <trkpt lat="42.66649" lon="1.96583">
        <ele>1295.51</ele>
        <time>2015-10-10T10:02:57Z</time>
      </trkpt>
      <trkpt lat="42.66646" lon="1.96597">
        <ele>1297.44</ele>
        <time>2015-10-10T10:03:13Z</time>
      </trkpt>
      <trkpt lat="42.66646" lon="1.96603">
        <ele>1299.36</ele>
        <time>2015-10-10T10:03:19Z</time>
      </trkpt>
      <trkpt lat="42.66639" lon="1.96622">
        <ele>1300.8</ele>
        <time>2015-10-10T10:03:34Z</time>
      </trkpt>
      <trkpt lat="42.66626" lon="1.96632">
        <ele>1301.76</ele>
        <time>2015-10-10T10:03:49Z</time>
      </trkpt>
      <trkpt lat="42.66612" lon="1.96635">
        <ele>1302.72</ele>
        <time>2015-10-10T10:04:03Z</time>
      </trkpt>
      <trkpt lat="42.66602" lon="1.96638">
        <ele>1303.69</ele>
        <time>2015-10-10T10:04:17Z</time>
      </trkpt>
      <trkpt lat="42.66597" lon="1.96638">
        <ele>1303.2</ele>
        <time>2015-10-10T10:04:30Z</time>
      </trkpt>
      <trkpt lat="42.66593" lon="1.96638">
        <ele>1302.72</ele>
        <time>2015-10-10T10:04:35Z</time>
      </trkpt>
      <trkpt lat="42.66588" lon="1.96642">
        <ele>1303.2</ele>
        <time>2015-10-10T10:04:41Z</time>
      </trkpt>
      <trkpt lat="42.66586" lon="1.96643">
        <ele>1302.24</ele>
        <time>2015-10-10T10:04:44Z</time>
      </trkpt>
      <trkpt lat="42.66577" lon="1.96643">
        <ele>1302.24</ele>
        <time>2015-10-10T10:04:51Z</time>
      </trkpt>
      <trkpt lat="42.66569" lon="1.96642">
        <ele>1301.76</ele>
        <time>2015-10-10T10:04:57Z</time>
      </trkpt>
      <trkpt lat="42.66562" lon="1.96641">
        <ele>1300.8</ele>
        <time>2015-10-10T10:05:03Z</time>
      </trkpt>
      <trkpt lat="42.66558" lon="1.9664">
        <ele>1300.8</ele>
        <time>2015-10-10T10:05:07Z</time>
      </trkpt>
      <trkpt lat="42.66554" lon="1.96637">
        <ele>1300.8</ele>
        <time>2015-10-10T10:05:11Z</time>
      </trkpt>
      <trkpt lat="42.66549" lon="1.96634">
        <ele>1300.32</ele>
        <time>2015-10-10T10:05:16Z</time>
      </trkpt>
      <trkpt lat="42.66535" lon="1.96638">
        <ele>1300.8</ele>
        <time>2015-10-10T10:05:31Z</time>
      </trkpt>
      <trkpt lat="42.66532" lon="1.96639">
        <ele>1300.8</ele>
        <time>2015-10-10T10:05:34Z</time>
      </trkpt>
      <trkpt lat="42.66516" lon="1.96638">
        <ele>1299.84</ele>
        <time>2015-10-10T10:05:48Z</time>
      </trkpt>
      <trkpt lat="42.66499" lon="1.96634">
        <ele>1300.32</ele>
        <time>2015-10-10T10:06:01Z</time>
      </trkpt>
      <trkpt lat="42.66487" lon="1.96632">
        <ele>1300.8</ele>
        <time>2015-10-10T10:06:14Z</time>
      </trkpt>
      <trkpt lat="42.66476" lon="1.96632">
        <ele>1301.28</ele>
        <time>2015-10-10T10:06:27Z</time>
      </trkpt>
      <trkpt lat="42.66474" lon="1.96631">
        <ele>1300.32</ele>
        <time>2015-10-10T10:06:29Z</time>
      </trkpt>
      <trkpt lat="42.66454" lon="1.96636">
        <ele>1300.8</ele>
        <time>2015-10-10T10:06:44Z</time>
      </trkpt>
      <trkpt lat="42.6645" lon="1.96637">
        <ele>1301.28</ele>
        <time>2015-10-10T10:06:48Z</time>
      </trkpt>
      <trkpt lat="42.66434" lon="1.96637">
        <ele>1301.28</ele>
        <time>2015-10-10T10:07:02Z</time>
      </trkpt>
      <trkpt lat="42.66412" lon="1.96644">
        <ele>1302.72</ele>
        <time>2015-10-10T10:07:19Z</time>
      </trkpt>
      <trkpt lat="42.66411" lon="1.96645">
        <ele>1302.72</ele>
        <time>2015-10-10T10:07:20Z</time>
      </trkpt>
      <trkpt lat="42.66403" lon="1.96649">
        <ele>1304.17</ele>
        <time>2015-10-10T10:07:28Z</time>
      </trkpt>
      <trkpt lat="42.66388" lon="1.96659">
        <ele>1304.65</ele>
        <time>2015-10-10T10:07:42Z</time>
      </trkpt>
      <trkpt lat="42.66374" lon="1.9666">
        <ele>1306.09</ele>
        <time>2015-10-10T10:07:54Z</time>
      </trkpt>
      <trkpt lat="42.6637" lon="1.96662">
        <ele>1306.09</ele>
        <time>2015-10-10T10:07:58Z</time>
      </trkpt>
      <trkpt lat="42.66366" lon="1.96663">
        <ele>1307.53</ele>
        <time>2015-10-10T10:08:02Z</time>
      </trkpt>
      <trkpt lat="42.66353" lon="1.96672">
        <ele>1308.97</ele>
        <time>2015-10-10T10:08:16Z</time>
      </trkpt>
      <trkpt lat="42.66344" lon="1.96677">
        <ele>1308.49</ele>
        <time>2015-10-10T10:08:23Z</time>
      </trkpt>
      <trkpt lat="42.66334" lon="1.96679">
        <ele>1309.93</ele>
        <time>2015-10-10T10:08:33Z</time>
      </trkpt>
      <trkpt lat="42.66332" lon="1.9668">
        <ele>1310.41</ele>
        <time>2015-10-10T10:08:35Z</time>
      </trkpt>
      <trkpt lat="42.66323" lon="1.96677">
        <ele>1312.34</ele>
        <time>2015-10-10T10:08:52Z</time>
      </trkpt>
      <trkpt lat="42.66338" lon="1.96667">
        <ele>1314.74</ele>
        <time>2015-10-10T10:09:09Z</time>
      </trkpt>
      <trkpt lat="42.66353" lon="1.96663">
        <ele>1314.74</ele>
        <time>2015-10-10T10:09:25Z</time>
      </trkpt>
      <trkpt lat="42.66365" lon="1.96647">
        <ele>1318.1</ele>
        <time>2015-10-10T10:09:40Z</time>
      </trkpt>
      <trkpt lat="42.6636" lon="1.9663">
        <ele>1320.51</ele>
        <time>2015-10-10T10:09:56Z</time>
      </trkpt>
      <trkpt lat="42.66345" lon="1.96628">
        <ele>1321.47</ele>
        <time>2015-10-10T10:10:12Z</time>
      </trkpt>
      <trkpt lat="42.6633" lon="1.9663">
        <ele>1324.83</ele>
        <time>2015-10-10T10:10:27Z</time>
      </trkpt>
      <trkpt lat="42.66324" lon="1.96626">
        <ele>1324.35</ele>
        <time>2015-10-10T10:10:34Z</time>
      </trkpt>
      <trkpt lat="42.66312" lon="1.9663">
        <ele>1326.76</ele>
        <time>2015-10-10T10:10:47Z</time>
      </trkpt>
      <trkpt lat="42.66311" lon="1.9663">
        <ele>1325.8</ele>
        <time>2015-10-10T10:10:48Z</time>
      </trkpt>
      <trkpt lat="42.66297" lon="1.96633">
        <ele>1328.2</ele>
        <time>2015-10-10T10:11:02Z</time>
      </trkpt>
      <trkpt lat="42.66291" lon="1.96629">
        <ele>1330.6</ele>
        <time>2015-10-10T10:11:18Z</time>
      </trkpt>
      <trkpt lat="42.66283" lon="1.9663">
        <ele>1332.52</ele>
        <time>2015-10-10T10:11:31Z</time>
      </trkpt>
      <trkpt lat="42.66272" lon="1.96618">
        <ele>1334.93</ele>
        <time>2015-10-10T10:11:46Z</time>
      </trkpt>
      <trkpt lat="42.6626" lon="1.96606">
        <ele>1336.37</ele>
        <time>2015-10-10T10:12:03Z</time>
      </trkpt>
      <trkpt lat="42.66237" lon="1.96604">
        <ele>1338.29</ele>
        <time>2015-10-10T10:12:19Z</time>
      </trkpt>
      <trkpt lat="42.66226" lon="1.96609">
        <ele>1339.73</ele>
        <time>2015-10-10T10:12:30Z</time>
      </trkpt>
      <trkpt lat="42.66214" lon="1.96605">
        <ele>1342.14</ele>
        <time>2015-10-10T10:12:43Z</time>
      </trkpt>
      <trkpt lat="42.66211" lon="1.96606">
        <ele>1340.7</ele>
        <time>2015-10-10T10:12:46Z</time>
      </trkpt>
      <trkpt lat="42.6619" lon="1.96612">
        <ele>1344.06</ele>
        <time>2015-10-10T10:13:06Z</time>
      </trkpt>
      <trkpt lat="42.66174" lon="1.96615">
        <ele>1345.02</ele>
        <time>2015-10-10T10:13:23Z</time>
      </trkpt>
      <trkpt lat="42.66173" lon="1.96615">
        <ele>1345.98</ele>
        <time>2015-10-10T10:13:25Z</time>
      </trkpt>
      <trkpt lat="42.66171" lon="1.96617">
        <ele>1345.02</ele>
        <time>2015-10-10T10:13:28Z</time>
      </trkpt>
      <trkpt lat="42.66166" lon="1.96619">
        <ele>1346.46</ele>
        <time>2015-10-10T10:13:33Z</time>
      </trkpt>
      <trkpt lat="42.66161" lon="1.96619">
        <ele>1345.98</ele>
        <time>2015-10-10T10:13:38Z</time>
      </trkpt>
      <trkpt lat="42.6615" lon="1.96624">
        <ele>1346.94</ele>
        <time>2015-10-10T10:13:51Z</time>
      </trkpt>
      <trkpt lat="42.66138" lon="1.96626">
        <ele>1348.39</ele>
        <time>2015-10-10T10:14:02Z</time>
      </trkpt>
      <trkpt lat="42.66131" lon="1.96626">
        <ele>1349.35</ele>
        <time>2015-10-10T10:14:08Z</time>
      </trkpt>
      <trkpt lat="42.66127" lon="1.96624">
        <ele>1350.31</ele>
        <time>2015-10-10T10:14:13Z</time>
      </trkpt>
      <trkpt lat="42.66124" lon="1.96621">
        <ele>1350.79</ele>
        <time>2015-10-10T10:14:17Z</time>
      </trkpt>
      <trkpt lat="42.66114" lon="1.96617">
        <ele>1352.71</ele>
        <time>2015-10-10T10:14:28Z</time>
      </trkpt>
      <trkpt lat="42.66101" lon="1.96608">
        <ele>1352.23</ele>
        <time>2015-10-10T10:14:41Z</time>
      </trkpt>
      <trkpt lat="42.66085" lon="1.96603">
        <ele>1353.19</ele>
        <time>2015-10-10T10:14:55Z</time>
      </trkpt>
      <trkpt lat="42.66074" lon="1.96598">
        <ele>1353.19</ele>
        <time>2015-10-10T10:15:07Z</time>
      </trkpt>
      <trkpt lat="42.66068" lon="1.96595">
        <ele>1354.15</ele>
        <time>2015-10-10T10:15:17Z</time>
      </trkpt>
      <trkpt lat="42.6606" lon="1.9659">
        <ele>1354.15</ele>
        <time>2015-10-10T10:15:28Z</time>
      </trkpt>
      <trkpt lat="42.66044" lon="1.96578">
        <ele>1355.12</ele>
        <time>2015-10-10T10:15:42Z</time>
      </trkpt>
      <trkpt lat="42.66043" lon="1.96577">
        <ele>1356.56</ele>
        <time>2015-10-10T10:15:43Z</time>
      </trkpt>
      <trkpt lat="42.6604" lon="1.96577">
        <ele>1356.56</ele>
        <time>2015-10-10T10:15:46Z</time>
      </trkpt>
      <trkpt lat="42.66026" lon="1.96571">
        <ele>1357.52</ele>
        <time>2015-10-10T10:16:00Z</time>
      </trkpt>
      <trkpt lat="42.6602" lon="1.96569">
        <ele>1358.48</ele>
        <time>2015-10-10T10:16:05Z</time>
      </trkpt>
      <trkpt lat="42.66011" lon="1.96565">
        <ele>1359.44</ele>
        <time>2015-10-10T10:16:17Z</time>
      </trkpt>
      <trkpt lat="42.65996" lon="1.96561">
        <ele>1361.36</ele>
        <time>2015-10-10T10:16:33Z</time>
      </trkpt>
      <trkpt lat="42.65989" lon="1.96563">
        <ele>1361.36</ele>
        <time>2015-10-10T10:16:50Z</time>
      </trkpt>
      <trkpt lat="42.65976" lon="1.96557">
        <ele>1363.77</ele>
        <time>2015-10-10T10:17:06Z</time>
      </trkpt>
      <trkpt lat="42.65967" lon="1.96557">
        <ele>1365.21</ele>
        <time>2015-10-10T10:17:16Z</time>
      </trkpt>
      <trkpt lat="42.65956" lon="1.96548">
        <ele>1367.13</ele>
        <time>2015-10-10T10:17:28Z</time>
      </trkpt>
      <trkpt lat="42.6595" lon="1.96538">
        <ele>1367.61</ele>
        <time>2015-10-10T10:17:40Z</time>
      </trkpt>
      <trkpt lat="42.65951" lon="1.96534">
        <ele>1368.09</ele>
        <time>2015-10-10T10:17:46Z</time>
      </trkpt>
      <trkpt lat="42.65954" lon="1.96527">
        <ele>1369.05</ele>
        <time>2015-10-10T10:17:56Z</time>
      </trkpt>
      <trkpt lat="42.65969" lon="1.96527">
        <ele>1370.02</ele>
        <time>2015-10-10T10:18:11Z</time>
      </trkpt>
      <trkpt lat="42.65979" lon="1.96533">
        <ele>1371.94</ele>
        <time>2015-10-10T10:18:25Z</time>
      </trkpt>
      <trkpt lat="42.6598" lon="1.96533">
        <ele>1371.46</ele>
        <time>2015-10-10T10:18:29Z</time>
      </trkpt>
      <trkpt lat="42.65998" lon="1.96535">
        <ele>1372.42</ele>
        <time>2015-10-10T10:18:46Z</time>
      </trkpt>
      <trkpt lat="42.66002" lon="1.96532">
        <ele>1373.38</ele>
        <time>2015-10-10T10:18:51Z</time>
      </trkpt>
      <trkpt lat="42.66002" lon="1.9653">
        <ele>1372.9</ele>
        <time>2015-10-10T10:18:53Z</time>
      </trkpt>
      <trkpt lat="42.66003" lon="1.96521">
        <ele>1374.34</ele>
        <time>2015-10-10T10:18:59Z</time>
      </trkpt>
      <trkpt lat="42.66" lon="1.96514">
        <ele>1375.3</ele>
        <time>2015-10-10T10:19:05Z</time>
      </trkpt>
      <trkpt lat="42.65988" lon="1.96505">
        <ele>1377.23</ele>
        <time>2015-10-10T10:19:18Z</time>
      </trkpt>
      <trkpt lat="42.65984" lon="1.96506">
        <ele>1376.75</ele>
        <time>2015-10-10T10:19:23Z</time>
      </trkpt>
      <trkpt lat="42.6597" lon="1.96497">
        <ele>1379.63</ele>
        <time>2015-10-10T10:19:41Z</time>
      </trkpt>
      <trkpt lat="42.65969" lon="1.96494">
        <ele>1380.59</ele>
        <time>2015-10-10T10:19:45Z</time>
      </trkpt>
      <trkpt lat="42.65957" lon="1.96482">
        <ele>1381.55</ele>
        <time>2015-10-10T10:20:02Z</time>
      </trkpt>
      <trkpt lat="42.65943" lon="1.96459">
        <ele>1383.47</ele>
        <time>2015-10-10T10:20:20Z</time>
      </trkpt>
      <trkpt lat="42.65932" lon="1.96447">
        <ele>1384.44</ele>
        <time>2015-10-10T10:20:35Z</time>
      </trkpt>
      <trkpt lat="42.65928" lon="1.96442">
        <ele>1385.4</ele>
        <time>2015-10-10T10:20:41Z</time>
      </trkpt>
      <trkpt lat="42.65915" lon="1.96439">
        <ele>1387.32</ele>
        <time>2015-10-10T10:20:52Z</time>
      </trkpt>
      <trkpt lat="42.65898" lon="1.96443">
        <ele>1388.28</ele>
        <time>2015-10-10T10:21:05Z</time>
      </trkpt>
      <trkpt lat="42.65896" lon="1.96444">
        <ele>1387.32</ele>
        <time>2015-10-10T10:21:07Z</time>
      </trkpt>
      <trkpt lat="42.65894" lon="1.96446">
        <ele>1388.28</ele>
        <time>2015-10-10T10:21:09Z</time>
      </trkpt>
      <trkpt lat="42.65886" lon="1.9645">
        <ele>1387.8</ele>
        <time>2015-10-10T10:21:16Z</time>
      </trkpt>
      <trkpt lat="42.65878" lon="1.96456">
        <ele>1388.76</ele>
        <time>2015-10-10T10:21:24Z</time>
      </trkpt>
      <trkpt lat="42.65866" lon="1.96465">
        <ele>1390.68</ele>
        <time>2015-10-10T10:21:39Z</time>
      </trkpt>
      <trkpt lat="42.65862" lon="1.96468">
        <ele>1391.17</ele>
        <time>2015-10-10T10:21:44Z</time>
      </trkpt>
      <trkpt lat="42.65856" lon="1.96475">
        <ele>1392.13</ele>
        <time>2015-10-10T10:21:52Z</time>
      </trkpt>
      <trkpt lat="42.65846" lon="1.96479">
        <ele>1393.57</ele>
        <time>2015-10-10T10:22:07Z</time>
      </trkpt>
      <trkpt lat="42.65828" lon="1.96485">
        <ele>1395.49</ele>
        <time>2015-10-10T10:22:25Z</time>
      </trkpt>
      <trkpt lat="42.65812" lon="1.96492">
        <ele>1395.49</ele>
        <time>2015-10-10T10:22:38Z</time>
      </trkpt>
      <trkpt lat="42.65801" lon="1.96498">
        <ele>1398.37</ele>
        <time>2015-10-10T10:22:50Z</time>
      </trkpt>
      <trkpt lat="42.65799" lon="1.96498">
        <ele>1397.41</ele>
        <time>2015-10-10T10:22:52Z</time>
      </trkpt>
      <trkpt lat="42.65789" lon="1.965">
        <ele>1398.37</ele>
        <time>2015-10-10T10:23:04Z</time>
      </trkpt>
      <trkpt lat="42.65777" lon="1.965">
        <ele>1398.86</ele>
        <time>2015-10-10T10:23:14Z</time>
      </trkpt>
      <trkpt lat="42.65771" lon="1.96498">
        <ele>1399.34</ele>
        <time>2015-10-10T10:23:20Z</time>
      </trkpt>
      <trkpt lat="42.65764" lon="1.96495">
        <ele>1399.34</ele>
        <time>2015-10-10T10:23:27Z</time>
      </trkpt>
      <trkpt lat="42.65759" lon="1.96495">
        <ele>1399.34</ele>
        <time>2015-10-10T10:23:32Z</time>
      </trkpt>
      <trkpt lat="42.65747" lon="1.96496">
        <ele>1399.34</ele>
        <time>2015-10-10T10:23:41Z</time>
      </trkpt>
      <trkpt lat="42.65736" lon="1.96505">
        <ele>1399.82</ele>
        <time>2015-10-10T10:23:50Z</time>
      </trkpt>
      <trkpt lat="42.65715" lon="1.96506">
        <ele>1401.26</ele>
        <time>2015-10-10T10:24:08Z</time>
      </trkpt>
      <trkpt lat="42.65701" lon="1.96504">
        <ele>1401.74</ele>
        <time>2015-10-10T10:24:20Z</time>
      </trkpt>
      <trkpt lat="42.65697" lon="1.96503">
        <ele>1401.26</ele>
        <time>2015-10-10T10:24:23Z</time>
      </trkpt>
      <trkpt lat="42.65685" lon="1.965">
        <ele>1401.74</ele>
        <time>2015-10-10T10:24:35Z</time>
      </trkpt>
      <trkpt lat="42.6567" lon="1.96492">
        <ele>1402.22</ele>
        <time>2015-10-10T10:24:48Z</time>
      </trkpt>
      <trkpt lat="42.65664" lon="1.9649">
        <ele>1402.22</ele>
        <time>2015-10-10T10:24:53Z</time>
      </trkpt>
      <trkpt lat="42.65653" lon="1.96485">
        <ele>1402.22</ele>
        <time>2015-10-10T10:25:03Z</time>
      </trkpt>
      <trkpt lat="42.65636" lon="1.9647">
        <ele>1403.66</ele>
        <time>2015-10-10T10:25:23Z</time>
      </trkpt>
      <trkpt lat="42.65619" lon="1.96462">
        <ele>1403.18</ele>
        <time>2015-10-10T10:25:41Z</time>
      </trkpt>
      <trkpt lat="42.65606" lon="1.96454">
        <ele>1401.26</ele>
        <time>2015-10-10T10:25:55Z</time>
      </trkpt>
      <trkpt lat="42.65599" lon="1.96449">
        <ele>1402.22</ele>
        <time>2015-10-10T10:26:09Z</time>
      </trkpt>
      <trkpt lat="42.65589" lon="1.96442">
        <ele>1402.22</ele>
        <time>2015-10-10T10:26:23Z</time>
      </trkpt>
      <trkpt lat="42.65588" lon="1.96436">
        <ele>1402.7</ele>
        <time>2015-10-10T10:26:39Z</time>
      </trkpt>
      <trkpt lat="42.65588" lon="1.96435">
        <ele>1402.22</ele>
        <time>2015-10-10T10:26:56Z</time>
      </trkpt>
      <trkpt lat="42.6559" lon="1.96435">
        <ele>1403.18</ele>
        <time>2015-10-10T10:27:15Z</time>
      </trkpt>
      <trkpt lat="42.65596" lon="1.96437">
        <ele>1402.7</ele>
        <time>2015-10-10T10:27:51Z</time>
      </trkpt>
      <trkpt lat="42.65593" lon="1.96433">
        <ele>1402.22</ele>
        <time>2015-10-10T10:28:09Z</time>
      </trkpt>
      <trkpt lat="42.65591" lon="1.96435">
        <ele>1401.26</ele>
        <time>2015-10-10T10:28:31Z</time>
      </trkpt>
      <trkpt lat="42.65593" lon="1.96435">
        <ele>1402.7</ele>
        <time>2015-10-10T10:29:37Z</time>
      </trkpt>
      <trkpt lat="42.65592" lon="1.96433">
        <ele>1402.7</ele>
        <time>2015-10-10T10:29:58Z</time>
      </trkpt>
      <trkpt lat="42.65593" lon="1.96438">
        <ele>1402.22</ele>
        <time>2015-10-10T10:30:10Z</time>
      </trkpt>
      <trkpt lat="42.65589" lon="1.96446">
        <ele>1402.7</ele>
        <time>2015-10-10T10:30:44Z</time>
      </trkpt>
      <trkpt lat="42.65593" lon="1.96438">
        <ele>1401.26</ele>
        <time>2015-10-10T10:31:03Z</time>
      </trkpt>
      <trkpt lat="42.65593" lon="1.96431">
        <ele>1401.74</ele>
        <time>2015-10-10T10:31:22Z</time>
      </trkpt>
      <trkpt lat="42.65594" lon="1.96428">
        <ele>1401.74</ele>
        <time>2015-10-10T10:31:46Z</time>
      </trkpt>
      <trkpt lat="42.65593" lon="1.96431">
        <ele>1400.3</ele>
        <time>2015-10-10T10:32:33Z</time>
      </trkpt>
      <trkpt lat="42.65594" lon="1.96434">
        <ele>1401.74</ele>
        <time>2015-10-10T10:32:55Z</time>
      </trkpt>
      <trkpt lat="42.65593" lon="1.96432">
        <ele>1402.22</ele>
        <time>2015-10-10T10:33:13Z</time>
      </trkpt>
      <trkpt lat="42.65595" lon="1.96431">
        <ele>1401.26</ele>
        <time>2015-10-10T10:33:37Z</time>
      </trkpt>
      <trkpt lat="42.65592" lon="1.96434">
        <ele>1402.7</ele>
        <time>2015-10-10T10:33:57Z</time>
      </trkpt>
      <trkpt lat="42.65592" lon="1.96434">
        <ele>1401.26</ele>
        <time>2015-10-10T10:34:42Z</time>
      </trkpt>
      <trkpt lat="42.65592" lon="1.96434">
        <ele>1401.74</ele>
        <time>2015-10-10T10:35:11Z</time>
      </trkpt>
      <trkpt lat="42.65594" lon="1.96434">
        <ele>1401.74</ele>
        <time>2015-10-10T10:35:44Z</time>
      </trkpt>
      <trkpt lat="42.65591" lon="1.96431">
        <ele>1402.22</ele>
        <time>2015-10-10T10:36:12Z</time>
      </trkpt>
      <trkpt lat="42.65592" lon="1.96433">
        <ele>1400.78</ele>
        <time>2015-10-10T10:36:40Z</time>
      </trkpt>
      <trkpt lat="42.65592" lon="1.96433">
        <ele>1400.3</ele>
        <time>2015-10-10T10:36:57Z</time>
      </trkpt>
      <trkpt lat="42.65594" lon="1.96436">
        <ele>1400.78</ele>
        <time>2015-10-10T10:37:28Z</time>
      </trkpt>
      <trkpt lat="42.65594" lon="1.9643">
        <ele>1400.78</ele>
        <time>2015-10-10T10:37:38Z</time>
      </trkpt>
      <trkpt lat="42.6559" lon="1.96435">
        <ele>1401.74</ele>
        <time>2015-10-10T10:37:57Z</time>
      </trkpt>
      <trkpt lat="42.65591" lon="1.96435">
        <ele>1400.78</ele>
        <time>2015-10-10T10:38:45Z</time>
      </trkpt>
      <trkpt lat="42.65592" lon="1.96435">
        <ele>1399.82</ele>
        <time>2015-10-10T10:39:11Z</time>
      </trkpt>
      <trkpt lat="42.65592" lon="1.96433">
        <ele>1400.78</ele>
        <time>2015-10-10T10:39:31Z</time>
      </trkpt>
      <trkpt lat="42.6559" lon="1.96431">
        <ele>1400.3</ele>
        <time>2015-10-10T10:40:07Z</time>
      </trkpt>
      <trkpt lat="42.6559" lon="1.9643">
        <ele>1399.82</ele>
        <time>2015-10-10T10:40:44Z</time>
      </trkpt>
      <trkpt lat="42.65592" lon="1.96435">
        <ele>1399.82</ele>
        <time>2015-10-10T10:41:04Z</time>
      </trkpt>
      <trkpt lat="42.65594" lon="1.96434">
        <ele>1399.82</ele>
        <time>2015-10-10T10:41:36Z</time>
      </trkpt>
      <trkpt lat="42.65596" lon="1.96434">
        <ele>1400.3</ele>
        <time>2015-10-10T10:41:49Z</time>
      </trkpt>
      <trkpt lat="42.65595" lon="1.96434">
        <ele>1399.82</ele>
        <time>2015-10-10T10:41:56Z</time>
      </trkpt>
      <trkpt lat="42.65595" lon="1.96434">
        <ele>1399.34</ele>
        <time>2015-10-10T10:42:47Z</time>
      </trkpt>
      <trkpt lat="42.65594" lon="1.96433">
        <ele>1400.78</ele>
        <time>2015-10-10T10:42:51Z</time>
      </trkpt>
      <trkpt lat="42.65595" lon="1.96434">
        <ele>1399.82</ele>
        <time>2015-10-10T10:43:03Z</time>
      </trkpt>
      <trkpt lat="42.65595" lon="1.96436">
        <ele>1400.3</ele>
        <time>2015-10-10T10:43:08Z</time>
      </trkpt>
      <trkpt lat="42.65595" lon="1.96436">
        <ele>1400.78</ele>
        <time>2015-10-10T10:43:19Z</time>
      </trkpt>
      <trkpt lat="42.65594" lon="1.96436">
        <ele>1400.3</ele>
        <time>2015-10-10T10:43:36Z</time>
      </trkpt>
      <trkpt lat="42.65594" lon="1.96435">
        <ele>1399.82</ele>
        <time>2015-10-10T10:43:54Z</time>
      </trkpt>
      <trkpt lat="42.65593" lon="1.96431">
        <ele>1400.3</ele>
        <time>2015-10-10T10:44:31Z</time>
      </trkpt>
      <trkpt lat="42.65592" lon="1.9643">
        <ele>1401.26</ele>
        <time>2015-10-10T10:44:45Z</time>
      </trkpt>
      <trkpt lat="42.65592" lon="1.9643">
        <ele>1399.34</ele>
        <time>2015-10-10T10:45:07Z</time>
      </trkpt>
      <trkpt lat="42.65591" lon="1.96432">
        <ele>1400.3</ele>
        <time>2015-10-10T10:45:39Z</time>
      </trkpt>
      <trkpt lat="42.65591" lon="1.96434">
        <ele>1400.3</ele>
        <time>2015-10-10T10:46:09Z</time>
      </trkpt>
      <trkpt lat="42.65592" lon="1.96432">
        <ele>1399.82</ele>
        <time>2015-10-10T10:46:36Z</time>
      </trkpt>
      <trkpt lat="42.65591" lon="1.96432">
        <ele>1398.86</ele>
        <time>2015-10-10T10:47:19Z</time>
      </trkpt>
      <trkpt lat="42.65596" lon="1.96434">
        <ele>1400.3</ele>
        <time>2015-10-10T10:47:40Z</time>
      </trkpt>
      <trkpt lat="42.65596" lon="1.96434">
        <ele>1400.78</ele>
        <time>2015-10-10T10:47:51Z</time>
      </trkpt>
      <trkpt lat="42.65595" lon="1.96433">
        <ele>1400.3</ele>
        <time>2015-10-10T10:48:09Z</time>
      </trkpt>
      <trkpt lat="42.65595" lon="1.96431">
        <ele>1399.34</ele>
        <time>2015-10-10T10:48:59Z</time>
      </trkpt>
      <trkpt lat="42.65593" lon="1.9643">
        <ele>1399.82</ele>
        <time>2015-10-10T10:49:10Z</time>
      </trkpt>
      <trkpt lat="42.65594" lon="1.96432">
        <ele>1400.3</ele>
        <time>2015-10-10T10:49:26Z</time>
      </trkpt>
      <trkpt lat="42.65593" lon="1.96429">
        <ele>1400.78</ele>
        <time>2015-10-10T10:50:12Z</time>
      </trkpt>
      <trkpt lat="42.65592" lon="1.9643">
        <ele>1400.3</ele>
        <time>2015-10-10T10:50:38Z</time>
      </trkpt>
      <trkpt lat="42.65591" lon="1.9643">
        <ele>1400.78</ele>
        <time>2015-10-10T10:51:05Z</time>
      </trkpt>
      <trkpt lat="42.65592" lon="1.96432">
        <ele>1399.82</ele>
        <time>2015-10-10T10:51:40Z</time>
      </trkpt>
      <trkpt lat="42.65591" lon="1.9643">
        <ele>1400.78</ele>
        <time>2015-10-10T10:52:00Z</time>
      </trkpt>
      <trkpt lat="42.65591" lon="1.96433">
        <ele>1399.82</ele>
        <time>2015-10-10T10:52:24Z</time>
      </trkpt>
      <trkpt lat="42.6559" lon="1.96434">
        <ele>1399.34</ele>
        <time>2015-10-10T10:52:43Z</time>
      </trkpt>
      <trkpt lat="42.65592" lon="1.96434">
        <ele>1401.26</ele>
        <time>2015-10-10T10:53:12Z</time>
      </trkpt>
      <trkpt lat="42.65592" lon="1.96434">
        <ele>1399.82</ele>
        <time>2015-10-10T10:53:14Z</time>
      </trkpt>
      <trkpt lat="42.65591" lon="1.96433">
        <ele>1400.3</ele>
        <time>2015-10-10T10:53:44Z</time>
      </trkpt>
      <trkpt lat="42.65591" lon="1.96433">
        <ele>1399.82</ele>
        <time>2015-10-10T10:53:58Z</time>
      </trkpt>
      <trkpt lat="42.65592" lon="1.96432">
        <ele>1399.34</ele>
        <time>2015-10-10T10:54:36Z</time>
      </trkpt>
      <trkpt lat="42.65594" lon="1.96427">
        <ele>1400.3</ele>
        <time>2015-10-10T10:55:13Z</time>
      </trkpt>
      <trkpt lat="42.65592" lon="1.9643">
        <ele>1399.82</ele>
        <time>2015-10-10T10:55:35Z</time>
      </trkpt>
      <trkpt lat="42.65591" lon="1.96432">
        <ele>1398.86</ele>
        <time>2015-10-10T10:56:06Z</time>
      </trkpt>
      <trkpt lat="42.65591" lon="1.96432">
        <ele>1398.37</ele>
        <time>2015-10-10T10:56:20Z</time>
      </trkpt>
      <trkpt lat="42.65592" lon="1.96432">
        <ele>1399.82</ele>
        <time>2015-10-10T10:56:44Z</time>
      </trkpt>
      <trkpt lat="42.65593" lon="1.96432">
        <ele>1398.86</ele>
        <time>2015-10-10T10:56:57Z</time>
      </trkpt>
      <trkpt lat="42.65593" lon="1.96434">
        <ele>1399.34</ele>
        <time>2015-10-10T10:57:17Z</time>
      </trkpt>
      <trkpt lat="42.65592" lon="1.96431">
        <ele>1398.86</ele>
        <time>2015-10-10T10:57:36Z</time>
      </trkpt>
      <trkpt lat="42.65593" lon="1.9643">
        <ele>1398.37</ele>
        <time>2015-10-10T10:57:54Z</time>
      </trkpt>
      <trkpt lat="42.65592" lon="1.96429">
        <ele>1398.37</ele>
        <time>2015-10-10T10:59:03Z</time>
      </trkpt>
      <trkpt lat="42.65594" lon="1.96427">
        <ele>1398.86</ele>
        <time>2015-10-10T10:59:20Z</time>
      </trkpt>
      <trkpt lat="42.65592" lon="1.9643">
        <ele>1398.37</ele>
        <time>2015-10-10T11:00:06Z</time>
      </trkpt>
      <trkpt lat="42.65592" lon="1.96429">
        <ele>1399.34</ele>
        <time>2015-10-10T11:00:11Z</time>
      </trkpt>
      <trkpt lat="42.65593" lon="1.96429">
        <ele>1397.89</ele>
        <time>2015-10-10T11:00:17Z</time>
      </trkpt>
      <trkpt lat="42.65593" lon="1.96429">
        <ele>1399.82</ele>
        <time>2015-10-10T11:00:19Z</time>
      </trkpt>
      <trkpt lat="42.65592" lon="1.9643">
        <ele>1398.37</ele>
        <time>2015-10-10T11:00:44Z</time>
      </trkpt>
      <trkpt lat="42.65591" lon="1.9643">
        <ele>1399.82</ele>
        <time>2015-10-10T11:01:01Z</time>
      </trkpt>
      <trkpt lat="42.6559" lon="1.96431">
        <ele>1398.37</ele>
        <time>2015-10-10T11:01:12Z</time>
      </trkpt>
      <trkpt lat="42.65578" lon="1.9643">
        <ele>1398.86</ele>
        <time>2015-10-10T11:01:22Z</time>
      </trkpt>
      <trkpt lat="42.65564" lon="1.96423">
        <ele>1398.86</ele>
        <time>2015-10-10T11:01:38Z</time>
      </trkpt>
      <trkpt lat="42.65548" lon="1.96416">
        <ele>1398.86</ele>
        <time>2015-10-10T11:01:54Z</time>
      </trkpt>
      <trkpt lat="42.65544" lon="1.96414">
        <ele>1399.82</ele>
        <time>2015-10-10T11:01:59Z</time>
      </trkpt>
      <trkpt lat="42.65525" lon="1.96408">
        <ele>1400.78</ele>
        <time>2015-10-10T11:02:17Z</time>
      </trkpt>
      <trkpt lat="42.65508" lon="1.96402">
        <ele>1401.26</ele>
        <time>2015-10-10T11:02:33Z</time>
      </trkpt>
      <trkpt lat="42.6549" lon="1.96395">
        <ele>1402.22</ele>
        <time>2015-10-10T11:02:52Z</time>
      </trkpt>
      <trkpt lat="42.65475" lon="1.96387">
        <ele>1403.66</ele>
        <time>2015-10-10T11:03:05Z</time>
      </trkpt>
      <trkpt lat="42.65456" lon="1.96371">
        <ele>1406.55</ele>
        <time>2015-10-10T11:03:26Z</time>
      </trkpt>
      <trkpt lat="42.65438" lon="1.96355">
        <ele>1407.03</ele>
        <time>2015-10-10T11:03:42Z</time>
      </trkpt>
      <trkpt lat="42.65424" lon="1.96347">
        <ele>1409.43</ele>
        <time>2015-10-10T11:03:56Z</time>
      </trkpt>
      <trkpt lat="42.65409" lon="1.9634">
        <ele>1409.91</ele>
        <time>2015-10-10T11:04:11Z</time>
      </trkpt>
      <trkpt lat="42.65387" lon="1.96325">
        <ele>1409.91</ele>
        <time>2015-10-10T11:04:31Z</time>
      </trkpt>
      <trkpt lat="42.65383" lon="1.96324">
        <ele>1409.91</ele>
        <time>2015-10-10T11:04:36Z</time>
      </trkpt>
      <trkpt lat="42.65378" lon="1.96319">
        <ele>1410.39</ele>
        <time>2015-10-10T11:04:42Z</time>
      </trkpt>
      <trkpt lat="42.65361" lon="1.96312">
        <ele>1411.35</ele>
        <time>2015-10-10T11:04:57Z</time>
      </trkpt>
      <trkpt lat="42.65341" lon="1.963">
        <ele>1411.35</ele>
        <time>2015-10-10T11:05:15Z</time>
      </trkpt>
      <trkpt lat="42.6534" lon="1.96299">
        <ele>1412.31</ele>
        <time>2015-10-10T11:05:16Z</time>
      </trkpt>
      <trkpt lat="42.65324" lon="1.96294">
        <ele>1412.31</ele>
        <time>2015-10-10T11:05:32Z</time>
      </trkpt>
      <trkpt lat="42.65318" lon="1.96295">
        <ele>1413.76</ele>
        <time>2015-10-10T11:05:46Z</time>
      </trkpt>
      <trkpt lat="42.65317" lon="1.96295">
        <ele>1413.76</ele>
        <time>2015-10-10T11:06:00Z</time>
      </trkpt>
      <trkpt lat="42.65316" lon="1.96294">
        <ele>1414.24</ele>
        <time>2015-10-10T11:06:15Z</time>
      </trkpt>
      <trkpt lat="42.65306" lon="1.9629">
        <ele>1414.24</ele>
        <time>2015-10-10T11:06:29Z</time>
      </trkpt>
      <trkpt lat="42.65303" lon="1.96289">
        <ele>1416.16</ele>
        <time>2015-10-10T11:06:32Z</time>
      </trkpt>
      <trkpt lat="42.65289" lon="1.96285">
        <ele>1417.6</ele>
        <time>2015-10-10T11:06:47Z</time>
      </trkpt>
      <trkpt lat="42.65281" lon="1.96281">
        <ele>1420.49</ele>
        <time>2015-10-10T11:06:56Z</time>
      </trkpt>
      <trkpt lat="42.6527" lon="1.96274">
        <ele>1420.49</ele>
        <time>2015-10-10T11:07:10Z</time>
      </trkpt>
      <trkpt lat="42.65257" lon="1.96268">
        <ele>1423.37</ele>
        <time>2015-10-10T11:07:28Z</time>
      </trkpt>
      <trkpt lat="42.65254" lon="1.96266">
        <ele>1422.89</ele>
        <time>2015-10-10T11:07:33Z</time>
      </trkpt>
      <trkpt lat="42.65244" lon="1.96254">
        <ele>1424.81</ele>
        <time>2015-10-10T11:07:48Z</time>
      </trkpt>
      <trkpt lat="42.65243" lon="1.96253">
        <ele>1426.73</ele>
        <time>2015-10-10T11:07:50Z</time>
      </trkpt>
      <trkpt lat="42.65241" lon="1.96252">
        <ele>1426.73</ele>
        <time>2015-10-10T11:07:53Z</time>
      </trkpt>
      <trkpt lat="42.65239" lon="1.96245">
        <ele>1427.21</ele>
        <time>2015-10-10T11:08:00Z</time>
      </trkpt>
      <trkpt lat="42.65228" lon="1.96234">
        <ele>1429.14</ele>
        <time>2015-10-10T11:08:14Z</time>
      </trkpt>
      <trkpt lat="42.65221" lon="1.9623">
        <ele>1430.58</ele>
        <time>2015-10-10T11:08:22Z</time>
      </trkpt>
      <trkpt lat="42.65208" lon="1.96228">
        <ele>1432.02</ele>
        <time>2015-10-10T11:08:36Z</time>
      </trkpt>
      <trkpt lat="42.65194" lon="1.96227">
        <ele>1432.98</ele>
        <time>2015-10-10T11:08:50Z</time>
      </trkpt>
      <trkpt lat="42.65193" lon="1.96227">
        <ele>1433.46</ele>
        <time>2015-10-10T11:08:51Z</time>
      </trkpt>
      <trkpt lat="42.65181" lon="1.96223">
        <ele>1434.42</ele>
        <time>2015-10-10T11:09:05Z</time>
      </trkpt>
      <trkpt lat="42.6517" lon="1.96219">
        <ele>1435.39</ele>
        <time>2015-10-10T11:09:21Z</time>
      </trkpt>
      <trkpt lat="42.65158" lon="1.96215">
        <ele>1435.39</ele>
        <time>2015-10-10T11:09:33Z</time>
      </trkpt>
      <trkpt lat="42.6514" lon="1.96211">
        <ele>1436.35</ele>
        <time>2015-10-10T11:09:50Z</time>
      </trkpt>
      <trkpt lat="42.65119" lon="1.96213">
        <ele>1437.79</ele>
        <time>2015-10-10T11:10:06Z</time>
      </trkpt>
      <trkpt lat="42.65106" lon="1.96214">
        <ele>1438.27</ele>
        <time>2015-10-10T11:10:20Z</time>
      </trkpt>
      <trkpt lat="42.651" lon="1.9622">
        <ele>1439.23</ele>
        <time>2015-10-10T11:10:37Z</time>
      </trkpt>
      <trkpt lat="42.65098" lon="1.96222">
        <ele>1439.23</ele>
        <time>2015-10-10T11:10:59Z</time>
      </trkpt>
      <trkpt lat="42.65096" lon="1.96224">
        <ele>1440.19</ele>
        <time>2015-10-10T11:11:25Z</time>
      </trkpt>
      <trkpt lat="42.65096" lon="1.96224">
        <ele>1439.71</ele>
        <time>2015-10-10T11:11:58Z</time>
      </trkpt>
      <trkpt lat="42.65095" lon="1.96224">
        <ele>1439.71</ele>
        <time>2015-10-10T11:12:02Z</time>
      </trkpt>
      <trkpt lat="42.65076" lon="1.96225">
        <ele>1440.19</ele>
        <time>2015-10-10T11:12:19Z</time>
      </trkpt>
      <trkpt lat="42.65052" lon="1.96223">
        <ele>1441.15</ele>
        <time>2015-10-10T11:12:36Z</time>
      </trkpt>
      <trkpt lat="42.65046" lon="1.96227">
        <ele>1441.15</ele>
        <time>2015-10-10T11:12:53Z</time>
      </trkpt>
      <trkpt lat="42.65044" lon="1.96228">
        <ele>1441.63</ele>
        <time>2015-10-10T11:13:09Z</time>
      </trkpt>
      <trkpt lat="42.65023" lon="1.96224">
        <ele>1441.63</ele>
        <time>2015-10-10T11:13:27Z</time>
      </trkpt>
      <trkpt lat="42.65022" lon="1.96224">
        <ele>1441.63</ele>
        <time>2015-10-10T11:13:28Z</time>
      </trkpt>
      <trkpt lat="42.65004" lon="1.96218">
        <ele>1439.71</ele>
        <time>2015-10-10T11:13:42Z</time>
      </trkpt>
      <trkpt lat="42.64987" lon="1.96208">
        <ele>1438.75</ele>
        <time>2015-10-10T11:13:56Z</time>
      </trkpt>
      <trkpt lat="42.64977" lon="1.96205">
        <ele>1437.79</ele>
        <time>2015-10-10T11:14:04Z</time>
      </trkpt>
      <trkpt lat="42.64955" lon="1.96197">
        <ele>1437.31</ele>
        <time>2015-10-10T11:14:20Z</time>
      </trkpt>
      <trkpt lat="42.64941" lon="1.9619">
        <ele>1435.39</ele>
        <time>2015-10-10T11:14:34Z</time>
      </trkpt>
      <trkpt lat="42.64922" lon="1.96184">
        <ele>1435.39</ele>
        <time>2015-10-10T11:14:49Z</time>
      </trkpt>
      <trkpt lat="42.64919" lon="1.96183">
        <ele>1434.42</ele>
        <time>2015-10-10T11:14:51Z</time>
      </trkpt>
      <trkpt lat="42.64903" lon="1.96177">
        <ele>1434.42</ele>
        <time>2015-10-10T11:15:04Z</time>
      </trkpt>
      <trkpt lat="42.64884" lon="1.96167">
        <ele>1433.94</ele>
        <time>2015-10-10T11:15:20Z</time>
      </trkpt>
      <trkpt lat="42.64866" lon="1.96149">
        <ele>1433.94</ele>
        <time>2015-10-10T11:15:35Z</time>
      </trkpt>
      <trkpt lat="42.64852" lon="1.9614">
        <ele>1432.98</ele>
        <time>2015-10-10T11:15:49Z</time>
      </trkpt>
      <trkpt lat="42.64847" lon="1.96142">
        <ele>1433.46</ele>
        <time>2015-10-10T11:16:03Z</time>
      </trkpt>
      <trkpt lat="42.6483" lon="1.96133">
        <ele>1432.98</ele>
        <time>2015-10-10T11:16:22Z</time>
      </trkpt>
      <trkpt lat="42.64827" lon="1.96132">
        <ele>1434.42</ele>
        <time>2015-10-10T11:16:24Z</time>
      </trkpt>
      <trkpt lat="42.64821" lon="1.96129">
        <ele>1432.98</ele>
        <time>2015-10-10T11:16:29Z</time>
      </trkpt>
      <trkpt lat="42.64813" lon="1.96125">
        <ele>1433.46</ele>
        <time>2015-10-10T11:16:43Z</time>
      </trkpt>
      <trkpt lat="42.64809" lon="1.96122">
        <ele>1434.42</ele>
        <time>2015-10-10T11:17:04Z</time>
      </trkpt>
      <trkpt lat="42.64801" lon="1.96121">
        <ele>1434.91</ele>
        <time>2015-10-10T11:17:16Z</time>
      </trkpt>
      <trkpt lat="42.64793" lon="1.96117">
        <ele>1433.94</ele>
        <time>2015-10-10T11:17:23Z</time>
      </trkpt>
      <trkpt lat="42.64787" lon="1.96115">
        <ele>1434.42</ele>
        <time>2015-10-10T11:17:28Z</time>
      </trkpt>
      <trkpt lat="42.6477" lon="1.96118">
        <ele>1435.39</ele>
        <time>2015-10-10T11:17:42Z</time>
      </trkpt>
      <trkpt lat="42.64761" lon="1.96122">
        <ele>1434.91</ele>
        <time>2015-10-10T11:17:50Z</time>
      </trkpt>
      <trkpt lat="42.64751" lon="1.96124">
        <ele>1434.42</ele>
        <time>2015-10-10T11:17:58Z</time>
      </trkpt>
      <trkpt lat="42.6474" lon="1.96127">
        <ele>1434.91</ele>
        <time>2015-10-10T11:18:07Z</time>
      </trkpt>
      <trkpt lat="42.6472" lon="1.96126">
        <ele>1435.87</ele>
        <time>2015-10-10T11:18:23Z</time>
      </trkpt>
      <trkpt lat="42.64713" lon="1.96127">
        <ele>1435.39</ele>
        <time>2015-10-10T11:18:28Z</time>
      </trkpt>
      <trkpt lat="42.64695" lon="1.96125">
        <ele>1436.35</ele>
        <time>2015-10-10T11:18:43Z</time>
      </trkpt>
      <trkpt lat="42.6468" lon="1.9611">
        <ele>1437.31</ele>
        <time>2015-10-10T11:19:00Z</time>
      </trkpt>
      <trkpt lat="42.64675" lon="1.96108">
        <ele>1436.83</ele>
        <time>2015-10-10T11:19:06Z</time>
      </trkpt>
      <trkpt lat="42.64671" lon="1.96106">
        <ele>1437.79</ele>
        <time>2015-10-10T11:19:10Z</time>
      </trkpt>
      <trkpt lat="42.64659" lon="1.96098">
        <ele>1438.27</ele>
        <time>2015-10-10T11:19:21Z</time>
      </trkpt>
      <trkpt lat="42.64657" lon="1.96096">
        <ele>1438.75</ele>
        <time>2015-10-10T11:19:23Z</time>
      </trkpt>
      <trkpt lat="42.64653" lon="1.96093">
        <ele>1438.75</ele>
        <time>2015-10-10T11:19:27Z</time>
      </trkpt>
      <trkpt lat="42.64645" lon="1.9609">
        <ele>1438.75</ele>
        <time>2015-10-10T11:19:36Z</time>
      </trkpt>
      <trkpt lat="42.64639" lon="1.96091">
        <ele>1439.23</ele>
        <time>2015-10-10T11:19:41Z</time>
      </trkpt>
      <trkpt lat="42.64626" lon="1.96081">
        <ele>1439.71</ele>
        <time>2015-10-10T11:19:53Z</time>
      </trkpt>
      <trkpt lat="42.64622" lon="1.96076">
        <ele>1441.15</ele>
        <time>2015-10-10T11:19:57Z</time>
      </trkpt>
      <trkpt lat="42.64619" lon="1.96074">
        <ele>1440.67</ele>
        <time>2015-10-10T11:20:00Z</time>
      </trkpt>
      <trkpt lat="42.64614" lon="1.96068">
        <ele>1442.11</ele>
        <time>2015-10-10T11:20:07Z</time>
      </trkpt>
      <trkpt lat="42.6461" lon="1.96065">
        <ele>1441.15</ele>
        <time>2015-10-10T11:20:11Z</time>
      </trkpt>
      <trkpt lat="42.64609" lon="1.96063">
        <ele>1442.11</ele>
        <time>2015-10-10T11:20:13Z</time>
      </trkpt>
      <trkpt lat="42.64595" lon="1.96051">
        <ele>1443.56</ele>
        <time>2015-10-10T11:20:28Z</time>
      </trkpt>
      <trkpt lat="42.64591" lon="1.96049">
        <ele>1442.6</ele>
        <time>2015-10-10T11:20:32Z</time>
      </trkpt>
      <trkpt lat="42.64585" lon="1.96046">
        <ele>1443.56</ele>
        <time>2015-10-10T11:20:37Z</time>
      </trkpt>
      <trkpt lat="42.64574" lon="1.96034">
        <ele>1443.56</ele>
        <time>2015-10-10T11:20:50Z</time>
      </trkpt>
      <trkpt lat="42.64572" lon="1.96032">
        <ele>1444.04</ele>
        <time>2015-10-10T11:20:52Z</time>
      </trkpt>
      <trkpt lat="42.64568" lon="1.96028">
        <ele>1443.56</ele>
        <time>2015-10-10T11:20:56Z</time>
      </trkpt>
      <trkpt lat="42.6456" lon="1.96025">
        <ele>1444.52</ele>
        <time>2015-10-10T11:21:03Z</time>
      </trkpt>
      <trkpt lat="42.64548" lon="1.96019">
        <ele>1444.52</ele>
        <time>2015-10-10T11:21:13Z</time>
      </trkpt>
      <trkpt lat="42.64543" lon="1.96016">
        <ele>1446.44</ele>
        <time>2015-10-10T11:21:21Z</time>
      </trkpt>
      <trkpt lat="42.64539" lon="1.96015">
        <ele>1445.48</ele>
        <time>2015-10-10T11:21:25Z</time>
      </trkpt>
      <trkpt lat="42.64535" lon="1.96014">
        <ele>1447.4</ele>
        <time>2015-10-10T11:21:29Z</time>
      </trkpt>
      <trkpt lat="42.64529" lon="1.96012">
        <ele>1446.44</ele>
        <time>2015-10-10T11:21:43Z</time>
      </trkpt>
      <trkpt lat="42.64527" lon="1.96007">
        <ele>1447.4</ele>
        <time>2015-10-10T11:21:53Z</time>
      </trkpt>
      <trkpt lat="42.64522" lon="1.96003">
        <ele>1446.44</ele>
        <time>2015-10-10T11:21:58Z</time>
      </trkpt>
      <trkpt lat="42.64514" lon="1.95998">
        <ele>1445.96</ele>
        <time>2015-10-10T11:22:08Z</time>
      </trkpt>
      <trkpt lat="42.645" lon="1.95987">
        <ele>1445</ele>
        <time>2015-10-10T11:22:22Z</time>
      </trkpt>
      <trkpt lat="42.64491" lon="1.95983">
        <ele>1446.44</ele>
        <time>2015-10-10T11:22:30Z</time>
      </trkpt>
      <trkpt lat="42.64481" lon="1.95979">
        <ele>1446.44</ele>
        <time>2015-10-10T11:22:39Z</time>
      </trkpt>
      <trkpt lat="42.64474" lon="1.95977">
        <ele>1446.44</ele>
        <time>2015-10-10T11:22:44Z</time>
      </trkpt>
      <trkpt lat="42.64471" lon="1.95976">
        <ele>1447.4</ele>
        <time>2015-10-10T11:22:46Z</time>
      </trkpt>
      <trkpt lat="42.64466" lon="1.95974">
        <ele>1446.92</ele>
        <time>2015-10-10T11:22:50Z</time>
      </trkpt>
      <trkpt lat="42.64462" lon="1.95972">
        <ele>1447.4</ele>
        <time>2015-10-10T11:22:54Z</time>
      </trkpt>
      <trkpt lat="42.64459" lon="1.95969">
        <ele>1447.88</ele>
        <time>2015-10-10T11:22:57Z</time>
      </trkpt>
      <trkpt lat="42.64456" lon="1.95963">
        <ele>1447.88</ele>
        <time>2015-10-10T11:23:02Z</time>
      </trkpt>
      <trkpt lat="42.64452" lon="1.95955">
        <ele>1447.88</ele>
        <time>2015-10-10T11:23:07Z</time>
      </trkpt>
      <trkpt lat="42.64442" lon="1.95935">
        <ele>1448.84</ele>
        <time>2015-10-10T11:23:19Z</time>
      </trkpt>
      <trkpt lat="42.64426" lon="1.95925">
        <ele>1449.81</ele>
        <time>2015-10-10T11:23:37Z</time>
      </trkpt>
      <trkpt lat="42.64419" lon="1.95924">
        <ele>1448.84</ele>
        <time>2015-10-10T11:23:51Z</time>
      </trkpt>
      <trkpt lat="42.64408" lon="1.95943">
        <ele>1448.84</ele>
        <time>2015-10-10T11:24:08Z</time>
      </trkpt>
      <trkpt lat="42.644" lon="1.95947">
        <ele>1449.81</ele>
        <time>2015-10-10T11:24:28Z</time>
      </trkpt>
      <trkpt lat="42.64403" lon="1.95951">
        <ele>1450.29</ele>
        <time>2015-10-10T11:24:42Z</time>
      </trkpt>
      <trkpt lat="42.64399" lon="1.95952">
        <ele>1449.32</ele>
        <time>2015-10-10T11:24:54Z</time>
      </trkpt>
      <trkpt lat="42.64397" lon="1.95953">
        <ele>1448.36</ele>
        <time>2015-10-10T11:25:09Z</time>
      </trkpt>
      <trkpt lat="42.64396" lon="1.95958">
        <ele>1449.32</ele>
        <time>2015-10-10T11:25:18Z</time>
      </trkpt>
      <trkpt lat="42.64395" lon="1.95958">
        <ele>1449.81</ele>
        <time>2015-10-10T11:25:30Z</time>
      </trkpt>
      <trkpt lat="42.64389" lon="1.95963">
        <ele>1449.81</ele>
        <time>2015-10-10T11:25:46Z</time>
      </trkpt>
      <trkpt lat="42.64377" lon="1.95963">
        <ele>1451.73</ele>
        <time>2015-10-10T11:26:08Z</time>
      </trkpt>
      <trkpt lat="42.64371" lon="1.95952">
        <ele>1452.21</ele>
        <time>2015-10-10T11:26:20Z</time>
      </trkpt>
      <trkpt lat="42.64356" lon="1.95944">
        <ele>1454.13</ele>
        <time>2015-10-10T11:26:41Z</time>
      </trkpt>
      <trkpt lat="42.64353" lon="1.95942">
        <ele>1454.13</ele>
        <time>2015-10-10T11:27:01Z</time>
      </trkpt>
      <trkpt lat="42.64344" lon="1.95941">
        <ele>1454.13</ele>
        <time>2015-10-10T11:27:15Z</time>
      </trkpt>
      <trkpt lat="42.64344" lon="1.95941">
        <ele>1454.13</ele>
        <time>2015-10-10T11:27:16Z</time>
      </trkpt>
      <trkpt lat="42.64339" lon="1.95943">
        <ele>1456.05</ele>
        <time>2015-10-10T11:27:21Z</time>
      </trkpt>
      <trkpt lat="42.64327" lon="1.95933">
        <ele>1456.53</ele>
        <time>2015-10-10T11:27:36Z</time>
      </trkpt>
      <trkpt lat="42.64321" lon="1.95928">
        <ele>1455.09</ele>
        <time>2015-10-10T11:27:42Z</time>
      </trkpt>
      <trkpt lat="42.64306" lon="1.95915">
        <ele>1457.02</ele>
        <time>2015-10-10T11:28:01Z</time>
      </trkpt>
      <trkpt lat="42.64293" lon="1.95904">
        <ele>1456.53</ele>
        <time>2015-10-10T11:28:16Z</time>
      </trkpt>
      <trkpt lat="42.64283" lon="1.959">
        <ele>1456.53</ele>
        <time>2015-10-10T11:28:29Z</time>
      </trkpt>
      <trkpt lat="42.64276" lon="1.95907">
        <ele>1457.98</ele>
        <time>2015-10-10T11:28:48Z</time>
      </trkpt>
      <trkpt lat="42.64267" lon="1.95898">
        <ele>1457.98</ele>
        <time>2015-10-10T11:29:06Z</time>
      </trkpt>
      <trkpt lat="42.64265" lon="1.95897">
        <ele>1457.02</ele>
        <time>2015-10-10T11:29:09Z</time>
      </trkpt>
      <trkpt lat="42.64259" lon="1.95888">
        <ele>1458.94</ele>
        <time>2015-10-10T11:29:25Z</time>
      </trkpt>
      <trkpt lat="42.64262" lon="1.95885">
        <ele>1457.98</ele>
        <time>2015-10-10T11:29:38Z</time>
      </trkpt>
      <trkpt lat="42.64258" lon="1.95874">
        <ele>1458.94</ele>
        <time>2015-10-10T11:29:53Z</time>
      </trkpt>
      <trkpt lat="42.64249" lon="1.95861">
        <ele>1459.9</ele>
        <time>2015-10-10T11:30:10Z</time>
      </trkpt>
      <trkpt lat="42.64242" lon="1.9585">
        <ele>1459.9</ele>
        <time>2015-10-10T11:30:24Z</time>
      </trkpt>
      <trkpt lat="42.64234" lon="1.95829">
        <ele>1460.86</ele>
        <time>2015-10-10T11:30:43Z</time>
      </trkpt>
      <trkpt lat="42.64233" lon="1.95824">
        <ele>1461.82</ele>
        <time>2015-10-10T11:30:47Z</time>
      </trkpt>
      <trkpt lat="42.64233" lon="1.9581">
        <ele>1462.3</ele>
        <time>2015-10-10T11:31:01Z</time>
      </trkpt>
      <trkpt lat="42.64226" lon="1.95789">
        <ele>1463.26</ele>
        <time>2015-10-10T11:31:17Z</time>
      </trkpt>
      <trkpt lat="42.64219" lon="1.95775">
        <ele>1462.78</ele>
        <time>2015-10-10T11:31:36Z</time>
      </trkpt>
      <trkpt lat="42.64214" lon="1.9576">
        <ele>1465.19</ele>
        <time>2015-10-10T11:31:50Z</time>
      </trkpt>
      <trkpt lat="42.64212" lon="1.95753">
        <ele>1464.23</ele>
        <time>2015-10-10T11:31:56Z</time>
      </trkpt>
      <trkpt lat="42.64211" lon="1.95746">
        <ele>1464.71</ele>
        <time>2015-10-10T11:32:01Z</time>
      </trkpt>
      <trkpt lat="42.64211" lon="1.95743">
        <ele>1465.19</ele>
        <time>2015-10-10T11:32:03Z</time>
      </trkpt>
      <trkpt lat="42.64204" lon="1.95728">
        <ele>1464.71</ele>
        <time>2015-10-10T11:32:16Z</time>
      </trkpt>
      <trkpt lat="42.64201" lon="1.9572">
        <ele>1465.67</ele>
        <time>2015-10-10T11:32:23Z</time>
      </trkpt>
      <trkpt lat="42.64196" lon="1.9571">
        <ele>1465.67</ele>
        <time>2015-10-10T11:32:31Z</time>
      </trkpt>
      <trkpt lat="42.64198" lon="1.957">
        <ele>1468.55</ele>
        <time>2015-10-10T11:32:42Z</time>
      </trkpt>
      <trkpt lat="42.642" lon="1.95695">
        <ele>1467.59</ele>
        <time>2015-10-10T11:32:47Z</time>
      </trkpt>
      <trkpt lat="42.64199" lon="1.95681">
        <ele>1467.59</ele>
        <time>2015-10-10T11:32:57Z</time>
      </trkpt>
      <trkpt lat="42.64193" lon="1.95663">
        <ele>1469.99</ele>
        <time>2015-10-10T11:33:13Z</time>
      </trkpt>
      <trkpt lat="42.64187" lon="1.95653">
        <ele>1472.88</ele>
        <time>2015-10-10T11:33:28Z</time>
      </trkpt>
      <trkpt lat="42.64179" lon="1.95647">
        <ele>1472.88</ele>
        <time>2015-10-10T11:33:49Z</time>
      </trkpt>
      <trkpt lat="42.64172" lon="1.95638">
        <ele>1475.28</ele>
        <time>2015-10-10T11:34:05Z</time>
      </trkpt>
      <trkpt lat="42.6417" lon="1.95635">
        <ele>1475.76</ele>
        <time>2015-10-10T11:34:09Z</time>
      </trkpt>
      <trkpt lat="42.64161" lon="1.95628">
        <ele>1478.16</ele>
        <time>2015-10-10T11:34:27Z</time>
      </trkpt>
      <trkpt lat="42.64159" lon="1.95618">
        <ele>1479.13</ele>
        <time>2015-10-10T11:34:43Z</time>
      </trkpt>
      <trkpt lat="42.64156" lon="1.95608">
        <ele>1479.61</ele>
        <time>2015-10-10T11:34:54Z</time>
      </trkpt>
      <trkpt lat="42.64151" lon="1.956">
        <ele>1481.53</ele>
        <time>2015-10-10T11:35:07Z</time>
      </trkpt>
      <trkpt lat="42.64144" lon="1.95595">
        <ele>1482.97</ele>
        <time>2015-10-10T11:35:24Z</time>
      </trkpt>
      <trkpt lat="42.64129" lon="1.95601">
        <ele>1484.89</ele>
        <time>2015-10-10T11:35:42Z</time>
      </trkpt>
      <trkpt lat="42.64126" lon="1.95597">
        <ele>1485.85</ele>
        <time>2015-10-10T11:35:55Z</time>
      </trkpt>
      <trkpt lat="42.64126" lon="1.95597">
        <ele>1486.82</ele>
        <time>2015-10-10T11:35:57Z</time>
      </trkpt>
      <trkpt lat="42.64115" lon="1.95614">
        <ele>1487.78</ele>
        <time>2015-10-10T11:36:38Z</time>
      </trkpt>
      <trkpt lat="42.6411" lon="1.95619">
        <ele>1490.66</ele>
        <time>2015-10-10T11:36:50Z</time>
      </trkpt>
      <trkpt lat="42.641" lon="1.95626">
        <ele>1493.06</ele>
        <time>2015-10-10T11:37:08Z</time>
      </trkpt>
      <trkpt lat="42.64084" lon="1.95622">
        <ele>1493.55</ele>
        <time>2015-10-10T11:37:28Z</time>
      </trkpt>
      <trkpt lat="42.64086" lon="1.95627">
        <ele>1494.99</ele>
        <time>2015-10-10T11:37:41Z</time>
      </trkpt>
      <trkpt lat="42.64089" lon="1.95627">
        <ele>1496.91</ele>
        <time>2015-10-10T11:38:12Z</time>
      </trkpt>
      <trkpt lat="42.6408" lon="1.95622">
        <ele>1500.27</ele>
        <time>2015-10-10T11:38:31Z</time>
      </trkpt>
      <trkpt lat="42.64082" lon="1.95616">
        <ele>1502.2</ele>
        <time>2015-10-10T11:38:50Z</time>
      </trkpt>
      <trkpt lat="42.64082" lon="1.95615">
        <ele>1502.2</ele>
        <time>2015-10-10T11:38:51Z</time>
      </trkpt>
      <trkpt lat="42.64079" lon="1.9561">
        <ele>1504.12</ele>
        <time>2015-10-10T11:39:12Z</time>
      </trkpt>
      <trkpt lat="42.64076" lon="1.95612">
        <ele>1503.16</ele>
        <time>2015-10-10T11:39:25Z</time>
      </trkpt>
      <trkpt lat="42.64085" lon="1.9559">
        <ele>1504.12</ele>
        <time>2015-10-10T11:39:44Z</time>
      </trkpt>
      <trkpt lat="42.64084" lon="1.95586">
        <ele>1506.04</ele>
        <time>2015-10-10T11:39:50Z</time>
      </trkpt>
      <trkpt lat="42.64083" lon="1.95575">
        <ele>1507.48</ele>
        <time>2015-10-10T11:40:03Z</time>
      </trkpt>
      <trkpt lat="42.64088" lon="1.95571">
        <ele>1509.41</ele>
        <time>2015-10-10T11:40:18Z</time>
      </trkpt>
      <trkpt lat="42.64087" lon="1.95565">
        <ele>1510.85</ele>
        <time>2015-10-10T11:40:33Z</time>
      </trkpt>
      <trkpt lat="42.64071" lon="1.95562">
        <ele>1513.73</ele>
        <time>2015-10-10T11:40:50Z</time>
      </trkpt>
      <trkpt lat="42.64077" lon="1.95553">
        <ele>1516.14</ele>
        <time>2015-10-10T11:41:06Z</time>
      </trkpt>
      <trkpt lat="42.64075" lon="1.95538">
        <ele>1515.18</ele>
        <time>2015-10-10T11:41:26Z</time>
      </trkpt>
      <trkpt lat="42.64074" lon="1.95526">
        <ele>1515.66</ele>
        <time>2015-10-10T11:41:43Z</time>
      </trkpt>
      <trkpt lat="42.64075" lon="1.95522">
        <ele>1515.66</ele>
        <time>2015-10-10T11:41:51Z</time>
      </trkpt>
      <trkpt lat="42.64073" lon="1.95507">
        <ele>1516.14</ele>
        <time>2015-10-10T11:42:07Z</time>
      </trkpt>
      <trkpt lat="42.6407" lon="1.95492">
        <ele>1517.1</ele>
        <time>2015-10-10T11:42:23Z</time>
      </trkpt>
      <trkpt lat="42.64065" lon="1.95479">
        <ele>1519.02</ele>
        <time>2015-10-10T11:42:41Z</time>
      </trkpt>
      <trkpt lat="42.64066" lon="1.95471">
        <ele>1519.5</ele>
        <time>2015-10-10T11:42:56Z</time>
      </trkpt>
      <trkpt lat="42.6406" lon="1.95462">
        <ele>1520.46</ele>
        <time>2015-10-10T11:43:12Z</time>
      </trkpt>
      <trkpt lat="42.64057" lon="1.95464">
        <ele>1521.42</ele>
        <time>2015-10-10T11:43:29Z</time>
      </trkpt>
      <trkpt lat="42.64054" lon="1.95448">
        <ele>1522.87</ele>
        <time>2015-10-10T11:43:46Z</time>
      </trkpt>
      <trkpt lat="42.64042" lon="1.95438">
        <ele>1525.75</ele>
        <time>2015-10-10T11:44:11Z</time>
      </trkpt>
      <trkpt lat="42.64046" lon="1.95427">
        <ele>1527.67</ele>
        <time>2015-10-10T11:44:22Z</time>
      </trkpt>
      <trkpt lat="42.64048" lon="1.95412">
        <ele>1527.67</ele>
        <time>2015-10-10T11:44:38Z</time>
      </trkpt>
      <trkpt lat="42.64048" lon="1.95398">
        <ele>1529.59</ele>
        <time>2015-10-10T11:44:56Z</time>
      </trkpt>
      <trkpt lat="42.64053" lon="1.95377">
        <ele>1531.52</ele>
        <time>2015-10-10T11:45:18Z</time>
      </trkpt>
      <trkpt lat="42.64058" lon="1.95365">
        <ele>1534.4</ele>
        <time>2015-10-10T11:45:41Z</time>
      </trkpt>
      <trkpt lat="42.64053" lon="1.95363">
        <ele>1535.84</ele>
        <time>2015-10-10T11:45:55Z</time>
      </trkpt>
      <trkpt lat="42.6406" lon="1.95357">
        <ele>1536.8</ele>
        <time>2015-10-10T11:46:16Z</time>
      </trkpt>
      <trkpt lat="42.64061" lon="1.95354">
        <ele>1536.8</ele>
        <time>2015-10-10T11:46:32Z</time>
      </trkpt>
      <trkpt lat="42.64053" lon="1.95343">
        <ele>1538.25</ele>
        <time>2015-10-10T11:46:50Z</time>
      </trkpt>
      <trkpt lat="42.64044" lon="1.95329">
        <ele>1541.13</ele>
        <time>2015-10-10T11:47:08Z</time>
      </trkpt>
      <trkpt lat="42.64035" lon="1.95321">
        <ele>1540.65</ele>
        <time>2015-10-10T11:47:23Z</time>
      </trkpt>
      <trkpt lat="42.64029" lon="1.95319">
        <ele>1542.09</ele>
        <time>2015-10-10T11:47:37Z</time>
      </trkpt>
      <trkpt lat="42.64028" lon="1.95315">
        <ele>1542.57</ele>
        <time>2015-10-10T11:48:00Z</time>
      </trkpt>
      <trkpt lat="42.64031" lon="1.95302">
        <ele>1545.46</ele>
        <time>2015-10-10T11:48:18Z</time>
      </trkpt>
      <trkpt lat="42.64027" lon="1.95292">
        <ele>1546.9</ele>
        <time>2015-10-10T11:48:36Z</time>
      </trkpt>
      <trkpt lat="42.64025" lon="1.95285">
        <ele>1549.3</ele>
        <time>2015-10-10T11:48:46Z</time>
      </trkpt>
      <trkpt lat="42.64021" lon="1.95278">
        <ele>1549.3</ele>
        <time>2015-10-10T11:49:00Z</time>
      </trkpt>
      <trkpt lat="42.64018" lon="1.95275">
        <ele>1549.78</ele>
        <time>2015-10-10T11:49:16Z</time>
      </trkpt>
      <trkpt lat="42.64018" lon="1.95272">
        <ele>1551.22</ele>
        <time>2015-10-10T11:49:29Z</time>
      </trkpt>
      <trkpt lat="42.64016" lon="1.95263">
        <ele>1553.15</ele>
        <time>2015-10-10T11:49:42Z</time>
      </trkpt>
      <trkpt lat="42.64016" lon="1.95258">
        <ele>1554.11</ele>
        <time>2015-10-10T11:49:50Z</time>
      </trkpt>
      <trkpt lat="42.64012" lon="1.95253">
        <ele>1555.55</ele>
        <time>2015-10-10T11:50:03Z</time>
      </trkpt>
      <trkpt lat="42.64011" lon="1.95251">
        <ele>1555.55</ele>
        <time>2015-10-10T11:50:06Z</time>
      </trkpt>
    </trkseg>
  </trk>
  <trk>
    <name><![CDATA[ACTIVE LOG: 10 OCT 2015 11:44]]></name>
    <trkseg>
      <trkpt lat="42.64011" lon="1.95251">
        <ele>1547.86</ele>
        <time>2015-10-10T11:44:28Z</time>
      </trkpt>
      <trkpt lat="42.64011" lon="1.95251">
        <ele>1956.9</ele>
        <time>2015-10-10T14:21:52Z</time>
      </trkpt>
      <trkpt lat="42.64011" lon="1.95251">
        <ele>1956.42</ele>
        <time>2015-10-10T14:21:54Z</time>
      </trkpt>
      <trkpt lat="42.64011" lon="1.95251">
        <ele>1954.02</ele>
        <time>2015-10-10T14:22:12Z</time>
      </trkpt>
      <trkpt lat="42.64011" lon="1.95251">
        <ele>1956.9</ele>
        <time>2015-10-10T14:22:13Z</time>
      </trkpt>
      <trkpt lat="42.64011" lon="1.95251">
        <ele>1958.82</ele>
        <time>2015-10-10T14:22:23Z</time>
      </trkpt>
    </trkseg>
  </trk>
  <trk>
    <name><![CDATA[ACTIVE LOG: 10 OCT 2015 14:22]]></name>
    <trkseg>
      <trkpt lat="42.62664" lon="1.94411">
        <ele>1956.9</ele>
        <time>2015-10-10T14:22:30Z</time>
      </trkpt>
      <trkpt lat="42.62661" lon="1.9441">
        <ele>1957.38</ele>
        <time>2015-10-10T14:23:30Z</time>
      </trkpt>
      <trkpt lat="42.6266" lon="1.9441">
        <ele>1957.38</ele>
        <time>2015-10-10T14:24:46Z</time>
      </trkpt>
      <trkpt lat="42.6266" lon="1.9441">
        <ele>1959.3</ele>
        <time>2015-10-10T14:25:33Z</time>
      </trkpt>
      <trkpt lat="42.6266" lon="1.9441">
        <ele>1959.78</ele>
        <time>2015-10-10T14:27:23Z</time>
      </trkpt>
      <trkpt lat="42.6266" lon="1.9441">
        <ele>1960.75</ele>
        <time>2015-10-10T14:28:26Z</time>
      </trkpt>
      <trkpt lat="42.6266" lon="1.94411">
        <ele>1960.27</ele>
        <time>2015-10-10T14:28:50Z</time>
      </trkpt>
      <trkpt lat="42.62648" lon="1.94395">
        <ele>1960.75</ele>
        <time>2015-10-10T14:30:35Z</time>
      </trkpt>
      <trkpt lat="42.62653" lon="1.94403">
        <ele>1960.27</ele>
        <time>2015-10-10T14:31:39Z</time>
      </trkpt>
      <trkpt lat="42.62654" lon="1.94404">
        <ele>1961.23</ele>
        <time>2015-10-10T14:32:13Z</time>
      </trkpt>
      <trkpt lat="42.62659" lon="1.94407">
        <ele>1961.71</ele>
        <time>2015-10-10T14:32:58Z</time>
      </trkpt>
      <trkpt lat="42.6266" lon="1.94405">
        <ele>1961.71</ele>
        <time>2015-10-10T14:34:43Z</time>
      </trkpt>
      <trkpt lat="42.62663" lon="1.94396">
        <ele>1962.67</ele>
        <time>2015-10-10T14:35:09Z</time>
      </trkpt>
    </trkseg>
  </trk>
  <trk>
    <name><![CDATA[ACTIVE LOG: 10 OCT 2015 14:36]]></name>
    <trkseg>
      <trkpt lat="42.62673" lon="1.94422">
        <ele>1962.19</ele>
        <time>2015-10-10T14:36:40Z</time>
      </trkpt>
      <trkpt lat="42.62673" lon="1.94422">
        <ele>1963.15</ele>
        <time>2015-10-10T14:36:49Z</time>
      </trkpt>
      <trkpt lat="42.62673" lon="1.94422">
        <ele>1963.15</ele>
        <time>2015-10-10T14:37:11Z</time>
      </trkpt>
      <trkpt lat="42.62673" lon="1.94422">
        <ele>1960.27</ele>
        <time>2015-10-10T14:38:19Z</time>
      </trkpt>
      <trkpt lat="42.62673" lon="1.94422">
        <ele>1962.67</ele>
        <time>2015-10-10T14:38:20Z</time>
      </trkpt>
      <trkpt lat="42.62673" lon="1.94422">
        <ele>1959.78</ele>
        <time>2015-10-10T14:38:23Z</time>
      </trkpt>
      <trkpt lat="42.62673" lon="1.94422">
        <ele>1962.67</ele>
        <time>2015-10-10T14:38:25Z</time>
      </trkpt>
      <trkpt lat="42.62673" lon="1.94422">
        <ele>1959.78</ele>
        <time>2015-10-10T14:38:26Z</time>
      </trkpt>
      <trkpt lat="42.62673" lon="1.94422">
        <ele>1964.59</ele>
        <time>2015-10-10T14:38:32Z</time>
      </trkpt>
      <trkpt lat="42.62673" lon="1.94422">
        <ele>1963.15</ele>
        <time>2015-10-10T14:38:35Z</time>
      </trkpt>
      <trkpt lat="42.62673" lon="1.94422">
        <ele>1958.82</ele>
        <time>2015-10-10T14:38:37Z</time>
      </trkpt>
      <trkpt lat="42.62673" lon="1.94422">
        <ele>1962.19</ele>
        <time>2015-10-10T14:38:38Z</time>
      </trkpt>
      <trkpt lat="42.62673" lon="1.94422">
        <ele>1963.63</ele>
        <time>2015-10-10T14:38:40Z</time>
      </trkpt>
      <trkpt lat="42.62673" lon="1.94422">
        <ele>1962.19</ele>
        <time>2015-10-10T14:38:46Z</time>
      </trkpt>
      <trkpt lat="42.62673" lon="1.94422">
        <ele>1961.23</ele>
        <time>2015-10-10T14:38:50Z</time>
      </trkpt>
      <trkpt lat="42.62673" lon="1.94422">
        <ele>1958.82</ele>
        <time>2015-10-10T14:38:53Z</time>
      </trkpt>
      <trkpt lat="42.62673" lon="1.94422">
        <ele>1960.75</ele>
        <time>2015-10-10T14:38:54Z</time>
      </trkpt>
      <trkpt lat="42.62673" lon="1.94422">
        <ele>1959.78</ele>
        <time>2015-10-10T14:39:01Z</time>
      </trkpt>
      <trkpt lat="42.62673" lon="1.94422">
        <ele>1962.67</ele>
        <time>2015-10-10T14:39:02Z</time>
      </trkpt>
      <trkpt lat="42.62673" lon="1.94422">
        <ele>1962.67</ele>
        <time>2015-10-10T14:39:07Z</time>
      </trkpt>
      <trkpt lat="42.62673" lon="1.94422">
        <ele>1959.78</ele>
        <time>2015-10-10T14:39:12Z</time>
      </trkpt>
      <trkpt lat="42.62673" lon="1.94422">
        <ele>1961.23</ele>
        <time>2015-10-10T14:39:13Z</time>
      </trkpt>
      <trkpt lat="42.62673" lon="1.94422">
        <ele>1957.86</ele>
        <time>2015-10-10T14:39:14Z</time>
      </trkpt>
      <trkpt lat="42.62673" lon="1.94422">
        <ele>1962.19</ele>
        <time>2015-10-10T14:39:15Z</time>
      </trkpt>
      <trkpt lat="42.62673" lon="1.94422">
        <ele>1963.15</ele>
        <time>2015-10-10T14:39:16Z</time>
      </trkpt>
      <trkpt lat="42.62673" lon="1.94422">
        <ele>1959.78</ele>
        <time>2015-10-10T14:39:19Z</time>
      </trkpt>
      <trkpt lat="42.62673" lon="1.94422">
        <ele>1959.78</ele>
        <time>2015-10-10T14:39:20Z</time>
      </trkpt>
      <trkpt lat="42.62673" lon="1.94422">
        <ele>1961.23</ele>
        <time>2015-10-10T14:39:22Z</time>
      </trkpt>
      <trkpt lat="42.62673" lon="1.94422">
        <ele>1962.67</ele>
        <time>2015-10-10T14:39:23Z</time>
      </trkpt>
      <trkpt lat="42.62673" lon="1.94422">
        <ele>1961.23</ele>
        <time>2015-10-10T14:39:25Z</time>
      </trkpt>
      <trkpt lat="42.62673" lon="1.94422">
        <ele>1965.55</ele>
        <time>2015-10-10T14:39:26Z</time>
      </trkpt>
      <trkpt lat="42.62673" lon="1.94422">
        <ele>1961.71</ele>
        <time>2015-10-10T14:39:27Z</time>
      </trkpt>
      <trkpt lat="42.62673" lon="1.94422">
        <ele>1959.78</ele>
        <time>2015-10-10T14:39:33Z</time>
      </trkpt>
      <trkpt lat="42.62673" lon="1.94422">
        <ele>1963.63</ele>
        <time>2015-10-10T14:39:35Z</time>
      </trkpt>
      <trkpt lat="42.62673" lon="1.94422">
        <ele>1964.11</ele>
        <time>2015-10-10T14:39:37Z</time>
      </trkpt>
      <trkpt lat="42.62673" lon="1.94422">
        <ele>1959.78</ele>
        <time>2015-10-10T14:39:39Z</time>
      </trkpt>
      <trkpt lat="42.62673" lon="1.94422">
        <ele>1965.07</ele>
        <time>2015-10-10T14:39:40Z</time>
      </trkpt>
      <trkpt lat="42.62673" lon="1.94422">
        <ele>1963.63</ele>
        <time>2015-10-10T14:39:42Z</time>
      </trkpt>
      <trkpt lat="42.62673" lon="1.94422">
        <ele>1959.78</ele>
        <time>2015-10-10T14:39:43Z</time>
      </trkpt>
      <trkpt lat="42.62673" lon="1.94422">
        <ele>1963.63</ele>
        <time>2015-10-10T14:39:47Z</time>
      </trkpt>
      <trkpt lat="42.62673" lon="1.94422">
        <ele>1960.75</ele>
        <time>2015-10-10T14:39:48Z</time>
      </trkpt>
      <trkpt lat="42.62673" lon="1.94422">
        <ele>1961.23</ele>
        <time>2015-10-10T14:39:53Z</time>
      </trkpt>
      <trkpt lat="42.62673" lon="1.94422">
        <ele>1959.78</ele>
        <time>2015-10-10T14:39:56Z</time>
      </trkpt>
      <trkpt lat="42.62673" lon="1.94422">
        <ele>1961.71</ele>
        <time>2015-10-10T14:39:57Z</time>
      </trkpt>
      <trkpt lat="42.62673" lon="1.94422">
        <ele>1959.3</ele>
        <time>2015-10-10T14:39:58Z</time>
      </trkpt>
      <trkpt lat="42.62673" lon="1.94422">
        <ele>1963.63</ele>
        <time>2015-10-10T14:40:00Z</time>
      </trkpt>
      <trkpt lat="42.62673" lon="1.94422">
        <ele>1962.67</ele>
        <time>2015-10-10T14:40:12Z</time>
      </trkpt>
      <trkpt lat="42.62673" lon="1.94422">
        <ele>1960.75</ele>
        <time>2015-10-10T14:40:16Z</time>
      </trkpt>
      <trkpt lat="42.62673" lon="1.94422">
        <ele>1958.34</ele>
        <time>2015-10-10T14:40:18Z</time>
      </trkpt>
      <trkpt lat="42.62673" lon="1.94422">
        <ele>1963.63</ele>
        <time>2015-10-10T14:40:19Z</time>
      </trkpt>
      <trkpt lat="42.62673" lon="1.94422">
        <ele>1959.3</ele>
        <time>2015-10-10T14:40:28Z</time>
      </trkpt>
      <trkpt lat="42.62673" lon="1.94422">
        <ele>1962.67</ele>
        <time>2015-10-10T14:40:29Z</time>
      </trkpt>
      <trkpt lat="42.62673" lon="1.94422">
        <ele>1962.19</ele>
        <time>2015-10-10T14:40:31Z</time>
      </trkpt>
      <trkpt lat="42.62673" lon="1.94422">
        <ele>1960.75</ele>
        <time>2015-10-10T14:40:36Z</time>
      </trkpt>
      <trkpt lat="42.62673" lon="1.94422">
        <ele>1962.67</ele>
        <time>2015-10-10T14:40:37Z</time>
      </trkpt>
      <trkpt lat="42.62673" lon="1.94422">
        <ele>1959.78</ele>
        <time>2015-10-10T14:40:39Z</time>
      </trkpt>
      <trkpt lat="42.62673" lon="1.94422">
        <ele>1961.23</ele>
        <time>2015-10-10T14:40:40Z</time>
      </trkpt>
    </trkseg>
  </trk>
  <trk>
    <name><![CDATA[ACTIVE LOG: 10 OCT 2015 14:40]]></name>
    <trkseg>
      <trkpt lat="42.62649" lon="1.94417">
        <ele>1962.67</ele>
        <time>2015-10-10T14:40:43Z</time>
      </trkpt>
      <trkpt lat="42.62638" lon="1.94417">
        <ele>1958.34</ele>
        <time>2015-10-10T14:40:52Z</time>
      </trkpt>
      <trkpt lat="42.62638" lon="1.94417">
        <ele>1962.67</ele>
        <time>2015-10-10T14:40:53Z</time>
      </trkpt>
      <trkpt lat="42.6264" lon="1.9441">
        <ele>1957.86</ele>
        <time>2015-10-10T14:40:59Z</time>
      </trkpt>
      <trkpt lat="42.6264" lon="1.94408">
        <ele>1962.67</ele>
        <time>2015-10-10T14:41:00Z</time>
      </trkpt>
      <trkpt lat="42.6264" lon="1.94406">
        <ele>1959.3</ele>
        <time>2015-10-10T14:41:01Z</time>
      </trkpt>
      <trkpt lat="42.62641" lon="1.94403">
        <ele>1966.03</ele>
        <time>2015-10-10T14:41:02Z</time>
      </trkpt>
      <trkpt lat="42.62644" lon="1.94395">
        <ele>1968.44</ele>
        <time>2015-10-10T14:41:04Z</time>
      </trkpt>
      <trkpt lat="42.62646" lon="1.94387">
        <ele>1967.96</ele>
        <time>2015-10-10T14:41:08Z</time>
      </trkpt>
      <trkpt lat="42.62631" lon="1.94379">
        <ele>1968.92</ele>
        <time>2015-10-10T14:41:14Z</time>
      </trkpt>
      <trkpt lat="42.62628" lon="1.94379">
        <ele>1968.44</ele>
        <time>2015-10-10T14:41:15Z</time>
      </trkpt>
      <trkpt lat="42.62621" lon="1.94386">
        <ele>1968.44</ele>
        <time>2015-10-10T14:41:19Z</time>
      </trkpt>
      <trkpt lat="42.62621" lon="1.94388">
        <ele>1972.28</ele>
        <time>2015-10-10T14:41:21Z</time>
      </trkpt>
      <trkpt lat="42.62622" lon="1.94388">
        <ele>1968.44</ele>
        <time>2015-10-10T14:41:23Z</time>
      </trkpt>
      <trkpt lat="42.62623" lon="1.94387">
        <ele>1968.44</ele>
        <time>2015-10-10T14:41:24Z</time>
      </trkpt>
      <trkpt lat="42.6263" lon="1.94398">
        <ele>1968.92</ele>
        <time>2015-10-10T14:41:34Z</time>
      </trkpt>
      <trkpt lat="42.6263" lon="1.94398">
        <ele>1969.88</ele>
        <time>2015-10-10T14:41:35Z</time>
      </trkpt>
      <trkpt lat="42.6263" lon="1.944">
        <ele>1973.24</ele>
        <time>2015-10-10T14:41:38Z</time>
      </trkpt>
      <trkpt lat="42.62631" lon="1.94401">
        <ele>1972.28</ele>
        <time>2015-10-10T14:41:40Z</time>
      </trkpt>
      <trkpt lat="42.62635" lon="1.94403">
        <ele>1973.72</ele>
        <time>2015-10-10T14:41:45Z</time>
      </trkpt>
      <trkpt lat="42.62637" lon="1.94407">
        <ele>1973.24</ele>
        <time>2015-10-10T14:41:47Z</time>
      </trkpt>
      <trkpt lat="42.62647" lon="1.94417">
        <ele>1972.76</ele>
        <time>2015-10-10T14:41:52Z</time>
      </trkpt>
      <trkpt lat="42.62651" lon="1.94419">
        <ele>1970.84</ele>
        <time>2015-10-10T14:41:54Z</time>
      </trkpt>
      <trkpt lat="42.62653" lon="1.94419">
        <ele>1975.65</ele>
        <time>2015-10-10T14:41:55Z</time>
      </trkpt>
      <trkpt lat="42.62655" lon="1.9442">
        <ele>1974.69</ele>
        <time>2015-10-10T14:41:59Z</time>
      </trkpt>
      <trkpt lat="42.62653" lon="1.9442">
        <ele>1976.61</ele>
        <time>2015-10-10T14:42:02Z</time>
      </trkpt>
      <trkpt lat="42.62652" lon="1.94417">
        <ele>1973.24</ele>
        <time>2015-10-10T14:42:06Z</time>
      </trkpt>
      <trkpt lat="42.62652" lon="1.94416">
        <ele>1975.17</ele>
        <time>2015-10-10T14:42:07Z</time>
      </trkpt>
      <trkpt lat="42.62652" lon="1.94416">
        <ele>1976.13</ele>
        <time>2015-10-10T14:42:09Z</time>
      </trkpt>
      <trkpt lat="42.62655" lon="1.94408">
        <ele>1975.65</ele>
        <time>2015-10-10T14:42:17Z</time>
      </trkpt>
      <trkpt lat="42.62657" lon="1.94403">
        <ele>1974.2</ele>
        <time>2015-10-10T14:42:22Z</time>
      </trkpt>
      <trkpt lat="42.62659" lon="1.94399">
        <ele>1978.53</ele>
        <time>2015-10-10T14:42:24Z</time>
      </trkpt>
      <trkpt lat="42.62662" lon="1.94385">
        <ele>1978.53</ele>
        <time>2015-10-10T14:42:30Z</time>
      </trkpt>
      <trkpt lat="42.6267" lon="1.94362">
        <ele>1979.97</ele>
        <time>2015-10-10T14:42:37Z</time>
      </trkpt>
      <trkpt lat="42.6268" lon="1.94326">
        <ele>1976.13</ele>
        <time>2015-10-10T14:42:40Z</time>
      </trkpt>
      <trkpt lat="42.62682" lon="1.9432">
        <ele>1976.61</ele>
        <time>2015-10-10T14:42:41Z</time>
      </trkpt>
      <trkpt lat="42.62688" lon="1.94301">
        <ele>1980.45</ele>
        <time>2015-10-10T14:42:45Z</time>
      </trkpt>
      <trkpt lat="42.627" lon="1.94277">
        <ele>1979.49</ele>
        <time>2015-10-10T14:42:53Z</time>
      </trkpt>
      <trkpt lat="42.62706" lon="1.94266">
        <ele>1980.45</ele>
        <time>2015-10-10T14:42:57Z</time>
      </trkpt>
      <trkpt lat="42.62726" lon="1.94251">
        <ele>1982.38</ele>
        <time>2015-10-10T14:43:09Z</time>
      </trkpt>
      <trkpt lat="42.62736" lon="1.94246">
        <ele>1981.41</ele>
        <time>2015-10-10T14:43:14Z</time>
      </trkpt>
      <trkpt lat="42.6275" lon="1.94239">
        <ele>1980.45</ele>
        <time>2015-10-10T14:43:21Z</time>
      </trkpt>
      <trkpt lat="42.62686" lon="1.9439">
        <ele>1980.93</ele>
        <time>2015-10-10T14:43:26Z</time>
      </trkpt>
      <trkpt lat="42.62646" lon="1.94429">
        <ele>1985.26</ele>
        <time>2015-10-10T14:43:29Z</time>
      </trkpt>
      <trkpt lat="42.62605" lon="1.94442">
        <ele>1985.74</ele>
        <time>2015-10-10T14:43:38Z</time>
      </trkpt>
      <trkpt lat="42.62612" lon="1.94449">
        <ele>1987.18</ele>
        <time>2015-10-10T14:43:46Z</time>
      </trkpt>
      <trkpt lat="42.62614" lon="1.94446">
        <ele>1984.3</ele>
        <time>2015-10-10T14:43:48Z</time>
      </trkpt>
      <trkpt lat="42.62615" lon="1.94444">
        <ele>1984.78</ele>
        <time>2015-10-10T14:43:49Z</time>
      </trkpt>
      <trkpt lat="42.62616" lon="1.94443">
        <ele>1988.62</ele>
        <time>2015-10-10T14:43:50Z</time>
      </trkpt>
      <trkpt lat="42.62617" lon="1.94442">
        <ele>1988.14</ele>
        <time>2015-10-10T14:43:51Z</time>
      </trkpt>
      <trkpt lat="42.6262" lon="1.94444">
        <ele>1987.66</ele>
        <time>2015-10-10T14:43:57Z</time>
      </trkpt>
      <trkpt lat="42.62621" lon="1.94444">
        <ele>1988.62</ele>
        <time>2015-10-10T14:43:58Z</time>
      </trkpt>
      <trkpt lat="42.62623" lon="1.94452">
        <ele>1986.22</ele>
        <time>2015-10-10T14:44:03Z</time>
      </trkpt>
      <trkpt lat="42.62632" lon="1.94458">
        <ele>1990.07</ele>
        <time>2015-10-10T14:44:08Z</time>
      </trkpt>
      <trkpt lat="42.62635" lon="1.94459">
        <ele>1987.66</ele>
        <time>2015-10-10T14:44:09Z</time>
      </trkpt>
      <trkpt lat="42.62635" lon="1.94463">
        <ele>1987.66</ele>
        <time>2015-10-10T14:44:14Z</time>
      </trkpt>
      <trkpt lat="42.62631" lon="1.94466">
        <ele>1991.03</ele>
        <time>2015-10-10T14:44:16Z</time>
      </trkpt>
      <trkpt lat="42.62625" lon="1.94468">
        <ele>1991.03</ele>
        <time>2015-10-10T14:44:18Z</time>
      </trkpt>
      <trkpt lat="42.62624" lon="1.94471">
        <ele>1988.62</ele>
        <time>2015-10-10T14:44:20Z</time>
      </trkpt>
      <trkpt lat="42.62625" lon="1.94471">
        <ele>1989.59</ele>
        <time>2015-10-10T14:44:21Z</time>
      </trkpt>
      <trkpt lat="42.62641" lon="1.94454">
        <ele>1991.03</ele>
        <time>2015-10-10T14:44:24Z</time>
      </trkpt>
      <trkpt lat="42.62644" lon="1.94441">
        <ele>1990.07</ele>
        <time>2015-10-10T14:44:29Z</time>
      </trkpt>
      <trkpt lat="42.62639" lon="1.94423">
        <ele>1992.95</ele>
        <time>2015-10-10T14:44:42Z</time>
      </trkpt>
      <trkpt lat="42.62639" lon="1.94425">
        <ele>1992.47</ele>
        <time>2015-10-10T14:44:45Z</time>
      </trkpt>
      <trkpt lat="42.6264" lon="1.94426">
        <ele>1990.55</ele>
        <time>2015-10-10T14:44:49Z</time>
      </trkpt>
      <trkpt lat="42.62639" lon="1.94422">
        <ele>1992.47</ele>
        <time>2015-10-10T14:44:51Z</time>
      </trkpt>
      <trkpt lat="42.62634" lon="1.94419">
        <ele>1991.03</ele>
        <time>2015-10-10T14:44:55Z</time>
      </trkpt>
      <trkpt lat="42.62633" lon="1.94419">
        <ele>1994.87</ele>
        <time>2015-10-10T14:44:56Z</time>
      </trkpt>
      <trkpt lat="42.62631" lon="1.94419">
        <ele>1993.43</ele>
        <time>2015-10-10T14:44:57Z</time>
      </trkpt>
      <trkpt lat="42.62614" lon="1.94411">
        <ele>1991.03</ele>
        <time>2015-10-10T14:45:03Z</time>
      </trkpt>
      <trkpt lat="42.62594" lon="1.94417">
        <ele>1993.91</ele>
        <time>2015-10-10T14:45:14Z</time>
      </trkpt>
      <trkpt lat="42.62592" lon="1.94413">
        <ele>1991.03</ele>
        <time>2015-10-10T14:45:16Z</time>
      </trkpt>
      <trkpt lat="42.62591" lon="1.94413">
        <ele>1995.35</ele>
        <time>2015-10-10T14:45:20Z</time>
      </trkpt>
      <trkpt lat="42.62591" lon="1.94417">
        <ele>1992.47</ele>
        <time>2015-10-10T14:45:22Z</time>
      </trkpt>
      <trkpt lat="42.62588" lon="1.94427">
        <ele>1994.87</ele>
        <time>2015-10-10T14:45:27Z</time>
      </trkpt>
      <trkpt lat="42.62582" lon="1.94429">
        <ele>1994.39</ele>
        <time>2015-10-10T14:45:30Z</time>
      </trkpt>
      <trkpt lat="42.62565" lon="1.94435">
        <ele>1994.39</ele>
        <time>2015-10-10T14:45:39Z</time>
      </trkpt>
      <trkpt lat="42.62534" lon="1.94447">
        <ele>1995.35</ele>
        <time>2015-10-10T14:45:55Z</time>
      </trkpt>
      <trkpt lat="42.62531" lon="1.94449">
        <ele>1992.47</ele>
        <time>2015-10-10T14:45:57Z</time>
      </trkpt>
    </trkseg>
  </trk>
  <trk>
    <name><![CDATA[ACTIVE LOG: 10 OCT 2015 14:45]]></name>
    <trkseg>
      <trkpt lat="42.62531" lon="1.94449">
        <ele>1994.39</ele>
        <time>2015-10-10T14:45:58Z</time>
      </trkpt>
      <trkpt lat="42.62531" lon="1.94449">
        <ele>1991.99</ele>
        <time>2015-10-10T14:46:09Z</time>
      </trkpt>
      <trkpt lat="42.62531" lon="1.94449">
        <ele>1994.39</ele>
        <time>2015-10-10T14:46:12Z</time>
      </trkpt>
      <trkpt lat="42.62531" lon="1.94449">
        <ele>1990.07</ele>
        <time>2015-10-10T14:46:13Z</time>
      </trkpt>
      <trkpt lat="42.62531" lon="1.94449">
        <ele>1992.95</ele>
        <time>2015-10-10T14:46:14Z</time>
      </trkpt>
      <trkpt lat="42.62531" lon="1.94449">
        <ele>1995.35</ele>
        <time>2015-10-10T14:46:15Z</time>
      </trkpt>
    </trkseg>
  </trk>
  <trk>
    <name><![CDATA[ACTIVE LOG: 10 OCT 2015 14:46]]></name>
    <trkseg>
      <trkpt lat="42.62567" lon="1.94379">
        <ele>1993.43</ele>
        <time>2015-10-10T14:46:16Z</time>
      </trkpt>
      <trkpt lat="42.62565" lon="1.94378">
        <ele>1994.39</ele>
        <time>2015-10-10T14:46:20Z</time>
      </trkpt>
      <trkpt lat="42.62564" lon="1.94385">
        <ele>1992.47</ele>
        <time>2015-10-10T14:46:26Z</time>
      </trkpt>
      <trkpt lat="42.6258" lon="1.94403">
        <ele>1993.43</ele>
        <time>2015-10-10T14:46:33Z</time>
      </trkpt>
      <trkpt lat="42.6259" lon="1.94403">
        <ele>1991.51</ele>
        <time>2015-10-10T14:46:37Z</time>
      </trkpt>
      <trkpt lat="42.62621" lon="1.94446">
        <ele>1992.95</ele>
        <time>2015-10-10T14:46:49Z</time>
      </trkpt>
      <trkpt lat="42.6262" lon="1.94433">
        <ele>1993.43</ele>
        <time>2015-10-10T14:46:56Z</time>
      </trkpt>
      <trkpt lat="42.62613" lon="1.94419">
        <ele>1993.91</ele>
        <time>2015-10-10T14:47:01Z</time>
      </trkpt>
      <trkpt lat="42.62614" lon="1.94421">
        <ele>1995.35</ele>
        <time>2015-10-10T14:47:14Z</time>
      </trkpt>
      <trkpt lat="42.62638" lon="1.94424">
        <ele>1991.51</ele>
        <time>2015-10-10T14:47:16Z</time>
      </trkpt>
      <trkpt lat="42.62645" lon="1.94425">
        <ele>1993.43</ele>
        <time>2015-10-10T14:47:17Z</time>
      </trkpt>
      <trkpt lat="42.62659" lon="1.94433">
        <ele>1994.39</ele>
        <time>2015-10-10T14:47:24Z</time>
      </trkpt>
      <trkpt lat="42.62659" lon="1.94436">
        <ele>1992.95</ele>
        <time>2015-10-10T14:47:26Z</time>
      </trkpt>
      <trkpt lat="42.6266" lon="1.9444">
        <ele>1994.87</ele>
        <time>2015-10-10T14:47:30Z</time>
      </trkpt>
      <trkpt lat="42.6266" lon="1.94443">
        <ele>1993.43</ele>
        <time>2015-10-10T14:47:32Z</time>
      </trkpt>
      <trkpt lat="42.62661" lon="1.94451">
        <ele>1994.39</ele>
        <time>2015-10-10T14:47:39Z</time>
      </trkpt>
      <trkpt lat="42.62662" lon="1.94458">
        <ele>1992.95</ele>
        <time>2015-10-10T14:47:45Z</time>
      </trkpt>
      <trkpt lat="42.62734" lon="1.94405">
        <ele>1993.43</ele>
        <time>2015-10-10T14:47:51Z</time>
      </trkpt>
      <trkpt lat="42.62732" lon="1.94394">
        <ele>1991.99</ele>
        <time>2015-10-10T14:47:57Z</time>
      </trkpt>
      <trkpt lat="42.62724" lon="1.94392">
        <ele>1994.39</ele>
        <time>2015-10-10T14:48:02Z</time>
      </trkpt>
      <trkpt lat="42.62716" lon="1.94391">
        <ele>1990.07</ele>
        <time>2015-10-10T14:48:05Z</time>
      </trkpt>
      <trkpt lat="42.62705" lon="1.94385">
        <ele>1993.43</ele>
        <time>2015-10-10T14:48:09Z</time>
      </trkpt>
      <trkpt lat="42.62704" lon="1.94347">
        <ele>1993.43</ele>
        <time>2015-10-10T14:48:27Z</time>
      </trkpt>
      <trkpt lat="42.62702" lon="1.94345">
        <ele>1992.95</ele>
        <time>2015-10-10T14:48:31Z</time>
      </trkpt>
      <trkpt lat="42.62701" lon="1.94344">
        <ele>1991.99</ele>
        <time>2015-10-10T14:48:33Z</time>
      </trkpt>
      <trkpt lat="42.62698" lon="1.94341">
        <ele>1994.87</ele>
        <time>2015-10-10T14:48:38Z</time>
      </trkpt>
      <trkpt lat="42.62696" lon="1.94338">
        <ele>1992.47</ele>
        <time>2015-10-10T14:48:42Z</time>
      </trkpt>
    </trkseg>
  </trk>
  <trk>
    <name><![CDATA[ACTIVE LOG: 10 OCT 2015 14:48]]></name>
    <trkseg>
      <trkpt lat="42.62689" lon="1.94331">
        <ele>1991.51</ele>
        <time>2015-10-10T14:48:56Z</time>
      </trkpt>
      <trkpt lat="42.62689" lon="1.94331">
        <ele>1989.59</ele>
        <time>2015-10-10T14:48:58Z</time>
      </trkpt>
      <trkpt lat="42.62689" lon="1.94331">
        <ele>1991.51</ele>
        <time>2015-10-10T14:48:59Z</time>
      </trkpt>
      <trkpt lat="42.62689" lon="1.94331">
        <ele>1994.87</ele>
        <time>2015-10-10T14:49:02Z</time>
      </trkpt>
      <trkpt lat="42.62689" lon="1.94331">
        <ele>1991.99</ele>
        <time>2015-10-10T14:49:09Z</time>
      </trkpt>
      <trkpt lat="42.62689" lon="1.94331">
        <ele>1995.35</ele>
        <time>2015-10-10T14:49:15Z</time>
      </trkpt>
      <trkpt lat="42.62689" lon="1.94331">
        <ele>1992.47</ele>
        <time>2015-10-10T14:49:16Z</time>
      </trkpt>
      <trkpt lat="42.62689" lon="1.94331">
        <ele>1992.95</ele>
        <time>2015-10-10T14:49:18Z</time>
      </trkpt>
      <trkpt lat="42.62689" lon="1.94331">
        <ele>1991.03</ele>
        <time>2015-10-10T14:49:24Z</time>
      </trkpt>
      <trkpt lat="42.62689" lon="1.94331">
        <ele>1994.87</ele>
        <time>2015-10-10T14:49:32Z</time>
      </trkpt>
      <trkpt lat="42.62689" lon="1.94331">
        <ele>1991.99</ele>
        <time>2015-10-10T14:49:35Z</time>
      </trkpt>
      <trkpt lat="42.62689" lon="1.94331">
        <ele>1995.83</ele>
        <time>2015-10-10T14:49:36Z</time>
      </trkpt>
      <trkpt lat="42.62689" lon="1.94331">
        <ele>1990.55</ele>
        <time>2015-10-10T14:49:37Z</time>
      </trkpt>
      <trkpt lat="42.62689" lon="1.94331">
        <ele>1993.91</ele>
        <time>2015-10-10T14:49:38Z</time>
      </trkpt>
      <trkpt lat="42.62689" lon="1.94331">
        <ele>1995.35</ele>
        <time>2015-10-10T14:49:44Z</time>
      </trkpt>
      <trkpt lat="42.62689" lon="1.94331">
        <ele>1991.99</ele>
        <time>2015-10-10T14:49:46Z</time>
      </trkpt>
      <trkpt lat="42.62689" lon="1.94331">
        <ele>1991.99</ele>
        <time>2015-10-10T14:49:49Z</time>
      </trkpt>
      <trkpt lat="42.62689" lon="1.94331">
        <ele>1991.03</ele>
        <time>2015-10-10T14:49:53Z</time>
      </trkpt>
      <trkpt lat="42.62689" lon="1.94331">
        <ele>1994.39</ele>
        <time>2015-10-10T14:49:54Z</time>
      </trkpt>
      <trkpt lat="42.62689" lon="1.94331">
        <ele>1991.51</ele>
        <time>2015-10-10T14:49:58Z</time>
      </trkpt>
      <trkpt lat="42.62689" lon="1.94331">
        <ele>1993.43</ele>
        <time>2015-10-10T14:50:02Z</time>
      </trkpt>
      <trkpt lat="42.62689" lon="1.94331">
        <ele>1989.59</ele>
        <time>2015-10-10T14:50:06Z</time>
      </trkpt>
      <trkpt lat="42.62689" lon="1.94331">
        <ele>1993.43</ele>
        <time>2015-10-10T14:50:07Z</time>
      </trkpt>
      <trkpt lat="42.62689" lon="1.94331">
        <ele>1993.91</ele>
        <time>2015-10-10T14:50:08Z</time>
      </trkpt>
      <trkpt lat="42.62689" lon="1.94331">
        <ele>1990.55</ele>
        <time>2015-10-10T14:50:11Z</time>
      </trkpt>
      <trkpt lat="42.62689" lon="1.94331">
        <ele>1993.91</ele>
        <time>2015-10-10T14:50:12Z</time>
      </trkpt>
      <trkpt lat="42.62689" lon="1.94331">
        <ele>1991.03</ele>
        <time>2015-10-10T14:50:20Z</time>
      </trkpt>
      <trkpt lat="42.62689" lon="1.94331">
        <ele>1994.87</ele>
        <time>2015-10-10T14:50:21Z</time>
      </trkpt>
      <trkpt lat="42.62689" lon="1.94331">
        <ele>1991.03</ele>
        <time>2015-10-10T14:50:23Z</time>
      </trkpt>
      <trkpt lat="42.62689" lon="1.94331">
        <ele>1991.03</ele>
        <time>2015-10-10T14:50:24Z</time>
      </trkpt>
      <trkpt lat="42.62689" lon="1.94331">
        <ele>1991.51</ele>
        <time>2015-10-10T14:50:29Z</time>
      </trkpt>
      <trkpt lat="42.62689" lon="1.94331">
        <ele>1993.43</ele>
        <time>2015-10-10T14:50:30Z</time>
      </trkpt>
      <trkpt lat="42.62689" lon="1.94331">
        <ele>1992.47</ele>
        <time>2015-10-10T14:50:41Z</time>
      </trkpt>
      <trkpt lat="42.62689" lon="1.94331">
        <ele>1994.39</ele>
        <time>2015-10-10T14:50:44Z</time>
      </trkpt>
      <trkpt lat="42.62689" lon="1.94331">
        <ele>1991.99</ele>
        <time>2015-10-10T14:50:47Z</time>
      </trkpt>
      <trkpt lat="42.62689" lon="1.94331">
        <ele>1995.35</ele>
        <time>2015-10-10T14:50:49Z</time>
      </trkpt>
      <trkpt lat="42.62689" lon="1.94331">
        <ele>1991.99</ele>
        <time>2015-10-10T14:50:50Z</time>
      </trkpt>
      <trkpt lat="42.62689" lon="1.94331">
        <ele>1991.99</ele>
        <time>2015-10-10T14:50:51Z</time>
      </trkpt>
      <trkpt lat="42.62689" lon="1.94331">
        <ele>1994.39</ele>
        <time>2015-10-10T14:50:52Z</time>
      </trkpt>
      <trkpt lat="42.62689" lon="1.94331">
        <ele>1991.51</ele>
        <time>2015-10-10T14:50:54Z</time>
      </trkpt>
      <trkpt lat="42.62689" lon="1.94331">
        <ele>1993.43</ele>
        <time>2015-10-10T14:50:56Z</time>
      </trkpt>
      <trkpt lat="42.62689" lon="1.94331">
        <ele>1991.51</ele>
        <time>2015-10-10T14:51:00Z</time>
      </trkpt>
      <trkpt lat="42.62689" lon="1.94331">
        <ele>1992.95</ele>
        <time>2015-10-10T14:51:01Z</time>
      </trkpt>
      <trkpt lat="42.62689" lon="1.94331">
        <ele>1994.87</ele>
        <time>2015-10-10T14:51:05Z</time>
      </trkpt>
      <trkpt lat="42.62689" lon="1.94331">
        <ele>1990.55</ele>
        <time>2015-10-10T14:51:08Z</time>
      </trkpt>
      <trkpt lat="42.62689" lon="1.94331">
        <ele>1991.99</ele>
        <time>2015-10-10T14:51:10Z</time>
      </trkpt>
      <trkpt lat="42.62658" lon="1.94414">
        <ele>2014.1</ele>
        <time>2015-10-10T14:51:11Z</time>
      </trkpt>
      <trkpt lat="42.62658" lon="1.94413">
        <ele>2011.7</ele>
        <time>2015-10-10T14:51:12Z</time>
      </trkpt>
      <trkpt lat="42.62657" lon="1.94412">
        <ele>2015.06</ele>
        <time>2015-10-10T14:51:13Z</time>
      </trkpt>
      <trkpt lat="42.62663" lon="1.94407">
        <ele>2012.66</ele>
        <time>2015-10-10T14:51:14Z</time>
      </trkpt>
      <trkpt lat="42.62677" lon="1.94416">
        <ele>2013.62</ele>
        <time>2015-10-10T14:51:28Z</time>
      </trkpt>
      <trkpt lat="42.62679" lon="1.94423">
        <ele>2013.62</ele>
        <time>2015-10-10T14:51:35Z</time>
      </trkpt>
      <trkpt lat="42.62684" lon="1.94443">
        <ele>2014.58</ele>
        <time>2015-10-10T14:51:55Z</time>
      </trkpt>
      <trkpt lat="42.62685" lon="1.94445">
        <ele>2012.18</ele>
        <time>2015-10-10T14:51:57Z</time>
      </trkpt>
      <trkpt lat="42.62685" lon="1.94446">
        <ele>2015.54</ele>
        <time>2015-10-10T14:51:58Z</time>
      </trkpt>
      <trkpt lat="42.62685" lon="1.94447">
        <ele>2013.62</ele>
        <time>2015-10-10T14:51:59Z</time>
      </trkpt>
    </trkseg>
  </trk>
  <trk>
    <name><![CDATA[ACTIVE LOG: 11 OCT 2015 06:43]]></name>
    <trkseg>
      <trkpt lat="42.62685" lon="1.94447">
        <ele>2041.98</ele>
        <time>2015-10-11T06:43:45Z</time>
      </trkpt>
      <trkpt lat="42.62685" lon="1.94447">
        <ele>1964.59</ele>
        <time>2015-10-11T06:43:46Z</time>
      </trkpt>
      <trkpt lat="42.62685" lon="1.94447">
        <ele>1961.71</ele>
        <time>2015-10-11T06:43:49Z</time>
      </trkpt>
      <trkpt lat="42.62685" lon="1.94447">
        <ele>1964.59</ele>
        <time>2015-10-11T06:43:51Z</time>
      </trkpt>
      <trkpt lat="42.62685" lon="1.94447">
        <ele>1966.03</ele>
        <time>2015-10-11T06:43:54Z</time>
      </trkpt>
      <trkpt lat="42.62685" lon="1.94447">
        <ele>1967.48</ele>
        <time>2015-10-11T06:43:55Z</time>
      </trkpt>
      <trkpt lat="42.62685" lon="1.94447">
        <ele>1963.15</ele>
        <time>2015-10-11T06:43:56Z</time>
      </trkpt>
      <trkpt lat="42.62685" lon="1.94447">
        <ele>1965.07</ele>
        <time>2015-10-11T06:43:58Z</time>
      </trkpt>
      <trkpt lat="42.62685" lon="1.94447">
        <ele>1963.63</ele>
        <time>2015-10-11T06:44:04Z</time>
      </trkpt>
      <trkpt lat="42.62685" lon="1.94447">
        <ele>1966.51</ele>
        <time>2015-10-11T06:44:05Z</time>
      </trkpt>
      <trkpt lat="42.62685" lon="1.94447">
        <ele>1962.19</ele>
        <time>2015-10-11T06:44:06Z</time>
      </trkpt>
      <trkpt lat="42.62685" lon="1.94447">
        <ele>1964.59</ele>
        <time>2015-10-11T06:44:08Z</time>
      </trkpt>
      <trkpt lat="42.62685" lon="1.94447">
        <ele>1963.63</ele>
        <time>2015-10-11T06:44:16Z</time>
      </trkpt>
      <trkpt lat="42.62685" lon="1.94447">
        <ele>1967.48</ele>
        <time>2015-10-11T06:44:18Z</time>
      </trkpt>
      <trkpt lat="42.62685" lon="1.94447">
        <ele>1964.59</ele>
        <time>2015-10-11T06:44:19Z</time>
      </trkpt>
      <trkpt lat="42.62685" lon="1.94447">
        <ele>1963.15</ele>
        <time>2015-10-11T06:44:20Z</time>
      </trkpt>
      <trkpt lat="42.62685" lon="1.94447">
        <ele>1966.03</ele>
        <time>2015-10-11T06:44:21Z</time>
      </trkpt>
      <trkpt lat="42.62685" lon="1.94447">
        <ele>1964.11</ele>
        <time>2015-10-11T06:44:22Z</time>
      </trkpt>
      <trkpt lat="42.62685" lon="1.94447">
        <ele>1964.11</ele>
        <time>2015-10-11T06:44:25Z</time>
      </trkpt>
      <trkpt lat="42.62685" lon="1.94447">
        <ele>1965.55</ele>
        <time>2015-10-11T06:44:26Z</time>
      </trkpt>
      <trkpt lat="42.62685" lon="1.94447">
        <ele>1963.63</ele>
        <time>2015-10-11T06:44:29Z</time>
      </trkpt>
      <trkpt lat="42.62685" lon="1.94447">
        <ele>1967.48</ele>
        <time>2015-10-11T06:44:34Z</time>
      </trkpt>
      <trkpt lat="42.62685" lon="1.94447">
        <ele>1963.63</ele>
        <time>2015-10-11T06:44:35Z</time>
      </trkpt>
      <trkpt lat="42.62685" lon="1.94447">
        <ele>1967.48</ele>
        <time>2015-10-11T06:44:36Z</time>
      </trkpt>
      <trkpt lat="42.62685" lon="1.94447">
        <ele>1964.11</ele>
        <time>2015-10-11T06:44:39Z</time>
      </trkpt>
      <trkpt lat="42.62685" lon="1.94447">
        <ele>1964.59</ele>
        <time>2015-10-11T06:44:42Z</time>
      </trkpt>
      <trkpt lat="42.62685" lon="1.94447">
        <ele>1965.55</ele>
        <time>2015-10-11T06:44:48Z</time>
      </trkpt>
      <trkpt lat="42.62685" lon="1.94447">
        <ele>1964.11</ele>
        <time>2015-10-11T06:44:59Z</time>
      </trkpt>
      <trkpt lat="42.62685" lon="1.94447">
        <ele>1965.55</ele>
        <time>2015-10-11T06:45:02Z</time>
      </trkpt>
      <trkpt lat="42.62685" lon="1.94447">
        <ele>1967.48</ele>
        <time>2015-10-11T06:45:03Z</time>
      </trkpt>
      <trkpt lat="42.62685" lon="1.94447">
        <ele>1964.11</ele>
        <time>2015-10-11T06:45:04Z</time>
      </trkpt>
      <trkpt lat="42.62685" lon="1.94447">
        <ele>1967.96</ele>
        <time>2015-10-11T06:45:09Z</time>
      </trkpt>
      <trkpt lat="42.62685" lon="1.94447">
        <ele>1963.63</ele>
        <time>2015-10-11T06:45:10Z</time>
      </trkpt>
      <trkpt lat="42.62685" lon="1.94447">
        <ele>1966.99</ele>
        <time>2015-10-11T06:45:11Z</time>
      </trkpt>
      <trkpt lat="42.62685" lon="1.94447">
        <ele>1965.55</ele>
        <time>2015-10-11T06:45:12Z</time>
      </trkpt>
    </trkseg>
  </trk>
  <trk>
    <name><![CDATA[ACTIVE LOG: 11 OCT 2015 06:45]]></name>
    <trkseg>
      <trkpt lat="42.62959" lon="1.93951">
        <ele>1965.55</ele>
        <time>2015-10-11T06:45:14Z</time>
      </trkpt>
      <trkpt lat="42.62956" lon="1.93953">
        <ele>1966.51</ele>
        <time>2015-10-11T06:45:20Z</time>
      </trkpt>
      <trkpt lat="42.62956" lon="1.93952">
        <ele>1965.55</ele>
        <time>2015-10-11T06:45:22Z</time>
      </trkpt>
      <trkpt lat="42.62656" lon="1.94408">
        <ele>1961.71</ele>
        <time>2015-10-11T06:45:39Z</time>
      </trkpt>
      <trkpt lat="42.62656" lon="1.94407">
        <ele>1965.55</ele>
        <time>2015-10-11T06:45:40Z</time>
      </trkpt>
      <trkpt lat="42.62656" lon="1.94407">
        <ele>1965.55</ele>
        <time>2015-10-11T06:45:41Z</time>
      </trkpt>
      <trkpt lat="42.62656" lon="1.94406">
        <ele>1966.03</ele>
        <time>2015-10-11T06:46:14Z</time>
      </trkpt>
      <trkpt lat="42.62656" lon="1.94406">
        <ele>1963.15</ele>
        <time>2015-10-11T06:46:22Z</time>
      </trkpt>
      <trkpt lat="42.62655" lon="1.94407">
        <ele>1966.51</ele>
        <time>2015-10-11T06:46:30Z</time>
      </trkpt>
      <trkpt lat="42.62655" lon="1.94406">
        <ele>1965.55</ele>
        <time>2015-10-11T06:46:35Z</time>
      </trkpt>
      <trkpt lat="42.62653" lon="1.94408">
        <ele>1966.99</ele>
        <time>2015-10-11T06:47:04Z</time>
      </trkpt>
      <trkpt lat="42.62653" lon="1.94406">
        <ele>1967.48</ele>
        <time>2015-10-11T06:47:10Z</time>
      </trkpt>
      <trkpt lat="42.62653" lon="1.94406">
        <ele>1964.59</ele>
        <time>2015-10-11T06:47:15Z</time>
      </trkpt>
      <trkpt lat="42.62653" lon="1.94406">
        <ele>1968.44</ele>
        <time>2015-10-11T06:47:17Z</time>
      </trkpt>
      <trkpt lat="42.62653" lon="1.94406">
        <ele>1965.07</ele>
        <time>2015-10-11T06:47:19Z</time>
      </trkpt>
      <trkpt lat="42.62654" lon="1.94406">
        <ele>1965.55</ele>
        <time>2015-10-11T06:47:20Z</time>
      </trkpt>
      <trkpt lat="42.62658" lon="1.94409">
        <ele>1967.48</ele>
        <time>2015-10-11T06:47:53Z</time>
      </trkpt>
      <trkpt lat="42.62658" lon="1.94408">
        <ele>1966.99</ele>
        <time>2015-10-11T06:48:00Z</time>
      </trkpt>
      <trkpt lat="42.62657" lon="1.94409">
        <ele>1966.03</ele>
        <time>2015-10-11T06:48:05Z</time>
      </trkpt>
      <trkpt lat="42.62658" lon="1.94408">
        <ele>1969.4</ele>
        <time>2015-10-11T06:48:17Z</time>
      </trkpt>
      <trkpt lat="42.62658" lon="1.94409">
        <ele>1964.11</ele>
        <time>2015-10-11T06:48:32Z</time>
      </trkpt>
      <trkpt lat="42.62658" lon="1.94409">
        <ele>1968.44</ele>
        <time>2015-10-11T06:48:33Z</time>
      </trkpt>
      <trkpt lat="42.62659" lon="1.9441">
        <ele>1966.99</ele>
        <time>2015-10-11T06:48:36Z</time>
      </trkpt>
      <trkpt lat="42.62657" lon="1.94411">
        <ele>1965.55</ele>
        <time>2015-10-11T06:48:42Z</time>
      </trkpt>
      <trkpt lat="42.62659" lon="1.94416">
        <ele>1963.63</ele>
        <time>2015-10-11T06:48:48Z</time>
      </trkpt>
      <trkpt lat="42.6266" lon="1.94416">
        <ele>1967.48</ele>
        <time>2015-10-11T06:48:49Z</time>
      </trkpt>
      <trkpt lat="42.6266" lon="1.94416">
        <ele>1967.48</ele>
        <time>2015-10-11T06:48:50Z</time>
      </trkpt>
      <trkpt lat="42.62661" lon="1.94412">
        <ele>1966.51</ele>
        <time>2015-10-11T06:49:26Z</time>
      </trkpt>
      <trkpt lat="42.62661" lon="1.94412">
        <ele>1970.36</ele>
        <time>2015-10-11T06:49:42Z</time>
      </trkpt>
      <trkpt lat="42.62661" lon="1.94412">
        <ele>1964.59</ele>
        <time>2015-10-11T06:49:43Z</time>
      </trkpt>
      <trkpt lat="42.62661" lon="1.94412">
        <ele>1967.48</ele>
        <time>2015-10-11T06:49:44Z</time>
      </trkpt>
      <trkpt lat="42.62661" lon="1.94412">
        <ele>1969.4</ele>
        <time>2015-10-11T06:49:46Z</time>
      </trkpt>
      <trkpt lat="42.62661" lon="1.94412">
        <ele>1964.59</ele>
        <time>2015-10-11T06:49:47Z</time>
      </trkpt>
      <trkpt lat="42.62661" lon="1.94412">
        <ele>1965.07</ele>
        <time>2015-10-11T06:49:48Z</time>
      </trkpt>
      <trkpt lat="42.62661" lon="1.94412">
        <ele>1968.44</ele>
        <time>2015-10-11T06:49:50Z</time>
      </trkpt>
    </trkseg>
  </trk>
  <trk>
    <name><![CDATA[ACTIVE LOG: 11 OCT 2015 06:49]]></name>
    <trkseg>
      <trkpt lat="42.62661" lon="1.94412">
        <ele>1967.48</ele>
        <time>2015-10-11T06:49:52Z</time>
      </trkpt>
      <trkpt lat="42.62661" lon="1.94413">
        <ele>1966.03</ele>
        <time>2015-10-11T06:49:55Z</time>
      </trkpt>
      <trkpt lat="42.62661" lon="1.94413">
        <ele>1970.36</ele>
        <time>2015-10-11T06:50:00Z</time>
      </trkpt>
      <trkpt lat="42.62661" lon="1.94413">
        <ele>1966.03</ele>
        <time>2015-10-11T06:50:01Z</time>
      </trkpt>
      <trkpt lat="42.62661" lon="1.94414">
        <ele>1966.51</ele>
        <time>2015-10-11T06:50:05Z</time>
      </trkpt>
      <trkpt lat="42.62663" lon="1.94418">
        <ele>1966.03</ele>
        <time>2015-10-11T06:50:10Z</time>
      </trkpt>
      <trkpt lat="42.62664" lon="1.94421">
        <ele>1970.84</ele>
        <time>2015-10-11T06:50:12Z</time>
      </trkpt>
      <trkpt lat="42.62664" lon="1.94422">
        <ele>1968.92</ele>
        <time>2015-10-11T06:50:13Z</time>
      </trkpt>
      <trkpt lat="42.62665" lon="1.94424">
        <ele>1966.99</ele>
        <time>2015-10-11T06:50:15Z</time>
      </trkpt>
      <trkpt lat="42.62667" lon="1.94425">
        <ele>1963.63</ele>
        <time>2015-10-11T06:50:18Z</time>
      </trkpt>
      <trkpt lat="42.62668" lon="1.94426">
        <ele>1965.07</ele>
        <time>2015-10-11T06:50:19Z</time>
      </trkpt>
      <trkpt lat="42.62671" lon="1.94442">
        <ele>1964.11</ele>
        <time>2015-10-11T06:50:30Z</time>
      </trkpt>
      <trkpt lat="42.62672" lon="1.94446">
        <ele>1965.07</ele>
        <time>2015-10-11T06:50:33Z</time>
      </trkpt>
      <trkpt lat="42.62672" lon="1.94448">
        <ele>1965.55</ele>
        <time>2015-10-11T06:50:34Z</time>
      </trkpt>
      <trkpt lat="42.62667" lon="1.94458">
        <ele>1966.03</ele>
        <time>2015-10-11T06:50:49Z</time>
      </trkpt>
      <trkpt lat="42.62666" lon="1.9446">
        <ele>1967.48</ele>
        <time>2015-10-11T06:50:52Z</time>
      </trkpt>
      <trkpt lat="42.62664" lon="1.94462">
        <ele>1968.44</ele>
        <time>2015-10-11T06:50:54Z</time>
      </trkpt>
      <trkpt lat="42.62661" lon="1.94466">
        <ele>1966.03</ele>
        <time>2015-10-11T06:50:58Z</time>
      </trkpt>
      <trkpt lat="42.62661" lon="1.94469">
        <ele>1969.4</ele>
        <time>2015-10-11T06:51:00Z</time>
      </trkpt>
      <trkpt lat="42.62661" lon="1.9447">
        <ele>1964.11</ele>
        <time>2015-10-11T06:51:01Z</time>
      </trkpt>
      <trkpt lat="42.62661" lon="1.94472">
        <ele>1967.48</ele>
        <time>2015-10-11T06:51:03Z</time>
      </trkpt>
      <trkpt lat="42.62662" lon="1.94475">
        <ele>1965.55</ele>
        <time>2015-10-11T06:51:06Z</time>
      </trkpt>
      <trkpt lat="42.62665" lon="1.94496">
        <ele>1965.55</ele>
        <time>2015-10-11T06:51:21Z</time>
      </trkpt>
      <trkpt lat="42.62665" lon="1.94497">
        <ele>1966.03</ele>
        <time>2015-10-11T06:51:22Z</time>
      </trkpt>
      <trkpt lat="42.62668" lon="1.94505">
        <ele>1966.51</ele>
        <time>2015-10-11T06:51:28Z</time>
      </trkpt>
      <trkpt lat="42.62672" lon="1.94511">
        <ele>1963.63</ele>
        <time>2015-10-11T06:51:33Z</time>
      </trkpt>
      <trkpt lat="42.62675" lon="1.94517">
        <ele>1964.59</ele>
        <time>2015-10-11T06:51:41Z</time>
      </trkpt>
      <trkpt lat="42.62676" lon="1.94519">
        <ele>1966.03</ele>
        <time>2015-10-11T06:51:43Z</time>
      </trkpt>
      <trkpt lat="42.62677" lon="1.94521">
        <ele>1962.19</ele>
        <time>2015-10-11T06:51:45Z</time>
      </trkpt>
      <trkpt lat="42.62694" lon="1.94529">
        <ele>1957.38</ele>
        <time>2015-10-11T06:51:59Z</time>
      </trkpt>
      <trkpt lat="42.62695" lon="1.9453">
        <ele>1959.78</ele>
        <time>2015-10-11T06:52:00Z</time>
      </trkpt>
      <trkpt lat="42.62695" lon="1.94548">
        <ele>1964.59</ele>
        <time>2015-10-11T06:52:11Z</time>
      </trkpt>
      <trkpt lat="42.62685" lon="1.94556">
        <ele>1965.55</ele>
        <time>2015-10-11T06:52:20Z</time>
      </trkpt>
      <trkpt lat="42.62684" lon="1.94556">
        <ele>1964.59</ele>
        <time>2015-10-11T06:52:21Z</time>
      </trkpt>
      <trkpt lat="42.6268" lon="1.94558">
        <ele>1966.99</ele>
        <time>2015-10-11T06:52:28Z</time>
      </trkpt>
      <trkpt lat="42.62678" lon="1.94558">
        <ele>1966.51</ele>
        <time>2015-10-11T06:52:30Z</time>
      </trkpt>
      <trkpt lat="42.62676" lon="1.94567">
        <ele>1967.48</ele>
        <time>2015-10-11T06:52:41Z</time>
      </trkpt>
      <trkpt lat="42.62676" lon="1.94576">
        <ele>1967.96</ele>
        <time>2015-10-11T06:52:50Z</time>
      </trkpt>
      <trkpt lat="42.62679" lon="1.94584">
        <ele>1967.48</ele>
        <time>2015-10-11T06:52:57Z</time>
      </trkpt>
      <trkpt lat="42.62678" lon="1.94593">
        <ele>1963.63</ele>
        <time>2015-10-11T06:53:04Z</time>
      </trkpt>
      <trkpt lat="42.62677" lon="1.946">
        <ele>1966.99</ele>
        <time>2015-10-11T06:53:08Z</time>
      </trkpt>
      <trkpt lat="42.62677" lon="1.94607">
        <ele>1964.59</ele>
        <time>2015-10-11T06:53:12Z</time>
      </trkpt>
      <trkpt lat="42.62676" lon="1.94615">
        <ele>1965.07</ele>
        <time>2015-10-11T06:53:17Z</time>
      </trkpt>
      <trkpt lat="42.62678" lon="1.94621">
        <ele>1966.51</ele>
        <time>2015-10-11T06:53:21Z</time>
      </trkpt>
      <trkpt lat="42.62679" lon="1.94624">
        <ele>1964.11</ele>
        <time>2015-10-11T06:53:23Z</time>
      </trkpt>
      <trkpt lat="42.62688" lon="1.94639">
        <ele>1962.67</ele>
        <time>2015-10-11T06:53:38Z</time>
      </trkpt>
      <trkpt lat="42.62694" lon="1.94642">
        <ele>1959.78</ele>
        <time>2015-10-11T06:53:44Z</time>
      </trkpt>
      <trkpt lat="42.62696" lon="1.94645">
        <ele>1962.19</ele>
        <time>2015-10-11T06:53:46Z</time>
      </trkpt>
      <trkpt lat="42.62697" lon="1.94658">
        <ele>1958.34</ele>
        <time>2015-10-11T06:53:56Z</time>
      </trkpt>
      <trkpt lat="42.62699" lon="1.94662">
        <ele>1959.78</ele>
        <time>2015-10-11T06:54:00Z</time>
      </trkpt>
      <trkpt lat="42.62701" lon="1.94677">
        <ele>1961.23</ele>
        <time>2015-10-11T06:54:12Z</time>
      </trkpt>
      <trkpt lat="42.62703" lon="1.94685">
        <ele>1958.34</ele>
        <time>2015-10-11T06:54:17Z</time>
      </trkpt>
      <trkpt lat="42.62704" lon="1.94687">
        <ele>1960.27</ele>
        <time>2015-10-11T06:54:19Z</time>
      </trkpt>
      <trkpt lat="42.62707" lon="1.94696">
        <ele>1956.42</ele>
        <time>2015-10-11T06:54:27Z</time>
      </trkpt>
      <trkpt lat="42.62707" lon="1.94697">
        <ele>1959.78</ele>
        <time>2015-10-11T06:54:28Z</time>
      </trkpt>
      <trkpt lat="42.62708" lon="1.94703">
        <ele>1956.42</ele>
        <time>2015-10-11T06:54:33Z</time>
      </trkpt>
      <trkpt lat="42.62708" lon="1.94706">
        <ele>1957.86</ele>
        <time>2015-10-11T06:54:36Z</time>
      </trkpt>
      <trkpt lat="42.62708" lon="1.94708">
        <ele>1955.94</ele>
        <time>2015-10-11T06:54:38Z</time>
      </trkpt>
      <trkpt lat="42.62708" lon="1.9471">
        <ele>1959.3</ele>
        <time>2015-10-11T06:54:39Z</time>
      </trkpt>
      <trkpt lat="42.62707" lon="1.94712">
        <ele>1955.94</ele>
        <time>2015-10-11T06:54:49Z</time>
      </trkpt>
      <trkpt lat="42.62707" lon="1.94712">
        <ele>1958.34</ele>
        <time>2015-10-11T06:54:50Z</time>
      </trkpt>
      <trkpt lat="42.62707" lon="1.94712">
        <ele>1960.27</ele>
        <time>2015-10-11T06:54:52Z</time>
      </trkpt>
      <trkpt lat="42.62707" lon="1.94711">
        <ele>1956.9</ele>
        <time>2015-10-11T06:54:54Z</time>
      </trkpt>
      <trkpt lat="42.62707" lon="1.9471">
        <ele>1961.71</ele>
        <time>2015-10-11T06:54:58Z</time>
      </trkpt>
      <trkpt lat="42.62707" lon="1.9471">
        <ele>1957.38</ele>
        <time>2015-10-11T06:54:59Z</time>
      </trkpt>
      <trkpt lat="42.62708" lon="1.94711">
        <ele>1957.38</ele>
        <time>2015-10-11T06:55:09Z</time>
      </trkpt>
      <trkpt lat="42.6271" lon="1.94711">
        <ele>1958.34</ele>
        <time>2015-10-11T06:55:11Z</time>
      </trkpt>
      <trkpt lat="42.62711" lon="1.94712">
        <ele>1959.3</ele>
        <time>2015-10-11T06:55:16Z</time>
      </trkpt>
      <trkpt lat="42.62712" lon="1.94718">
        <ele>1957.86</ele>
        <time>2015-10-11T06:55:26Z</time>
      </trkpt>
      <trkpt lat="42.62713" lon="1.9472">
        <ele>1960.27</ele>
        <time>2015-10-11T06:55:28Z</time>
      </trkpt>
      <trkpt lat="42.62721" lon="1.94737">
        <ele>1963.15</ele>
        <time>2015-10-11T06:55:40Z</time>
      </trkpt>
      <trkpt lat="42.62723" lon="1.94743">
        <ele>1959.78</ele>
        <time>2015-10-11T06:55:47Z</time>
      </trkpt>
      <trkpt lat="42.62723" lon="1.94745">
        <ele>1960.27</ele>
        <time>2015-10-11T06:55:48Z</time>
      </trkpt>
      <trkpt lat="42.62724" lon="1.94746">
        <ele>1963.15</ele>
        <time>2015-10-11T06:55:49Z</time>
      </trkpt>
      <trkpt lat="42.62727" lon="1.94758">
        <ele>1959.78</ele>
        <time>2015-10-11T06:55:59Z</time>
      </trkpt>
      <trkpt lat="42.62725" lon="1.94759">
        <ele>1963.63</ele>
        <time>2015-10-11T06:56:01Z</time>
      </trkpt>
      <trkpt lat="42.62727" lon="1.94766">
        <ele>1967.48</ele>
        <time>2015-10-11T06:56:15Z</time>
      </trkpt>
      <trkpt lat="42.62728" lon="1.94766">
        <ele>1966.03</ele>
        <time>2015-10-11T06:56:16Z</time>
      </trkpt>
      <trkpt lat="42.62728" lon="1.94767">
        <ele>1962.67</ele>
        <time>2015-10-11T06:56:17Z</time>
      </trkpt>
      <trkpt lat="42.62728" lon="1.94768">
        <ele>1965.07</ele>
        <time>2015-10-11T06:56:18Z</time>
      </trkpt>
      <trkpt lat="42.6273" lon="1.9477">
        <ele>1966.03</ele>
        <time>2015-10-11T06:56:21Z</time>
      </trkpt>
      <trkpt lat="42.62731" lon="1.94771">
        <ele>1968.44</ele>
        <time>2015-10-11T06:56:23Z</time>
      </trkpt>
      <trkpt lat="42.62733" lon="1.94771">
        <ele>1966.99</ele>
        <time>2015-10-11T06:56:25Z</time>
      </trkpt>
      <trkpt lat="42.62735" lon="1.94772">
        <ele>1968.44</ele>
        <time>2015-10-11T06:56:27Z</time>
      </trkpt>
      <trkpt lat="42.62742" lon="1.94775">
        <ele>1969.4</ele>
        <time>2015-10-11T06:56:41Z</time>
      </trkpt>
      <trkpt lat="42.62746" lon="1.94777">
        <ele>1972.76</ele>
        <time>2015-10-11T06:56:49Z</time>
      </trkpt>
      <trkpt lat="42.62755" lon="1.94788">
        <ele>1973.24</ele>
        <time>2015-10-11T06:57:06Z</time>
      </trkpt>
      <trkpt lat="42.62757" lon="1.94795">
        <ele>1975.17</ele>
        <time>2015-10-11T06:57:22Z</time>
      </trkpt>
      <trkpt lat="42.62757" lon="1.94795">
        <ele>1974.2</ele>
        <time>2015-10-11T06:57:24Z</time>
      </trkpt>
      <trkpt lat="42.62757" lon="1.94794">
        <ele>1970.84</ele>
        <time>2015-10-11T06:57:32Z</time>
      </trkpt>
      <trkpt lat="42.62756" lon="1.94793">
        <ele>1974.69</ele>
        <time>2015-10-11T06:57:35Z</time>
      </trkpt>
      <trkpt lat="42.62756" lon="1.94794">
        <ele>1974.2</ele>
        <time>2015-10-11T06:57:36Z</time>
      </trkpt>
      <trkpt lat="42.62756" lon="1.94793">
        <ele>1972.28</ele>
        <time>2015-10-11T06:57:47Z</time>
      </trkpt>
      <trkpt lat="42.62756" lon="1.94797">
        <ele>1973.72</ele>
        <time>2015-10-11T06:57:51Z</time>
      </trkpt>
      <trkpt lat="42.62757" lon="1.94806">
        <ele>1973.72</ele>
        <time>2015-10-11T06:58:02Z</time>
      </trkpt>
      <trkpt lat="42.62759" lon="1.94813">
        <ele>1973.24</ele>
        <time>2015-10-11T06:58:07Z</time>
      </trkpt>
      <trkpt lat="42.62763" lon="1.9483">
        <ele>1973.72</ele>
        <time>2015-10-11T06:58:18Z</time>
      </trkpt>
      <trkpt lat="42.62772" lon="1.9485">
        <ele>1973.24</ele>
        <time>2015-10-11T06:58:33Z</time>
      </trkpt>
      <trkpt lat="42.62777" lon="1.94875">
        <ele>1972.76</ele>
        <time>2015-10-11T06:58:51Z</time>
      </trkpt>
      <trkpt lat="42.62778" lon="1.94882">
        <ele>1975.17</ele>
        <time>2015-10-11T06:58:55Z</time>
      </trkpt>
      <trkpt lat="42.62778" lon="1.94885">
        <ele>1971.8</ele>
        <time>2015-10-11T06:58:57Z</time>
      </trkpt>
      <trkpt lat="42.62778" lon="1.94886">
        <ele>1975.17</ele>
        <time>2015-10-11T06:58:58Z</time>
      </trkpt>
      <trkpt lat="42.62781" lon="1.94903">
        <ele>1975.17</ele>
        <time>2015-10-11T06:59:10Z</time>
      </trkpt>
      <trkpt lat="42.62787" lon="1.94928">
        <ele>1973.72</ele>
        <time>2015-10-11T06:59:28Z</time>
      </trkpt>
      <trkpt lat="42.62796" lon="1.94952">
        <ele>1975.17</ele>
        <time>2015-10-11T06:59:46Z</time>
      </trkpt>
      <trkpt lat="42.62797" lon="1.94966">
        <ele>1975.65</ele>
        <time>2015-10-11T06:59:55Z</time>
      </trkpt>
      <trkpt lat="42.62799" lon="1.9499">
        <ele>1974.69</ele>
        <time>2015-10-11T07:00:13Z</time>
      </trkpt>
      <trkpt lat="42.62798" lon="1.94993">
        <ele>1977.09</ele>
        <time>2015-10-11T07:00:25Z</time>
      </trkpt>
      <trkpt lat="42.62798" lon="1.94993">
        <ele>1975.65</ele>
        <time>2015-10-11T07:00:27Z</time>
      </trkpt>
      <trkpt lat="42.62798" lon="1.94993">
        <ele>1977.09</ele>
        <time>2015-10-11T07:00:31Z</time>
      </trkpt>
      <trkpt lat="42.62798" lon="1.94992">
        <ele>1975.65</ele>
        <time>2015-10-11T07:00:34Z</time>
      </trkpt>
      <trkpt lat="42.62799" lon="1.94992">
        <ele>1978.53</ele>
        <time>2015-10-11T07:00:37Z</time>
      </trkpt>
      <trkpt lat="42.628" lon="1.94992">
        <ele>1975.17</ele>
        <time>2015-10-11T07:00:41Z</time>
      </trkpt>
      <trkpt lat="42.62801" lon="1.94992">
        <ele>1975.17</ele>
        <time>2015-10-11T07:01:07Z</time>
      </trkpt>
      <trkpt lat="42.62801" lon="1.94992">
        <ele>1977.09</ele>
        <time>2015-10-11T07:01:09Z</time>
      </trkpt>
      <trkpt lat="42.62801" lon="1.94992">
        <ele>1978.05</ele>
        <time>2015-10-11T07:01:11Z</time>
      </trkpt>
      <trkpt lat="42.62801" lon="1.94992">
        <ele>1976.61</ele>
        <time>2015-10-11T07:01:14Z</time>
      </trkpt>
      <trkpt lat="42.62803" lon="1.94998">
        <ele>1976.61</ele>
        <time>2015-10-11T07:01:30Z</time>
      </trkpt>
      <trkpt lat="42.62808" lon="1.95014">
        <ele>1974.69</ele>
        <time>2015-10-11T07:01:51Z</time>
      </trkpt>
      <trkpt lat="42.62812" lon="1.95023">
        <ele>1971.8</ele>
        <time>2015-10-11T07:02:06Z</time>
      </trkpt>
      <trkpt lat="42.62815" lon="1.95025">
        <ele>1971.32</ele>
        <time>2015-10-11T07:02:11Z</time>
      </trkpt>
      <trkpt lat="42.6282" lon="1.95023">
        <ele>1970.36</ele>
        <time>2015-10-11T07:02:18Z</time>
      </trkpt>
      <trkpt lat="42.62819" lon="1.95015">
        <ele>1970.84</ele>
        <time>2015-10-11T07:02:25Z</time>
      </trkpt>
      <trkpt lat="42.62821" lon="1.95015">
        <ele>1970.36</ele>
        <time>2015-10-11T07:02:32Z</time>
      </trkpt>
      <trkpt lat="42.62825" lon="1.95017">
        <ele>1967.96</ele>
        <time>2015-10-11T07:02:43Z</time>
      </trkpt>
      <trkpt lat="42.6283" lon="1.95025">
        <ele>1965.55</ele>
        <time>2015-10-11T07:02:59Z</time>
      </trkpt>
      <trkpt lat="42.62839" lon="1.95031">
        <ele>1964.59</ele>
        <time>2015-10-11T07:03:19Z</time>
      </trkpt>
      <trkpt lat="42.6284" lon="1.95032">
        <ele>1961.23</ele>
        <time>2015-10-11T07:03:21Z</time>
      </trkpt>
      <trkpt lat="42.6284" lon="1.95033">
        <ele>1961.71</ele>
        <time>2015-10-11T07:03:22Z</time>
      </trkpt>
      <trkpt lat="42.62841" lon="1.95036">
        <ele>1963.63</ele>
        <time>2015-10-11T07:03:25Z</time>
      </trkpt>
      <trkpt lat="42.62847" lon="1.95045">
        <ele>1960.75</ele>
        <time>2015-10-11T07:03:40Z</time>
      </trkpt>
      <trkpt lat="42.62851" lon="1.95046">
        <ele>1960.75</ele>
        <time>2015-10-11T07:03:46Z</time>
      </trkpt>
      <trkpt lat="42.62861" lon="1.9506">
        <ele>1961.23</ele>
        <time>2015-10-11T07:04:06Z</time>
      </trkpt>
      <trkpt lat="42.6287" lon="1.95069">
        <ele>1961.71</ele>
        <time>2015-10-11T07:04:16Z</time>
      </trkpt>
      <trkpt lat="42.6288" lon="1.9507">
        <ele>1961.23</ele>
        <time>2015-10-11T07:04:31Z</time>
      </trkpt>
      <trkpt lat="42.62891" lon="1.95071">
        <ele>1957.86</ele>
        <time>2015-10-11T07:04:41Z</time>
      </trkpt>
      <trkpt lat="42.62906" lon="1.95073">
        <ele>1959.3</ele>
        <time>2015-10-11T07:04:58Z</time>
      </trkpt>
      <trkpt lat="42.62918" lon="1.95074">
        <ele>1955.46</ele>
        <time>2015-10-11T07:05:13Z</time>
      </trkpt>
      <trkpt lat="42.62929" lon="1.95076">
        <ele>1955.46</ele>
        <time>2015-10-11T07:05:29Z</time>
      </trkpt>
      <trkpt lat="42.62931" lon="1.95075">
        <ele>1952.09</ele>
        <time>2015-10-11T07:05:31Z</time>
      </trkpt>
      <trkpt lat="42.62932" lon="1.95074">
        <ele>1952.57</ele>
        <time>2015-10-11T07:05:32Z</time>
      </trkpt>
      <trkpt lat="42.62943" lon="1.95076">
        <ele>1950.17</ele>
        <time>2015-10-11T07:05:45Z</time>
      </trkpt>
      <trkpt lat="42.62956" lon="1.95077">
        <ele>1949.21</ele>
        <time>2015-10-11T07:05:58Z</time>
      </trkpt>
      <trkpt lat="42.62959" lon="1.95082">
        <ele>1949.69</ele>
        <time>2015-10-11T07:06:05Z</time>
      </trkpt>
      <trkpt lat="42.62963" lon="1.95087">
        <ele>1949.69</ele>
        <time>2015-10-11T07:06:12Z</time>
      </trkpt>
      <trkpt lat="42.6297" lon="1.9509">
        <ele>1946.81</ele>
        <time>2015-10-11T07:06:25Z</time>
      </trkpt>
      <trkpt lat="42.6298" lon="1.95084">
        <ele>1945.36</ele>
        <time>2015-10-11T07:06:44Z</time>
      </trkpt>
      <trkpt lat="42.62978" lon="1.95078">
        <ele>1943.92</ele>
        <time>2015-10-11T07:06:57Z</time>
      </trkpt>
      <trkpt lat="42.62986" lon="1.95079">
        <ele>1940.56</ele>
        <time>2015-10-11T07:07:10Z</time>
      </trkpt>
      <trkpt lat="42.62986" lon="1.95079">
        <ele>1940.56</ele>
        <time>2015-10-11T07:07:11Z</time>
      </trkpt>
      <trkpt lat="42.62993" lon="1.95081">
        <ele>1939.12</ele>
        <time>2015-10-11T07:07:26Z</time>
      </trkpt>
      <trkpt lat="42.62998" lon="1.9508">
        <ele>1935.27</ele>
        <time>2015-10-11T07:07:35Z</time>
      </trkpt>
      <trkpt lat="42.63007" lon="1.95087">
        <ele>1933.35</ele>
        <time>2015-10-11T07:07:49Z</time>
      </trkpt>
      <trkpt lat="42.63011" lon="1.95092">
        <ele>1930.95</ele>
        <time>2015-10-11T07:07:58Z</time>
      </trkpt>
      <trkpt lat="42.63018" lon="1.95101">
        <ele>1930.95</ele>
        <time>2015-10-11T07:08:15Z</time>
      </trkpt>
      <trkpt lat="42.63023" lon="1.95106">
        <ele>1929.02</ele>
        <time>2015-10-11T07:08:25Z</time>
      </trkpt>
      <trkpt lat="42.63034" lon="1.95115">
        <ele>1927.1</ele>
        <time>2015-10-11T07:08:45Z</time>
      </trkpt>
      <trkpt lat="42.63035" lon="1.95116">
        <ele>1926.14</ele>
        <time>2015-10-11T07:08:48Z</time>
      </trkpt>
      <trkpt lat="42.63041" lon="1.95124">
        <ele>1925.66</ele>
        <time>2015-10-11T07:08:56Z</time>
      </trkpt>
      <trkpt lat="42.63054" lon="1.95127">
        <ele>1921.33</ele>
        <time>2015-10-11T07:09:12Z</time>
      </trkpt>
      <trkpt lat="42.63063" lon="1.95129">
        <ele>1920.37</ele>
        <time>2015-10-11T07:09:31Z</time>
      </trkpt>
      <trkpt lat="42.63066" lon="1.95133">
        <ele>1917.49</ele>
        <time>2015-10-11T07:09:44Z</time>
      </trkpt>
      <trkpt lat="42.63071" lon="1.95134">
        <ele>1916.04</ele>
        <time>2015-10-11T07:09:52Z</time>
      </trkpt>
      <trkpt lat="42.63079" lon="1.95136">
        <ele>1915.08</ele>
        <time>2015-10-11T07:10:01Z</time>
      </trkpt>
      <trkpt lat="42.63081" lon="1.95136">
        <ele>1913.64</ele>
        <time>2015-10-11T07:10:04Z</time>
      </trkpt>
      <trkpt lat="42.63086" lon="1.9514">
        <ele>1913.16</ele>
        <time>2015-10-11T07:10:17Z</time>
      </trkpt>
      <trkpt lat="42.63087" lon="1.9514">
        <ele>1911.24</ele>
        <time>2015-10-11T07:10:19Z</time>
      </trkpt>
      <trkpt lat="42.63094" lon="1.95144">
        <ele>1909.8</ele>
        <time>2015-10-11T07:10:30Z</time>
      </trkpt>
      <trkpt lat="42.63102" lon="1.95148">
        <ele>1909.32</ele>
        <time>2015-10-11T07:10:43Z</time>
      </trkpt>
      <trkpt lat="42.63109" lon="1.95153">
        <ele>1908.35</ele>
        <time>2015-10-11T07:10:56Z</time>
      </trkpt>
      <trkpt lat="42.63117" lon="1.95157">
        <ele>1905.47</ele>
        <time>2015-10-11T07:11:09Z</time>
      </trkpt>
      <trkpt lat="42.63123" lon="1.95159">
        <ele>1904.03</ele>
        <time>2015-10-11T07:11:20Z</time>
      </trkpt>
      <trkpt lat="42.63124" lon="1.95159">
        <ele>1905.47</ele>
        <time>2015-10-11T07:11:22Z</time>
      </trkpt>
      <trkpt lat="42.63126" lon="1.95159">
        <ele>1904.03</ele>
        <time>2015-10-11T07:11:24Z</time>
      </trkpt>
      <trkpt lat="42.63132" lon="1.9516">
        <ele>1901.63</ele>
        <time>2015-10-11T07:11:37Z</time>
      </trkpt>
      <trkpt lat="42.63133" lon="1.95158">
        <ele>1902.11</ele>
        <time>2015-10-11T07:11:49Z</time>
      </trkpt>
      <trkpt lat="42.63136" lon="1.95161">
        <ele>1900.18</ele>
        <time>2015-10-11T07:12:09Z</time>
      </trkpt>
      <trkpt lat="42.63138" lon="1.95162">
        <ele>1900.66</ele>
        <time>2015-10-11T07:12:26Z</time>
      </trkpt>
      <trkpt lat="42.63137" lon="1.95162">
        <ele>1897.3</ele>
        <time>2015-10-11T07:12:29Z</time>
      </trkpt>
      <trkpt lat="42.63144" lon="1.9516">
        <ele>1897.3</ele>
        <time>2015-10-11T07:12:43Z</time>
      </trkpt>
      <trkpt lat="42.63142" lon="1.9516">
        <ele>1897.3</ele>
        <time>2015-10-11T07:13:08Z</time>
      </trkpt>
      <trkpt lat="42.63149" lon="1.95163">
        <ele>1894.9</ele>
        <time>2015-10-11T07:13:22Z</time>
      </trkpt>
      <trkpt lat="42.63153" lon="1.95165">
        <ele>1892.97</ele>
        <time>2015-10-11T07:14:10Z</time>
      </trkpt>
      <trkpt lat="42.63159" lon="1.95168">
        <ele>1891.53</ele>
        <time>2015-10-11T07:14:29Z</time>
      </trkpt>
      <trkpt lat="42.63164" lon="1.95169">
        <ele>1891.05</ele>
        <time>2015-10-11T07:14:53Z</time>
      </trkpt>
      <trkpt lat="42.63164" lon="1.9517">
        <ele>1887.69</ele>
        <time>2015-10-11T07:15:17Z</time>
      </trkpt>
      <trkpt lat="42.63167" lon="1.95176">
        <ele>1887.69</ele>
        <time>2015-10-11T07:15:31Z</time>
      </trkpt>
      <trkpt lat="42.63175" lon="1.95176">
        <ele>1885.28</ele>
        <time>2015-10-11T07:15:42Z</time>
      </trkpt>
      <trkpt lat="42.63182" lon="1.95177">
        <ele>1883.36</ele>
        <time>2015-10-11T07:16:01Z</time>
      </trkpt>
      <trkpt lat="42.63189" lon="1.95176">
        <ele>1881.92</ele>
        <time>2015-10-11T07:16:16Z</time>
      </trkpt>
      <trkpt lat="42.63193" lon="1.95176">
        <ele>1880.96</ele>
        <time>2015-10-11T07:16:24Z</time>
      </trkpt>
      <trkpt lat="42.63194" lon="1.95177">
        <ele>1879.51</ele>
        <time>2015-10-11T07:16:26Z</time>
      </trkpt>
      <trkpt lat="42.63197" lon="1.95181">
        <ele>1877.59</ele>
        <time>2015-10-11T07:16:38Z</time>
      </trkpt>
      <trkpt lat="42.63197" lon="1.95182">
        <ele>1878.07</ele>
        <time>2015-10-11T07:16:55Z</time>
      </trkpt>
      <trkpt lat="42.63198" lon="1.95182">
        <ele>1878.07</ele>
        <time>2015-10-11T07:17:00Z</time>
      </trkpt>
      <trkpt lat="42.63204" lon="1.9518">
        <ele>1875.19</ele>
        <time>2015-10-11T07:17:11Z</time>
      </trkpt>
      <trkpt lat="42.6321" lon="1.95185">
        <ele>1872.3</ele>
        <time>2015-10-11T07:17:25Z</time>
      </trkpt>
      <trkpt lat="42.63217" lon="1.95183">
        <ele>1870.38</ele>
        <time>2015-10-11T07:17:41Z</time>
      </trkpt>
      <trkpt lat="42.63223" lon="1.95185">
        <ele>1869.42</ele>
        <time>2015-10-11T07:17:55Z</time>
      </trkpt>
      <trkpt lat="42.63223" lon="1.95189">
        <ele>1868.46</ele>
        <time>2015-10-11T07:18:09Z</time>
      </trkpt>
      <trkpt lat="42.63232" lon="1.95193">
        <ele>1866.54</ele>
        <time>2015-10-11T07:18:25Z</time>
      </trkpt>
      <trkpt lat="42.63239" lon="1.95195">
        <ele>1865.09</ele>
        <time>2015-10-11T07:18:40Z</time>
      </trkpt>
      <trkpt lat="42.6324" lon="1.95196">
        <ele>1864.13</ele>
        <time>2015-10-11T07:18:54Z</time>
      </trkpt>
      <trkpt lat="42.63243" lon="1.95196">
        <ele>1862.21</ele>
        <time>2015-10-11T07:19:08Z</time>
      </trkpt>
      <trkpt lat="42.63247" lon="1.95196">
        <ele>1860.29</ele>
        <time>2015-10-11T07:19:24Z</time>
      </trkpt>
      <trkpt lat="42.6325" lon="1.95194">
        <ele>1860.29</ele>
        <time>2015-10-11T07:19:42Z</time>
      </trkpt>
      <trkpt lat="42.63256" lon="1.95195">
        <ele>1858.85</ele>
        <time>2015-10-11T07:20:04Z</time>
      </trkpt>
      <trkpt lat="42.63257" lon="1.95193">
        <ele>1857.4</ele>
        <time>2015-10-11T07:20:16Z</time>
      </trkpt>
      <trkpt lat="42.63267" lon="1.95195">
        <ele>1855.96</ele>
        <time>2015-10-11T07:20:35Z</time>
      </trkpt>
      <trkpt lat="42.6327" lon="1.95195">
        <ele>1854.52</ele>
        <time>2015-10-11T07:20:40Z</time>
      </trkpt>
      <trkpt lat="42.63278" lon="1.95193">
        <ele>1853.56</ele>
        <time>2015-10-11T07:21:09Z</time>
      </trkpt>
      <trkpt lat="42.63276" lon="1.95193">
        <ele>1852.6</ele>
        <time>2015-10-11T07:21:22Z</time>
      </trkpt>
      <trkpt lat="42.63279" lon="1.95191">
        <ele>1852.6</ele>
        <time>2015-10-11T07:22:04Z</time>
      </trkpt>
      <trkpt lat="42.6328" lon="1.95193">
        <ele>1851.16</ele>
        <time>2015-10-11T07:22:34Z</time>
      </trkpt>
      <trkpt lat="42.6328" lon="1.95191">
        <ele>1851.16</ele>
        <time>2015-10-11T07:23:27Z</time>
      </trkpt>
      <trkpt lat="42.63287" lon="1.95191">
        <ele>1847.31</ele>
        <time>2015-10-11T07:23:49Z</time>
      </trkpt>
      <trkpt lat="42.63292" lon="1.95192">
        <ele>1846.83</ele>
        <time>2015-10-11T07:23:56Z</time>
      </trkpt>
      <trkpt lat="42.63297" lon="1.95195">
        <ele>1845.87</ele>
        <time>2015-10-11T07:24:02Z</time>
      </trkpt>
      <trkpt lat="42.633" lon="1.95196">
        <ele>1844.43</ele>
        <time>2015-10-11T07:24:16Z</time>
      </trkpt>
      <trkpt lat="42.63311" lon="1.95203">
        <ele>1841.54</ele>
        <time>2015-10-11T07:24:32Z</time>
      </trkpt>
      <trkpt lat="42.63319" lon="1.95202">
        <ele>1839.14</ele>
        <time>2015-10-11T07:24:47Z</time>
      </trkpt>
      <trkpt lat="42.63328" lon="1.95202">
        <ele>1834.81</ele>
        <time>2015-10-11T07:24:59Z</time>
      </trkpt>
      <trkpt lat="42.63328" lon="1.95201">
        <ele>1836.74</ele>
        <time>2015-10-11T07:25:00Z</time>
      </trkpt>
      <trkpt lat="42.63337" lon="1.95203">
        <ele>1832.89</ele>
        <time>2015-10-11T07:25:12Z</time>
      </trkpt>
      <trkpt lat="42.63337" lon="1.95202">
        <ele>1833.37</ele>
        <time>2015-10-11T07:25:13Z</time>
      </trkpt>
      <trkpt lat="42.63333" lon="1.9519">
        <ele>1830.01</ele>
        <time>2015-10-11T07:25:27Z</time>
      </trkpt>
      <trkpt lat="42.63329" lon="1.95182">
        <ele>1829.05</ele>
        <time>2015-10-11T07:25:40Z</time>
      </trkpt>
      <trkpt lat="42.63325" lon="1.95177">
        <ele>1827.6</ele>
        <time>2015-10-11T07:25:45Z</time>
      </trkpt>
      <trkpt lat="42.63316" lon="1.95163">
        <ele>1827.6</ele>
        <time>2015-10-11T07:25:58Z</time>
      </trkpt>
      <trkpt lat="42.63316" lon="1.95162">
        <ele>1826.16</ele>
        <time>2015-10-11T07:26:00Z</time>
      </trkpt>
      <trkpt lat="42.63316" lon="1.95156">
        <ele>1825.2</ele>
        <time>2015-10-11T07:26:13Z</time>
      </trkpt>
      <trkpt lat="42.63317" lon="1.9515">
        <ele>1823.76</ele>
        <time>2015-10-11T07:26:25Z</time>
      </trkpt>
      <trkpt lat="42.63316" lon="1.95149">
        <ele>1823.28</ele>
        <time>2015-10-11T07:26:26Z</time>
      </trkpt>
      <trkpt lat="42.63316" lon="1.95145">
        <ele>1822.8</ele>
        <time>2015-10-11T07:26:40Z</time>
      </trkpt>
      <trkpt lat="42.63316" lon="1.95145">
        <ele>1820.87</ele>
        <time>2015-10-11T07:26:43Z</time>
      </trkpt>
      <trkpt lat="42.63319" lon="1.95142">
        <ele>1821.35</ele>
        <time>2015-10-11T07:26:53Z</time>
      </trkpt>
      <trkpt lat="42.6332" lon="1.9514">
        <ele>1819.43</ele>
        <time>2015-10-11T07:26:56Z</time>
      </trkpt>
      <trkpt lat="42.63322" lon="1.9514">
        <ele>1817.51</ele>
        <time>2015-10-11T07:27:00Z</time>
      </trkpt>
      <trkpt lat="42.63326" lon="1.95143">
        <ele>1816.55</ele>
        <time>2015-10-11T07:27:06Z</time>
      </trkpt>
      <trkpt lat="42.63329" lon="1.95143">
        <ele>1813.18</ele>
        <time>2015-10-11T07:27:12Z</time>
      </trkpt>
      <trkpt lat="42.63329" lon="1.95143">
        <ele>1817.51</ele>
        <time>2015-10-11T07:27:13Z</time>
      </trkpt>
      <trkpt lat="42.63331" lon="1.95144">
        <ele>1814.63</ele>
        <time>2015-10-11T07:27:20Z</time>
      </trkpt>
      <trkpt lat="42.63335" lon="1.95143">
        <ele>1814.15</ele>
        <time>2015-10-11T07:27:29Z</time>
      </trkpt>
      <trkpt lat="42.63335" lon="1.95136">
        <ele>1810.78</ele>
        <time>2015-10-11T07:27:39Z</time>
      </trkpt>
      <trkpt lat="42.63327" lon="1.95123">
        <ele>1807.42</ele>
        <time>2015-10-11T07:27:54Z</time>
      </trkpt>
      <trkpt lat="42.63321" lon="1.95119">
        <ele>1810.3</ele>
        <time>2015-10-11T07:28:03Z</time>
      </trkpt>
      <trkpt lat="42.6332" lon="1.95118">
        <ele>1806.94</ele>
        <time>2015-10-11T07:28:05Z</time>
      </trkpt>
      <trkpt lat="42.63326" lon="1.9512">
        <ele>1804.05</ele>
        <time>2015-10-11T07:28:18Z</time>
      </trkpt>
      <trkpt lat="42.63329" lon="1.95121">
        <ele>1800.69</ele>
        <time>2015-10-11T07:28:26Z</time>
      </trkpt>
      <trkpt lat="42.63332" lon="1.95121">
        <ele>1804.05</ele>
        <time>2015-10-11T07:28:29Z</time>
      </trkpt>
      <trkpt lat="42.63333" lon="1.95122">
        <ele>1801.17</ele>
        <time>2015-10-11T07:28:31Z</time>
      </trkpt>
      <trkpt lat="42.63335" lon="1.95122">
        <ele>1801.17</ele>
        <time>2015-10-11T07:28:35Z</time>
      </trkpt>
      <trkpt lat="42.63342" lon="1.95123">
        <ele>1799.24</ele>
        <time>2015-10-11T07:28:48Z</time>
      </trkpt>
      <trkpt lat="42.63344" lon="1.95124">
        <ele>1797.8</ele>
        <time>2015-10-11T07:28:50Z</time>
      </trkpt>
      <trkpt lat="42.63346" lon="1.95125">
        <ele>1797.32</ele>
        <time>2015-10-11T07:28:54Z</time>
      </trkpt>
      <trkpt lat="42.63348" lon="1.95123">
        <ele>1798.28</ele>
        <time>2015-10-11T07:28:58Z</time>
      </trkpt>
      <trkpt lat="42.63346" lon="1.95118">
        <ele>1794.92</ele>
        <time>2015-10-11T07:29:02Z</time>
      </trkpt>
      <trkpt lat="42.63343" lon="1.9511">
        <ele>1800.21</ele>
        <time>2015-10-11T07:29:08Z</time>
      </trkpt>
      <trkpt lat="42.63342" lon="1.95109">
        <ele>1794.44</ele>
        <time>2015-10-11T07:29:09Z</time>
      </trkpt>
      <trkpt lat="42.63335" lon="1.951">
        <ele>1794.44</ele>
        <time>2015-10-11T07:29:18Z</time>
      </trkpt>
      <trkpt lat="42.6333" lon="1.95094">
        <ele>1791.07</ele>
        <time>2015-10-11T07:29:29Z</time>
      </trkpt>
      <trkpt lat="42.63328" lon="1.95088">
        <ele>1791.55</ele>
        <time>2015-10-11T07:29:39Z</time>
      </trkpt>
      <trkpt lat="42.63329" lon="1.95087">
        <ele>1788.19</ele>
        <time>2015-10-11T07:29:43Z</time>
      </trkpt>
      <trkpt lat="42.63331" lon="1.95086">
        <ele>1786.75</ele>
        <time>2015-10-11T07:29:48Z</time>
      </trkpt>
      <trkpt lat="42.63336" lon="1.95089">
        <ele>1786.75</ele>
        <time>2015-10-11T07:29:55Z</time>
      </trkpt>
      <trkpt lat="42.63341" lon="1.95093">
        <ele>1781.46</ele>
        <time>2015-10-11T07:30:03Z</time>
      </trkpt>
      <trkpt lat="42.63341" lon="1.95093">
        <ele>1784.82</ele>
        <time>2015-10-11T07:30:04Z</time>
      </trkpt>
      <trkpt lat="42.63343" lon="1.95094">
        <ele>1781.46</ele>
        <time>2015-10-11T07:30:06Z</time>
      </trkpt>
      <trkpt lat="42.63344" lon="1.95094">
        <ele>1781.46</ele>
        <time>2015-10-11T07:30:07Z</time>
      </trkpt>
      <trkpt lat="42.63349" lon="1.95094">
        <ele>1780.5</ele>
        <time>2015-10-11T07:30:15Z</time>
      </trkpt>
      <trkpt lat="42.6335" lon="1.95094">
        <ele>1780.02</ele>
        <time>2015-10-11T07:30:16Z</time>
      </trkpt>
      <trkpt lat="42.63354" lon="1.95096">
        <ele>1779.54</ele>
        <time>2015-10-11T07:30:20Z</time>
      </trkpt>
      <trkpt lat="42.63357" lon="1.95095">
        <ele>1781.46</ele>
        <time>2015-10-11T07:30:24Z</time>
      </trkpt>
      <trkpt lat="42.63356" lon="1.95093">
        <ele>1779.06</ele>
        <time>2015-10-11T07:30:26Z</time>
      </trkpt>
      <trkpt lat="42.63348" lon="1.9508">
        <ele>1780.02</ele>
        <time>2015-10-11T07:30:37Z</time>
      </trkpt>
      <trkpt lat="42.63347" lon="1.95078">
        <ele>1778.58</ele>
        <time>2015-10-11T07:30:39Z</time>
      </trkpt>
      <trkpt lat="42.63347" lon="1.95071">
        <ele>1775.21</ele>
        <time>2015-10-11T07:30:51Z</time>
      </trkpt>
      <trkpt lat="42.63349" lon="1.95072">
        <ele>1774.73</ele>
        <time>2015-10-11T07:30:56Z</time>
      </trkpt>
      <trkpt lat="42.63351" lon="1.95074">
        <ele>1774.25</ele>
        <time>2015-10-11T07:31:00Z</time>
      </trkpt>
      <trkpt lat="42.63358" lon="1.95078">
        <ele>1772.81</ele>
        <time>2015-10-11T07:31:15Z</time>
      </trkpt>
      <trkpt lat="42.63361" lon="1.9508">
        <ele>1768.96</ele>
        <time>2015-10-11T07:31:19Z</time>
      </trkpt>
      <trkpt lat="42.6337" lon="1.95081">
        <ele>1768.96</ele>
        <time>2015-10-11T07:31:32Z</time>
      </trkpt>
      <trkpt lat="42.63373" lon="1.95079">
        <ele>1767.52</ele>
        <time>2015-10-11T07:31:38Z</time>
      </trkpt>
      <trkpt lat="42.63374" lon="1.95079">
        <ele>1766.08</ele>
        <time>2015-10-11T07:31:40Z</time>
      </trkpt>
      <trkpt lat="42.6338" lon="1.95079">
        <ele>1762.71</ele>
        <time>2015-10-11T07:31:49Z</time>
      </trkpt>
      <trkpt lat="42.63385" lon="1.95076">
        <ele>1763.68</ele>
        <time>2015-10-11T07:32:00Z</time>
      </trkpt>
      <trkpt lat="42.63388" lon="1.95077">
        <ele>1762.71</ele>
        <time>2015-10-11T07:32:07Z</time>
      </trkpt>
      <trkpt lat="42.63389" lon="1.95078">
        <ele>1759.35</ele>
        <time>2015-10-11T07:32:09Z</time>
      </trkpt>
      <trkpt lat="42.63394" lon="1.95079">
        <ele>1757.91</ele>
        <time>2015-10-11T07:32:17Z</time>
      </trkpt>
      <trkpt lat="42.63395" lon="1.95079">
        <ele>1760.79</ele>
        <time>2015-10-11T07:32:18Z</time>
      </trkpt>
      <trkpt lat="42.63396" lon="1.95079">
        <ele>1759.35</ele>
        <time>2015-10-11T07:32:19Z</time>
      </trkpt>
      <trkpt lat="42.634" lon="1.95079">
        <ele>1755.99</ele>
        <time>2015-10-11T07:32:22Z</time>
      </trkpt>
      <trkpt lat="42.63402" lon="1.9508">
        <ele>1756.47</ele>
        <time>2015-10-11T07:32:24Z</time>
      </trkpt>
      <trkpt lat="42.63406" lon="1.9508">
        <ele>1756.47</ele>
        <time>2015-10-11T07:32:28Z</time>
      </trkpt>
      <trkpt lat="42.63406" lon="1.95073">
        <ele>1753.1</ele>
        <time>2015-10-11T07:32:40Z</time>
      </trkpt>
      <trkpt lat="42.63406" lon="1.95072">
        <ele>1753.1</ele>
        <time>2015-10-11T07:32:41Z</time>
      </trkpt>
      <trkpt lat="42.63414" lon="1.95072">
        <ele>1754.06</ele>
        <time>2015-10-11T07:32:53Z</time>
      </trkpt>
      <trkpt lat="42.63415" lon="1.95072">
        <ele>1750.7</ele>
        <time>2015-10-11T07:32:55Z</time>
      </trkpt>
      <trkpt lat="42.63416" lon="1.95071">
        <ele>1751.66</ele>
        <time>2015-10-11T07:32:56Z</time>
      </trkpt>
      <trkpt lat="42.6342" lon="1.9507">
        <ele>1754.54</ele>
        <time>2015-10-11T07:33:03Z</time>
      </trkpt>
      <trkpt lat="42.63421" lon="1.9507">
        <ele>1750.22</ele>
        <time>2015-10-11T07:33:05Z</time>
      </trkpt>
      <trkpt lat="42.63426" lon="1.95071">
        <ele>1751.66</ele>
        <time>2015-10-11T07:33:10Z</time>
      </trkpt>
      <trkpt lat="42.63429" lon="1.95072">
        <ele>1748.29</ele>
        <time>2015-10-11T07:33:19Z</time>
      </trkpt>
      <trkpt lat="42.6343" lon="1.95072">
        <ele>1749.26</ele>
        <time>2015-10-11T07:33:20Z</time>
      </trkpt>
      <trkpt lat="42.63432" lon="1.95071">
        <ele>1746.37</ele>
        <time>2015-10-11T07:33:22Z</time>
      </trkpt>
      <trkpt lat="42.63433" lon="1.95071">
        <ele>1750.22</ele>
        <time>2015-10-11T07:33:24Z</time>
      </trkpt>
      <trkpt lat="42.63434" lon="1.95071">
        <ele>1748.78</ele>
        <time>2015-10-11T07:33:25Z</time>
      </trkpt>
      <trkpt lat="42.63437" lon="1.9507">
        <ele>1745.41</ele>
        <time>2015-10-11T07:33:30Z</time>
      </trkpt>
      <trkpt lat="42.63439" lon="1.95069">
        <ele>1748.78</ele>
        <time>2015-10-11T07:33:35Z</time>
      </trkpt>
      <trkpt lat="42.63439" lon="1.95069">
        <ele>1745.41</ele>
        <time>2015-10-11T07:33:40Z</time>
      </trkpt>
      <trkpt lat="42.63439" lon="1.95069">
        <ele>1741.57</ele>
        <time>2015-10-11T07:33:47Z</time>
      </trkpt>
      <trkpt lat="42.6344" lon="1.95069">
        <ele>1745.89</ele>
        <time>2015-10-11T07:33:48Z</time>
      </trkpt>
      <trkpt lat="42.63448" lon="1.95072">
        <ele>1743.01</ele>
        <time>2015-10-11T07:33:58Z</time>
      </trkpt>
      <trkpt lat="42.63449" lon="1.95072">
        <ele>1742.53</ele>
        <time>2015-10-11T07:33:59Z</time>
      </trkpt>
      <trkpt lat="42.63449" lon="1.95072">
        <ele>1745.89</ele>
        <time>2015-10-11T07:34:01Z</time>
      </trkpt>
      <trkpt lat="42.63451" lon="1.95071">
        <ele>1742.53</ele>
        <time>2015-10-11T07:34:04Z</time>
      </trkpt>
      <trkpt lat="42.63452" lon="1.9507">
        <ele>1742.53</ele>
        <time>2015-10-11T07:34:05Z</time>
      </trkpt>
      <trkpt lat="42.63453" lon="1.9507">
        <ele>1741.57</ele>
        <time>2015-10-11T07:34:06Z</time>
      </trkpt>
      <trkpt lat="42.63456" lon="1.95068">
        <ele>1739.64</ele>
        <time>2015-10-11T07:34:10Z</time>
      </trkpt>
      <trkpt lat="42.63457" lon="1.95068">
        <ele>1741.08</ele>
        <time>2015-10-11T07:34:11Z</time>
      </trkpt>
      <trkpt lat="42.63459" lon="1.95068">
        <ele>1743.01</ele>
        <time>2015-10-11T07:34:13Z</time>
      </trkpt>
      <trkpt lat="42.63462" lon="1.95069">
        <ele>1742.05</ele>
        <time>2015-10-11T07:34:15Z</time>
      </trkpt>
      <trkpt lat="42.63464" lon="1.95069">
        <ele>1735.8</ele>
        <time>2015-10-11T07:34:17Z</time>
      </trkpt>
      <trkpt lat="42.63465" lon="1.95069">
        <ele>1741.08</ele>
        <time>2015-10-11T07:34:18Z</time>
      </trkpt>
      <trkpt lat="42.63481" lon="1.95068">
        <ele>1737.72</ele>
        <time>2015-10-11T07:34:32Z</time>
      </trkpt>
      <trkpt lat="42.63482" lon="1.95069">
        <ele>1738.68</ele>
        <time>2015-10-11T07:34:33Z</time>
      </trkpt>
      <trkpt lat="42.63484" lon="1.95075">
        <ele>1740.12</ele>
        <time>2015-10-11T07:34:39Z</time>
      </trkpt>
      <trkpt lat="42.63484" lon="1.95077">
        <ele>1738.68</ele>
        <time>2015-10-11T07:34:41Z</time>
      </trkpt>
      <trkpt lat="42.63486" lon="1.95078">
        <ele>1735.32</ele>
        <time>2015-10-11T07:34:45Z</time>
      </trkpt>
      <trkpt lat="42.63489" lon="1.95079">
        <ele>1734.36</ele>
        <time>2015-10-11T07:34:50Z</time>
      </trkpt>
      <trkpt lat="42.63494" lon="1.95079">
        <ele>1732.43</ele>
        <time>2015-10-11T07:35:04Z</time>
      </trkpt>
      <trkpt lat="42.63496" lon="1.95082">
        <ele>1731.47</ele>
        <time>2015-10-11T07:35:08Z</time>
      </trkpt>
      <trkpt lat="42.63499" lon="1.95086">
        <ele>1728.59</ele>
        <time>2015-10-11T07:35:13Z</time>
      </trkpt>
      <trkpt lat="42.63506" lon="1.95097">
        <ele>1729.07</ele>
        <time>2015-10-11T07:35:26Z</time>
      </trkpt>
      <trkpt lat="42.63507" lon="1.95098">
        <ele>1727.15</ele>
        <time>2015-10-11T07:35:31Z</time>
      </trkpt>
      <trkpt lat="42.63511" lon="1.95096">
        <ele>1723.78</ele>
        <time>2015-10-11T07:35:40Z</time>
      </trkpt>
      <trkpt lat="42.63512" lon="1.95096">
        <ele>1723.78</ele>
        <time>2015-10-11T07:35:41Z</time>
      </trkpt>
      <trkpt lat="42.63513" lon="1.95096">
        <ele>1725.7</ele>
        <time>2015-10-11T07:35:43Z</time>
      </trkpt>
      <trkpt lat="42.63517" lon="1.95093">
        <ele>1725.22</ele>
        <time>2015-10-11T07:35:53Z</time>
      </trkpt>
      <trkpt lat="42.6352" lon="1.95093">
        <ele>1720.9</ele>
        <time>2015-10-11T07:35:56Z</time>
      </trkpt>
      <trkpt lat="42.63521" lon="1.95093">
        <ele>1722.34</ele>
        <time>2015-10-11T07:35:57Z</time>
      </trkpt>
      <trkpt lat="42.63525" lon="1.95095">
        <ele>1725.22</ele>
        <time>2015-10-11T07:36:02Z</time>
      </trkpt>
      <trkpt lat="42.63529" lon="1.95097">
        <ele>1721.38</ele>
        <time>2015-10-11T07:36:07Z</time>
      </trkpt>
      <trkpt lat="42.63537" lon="1.95092">
        <ele>1719.46</ele>
        <time>2015-10-11T07:36:15Z</time>
      </trkpt>
      <trkpt lat="42.63538" lon="1.95091">
        <ele>1719.94</ele>
        <time>2015-10-11T07:36:16Z</time>
      </trkpt>
      <trkpt lat="42.63547" lon="1.95081">
        <ele>1717.05</ele>
        <time>2015-10-11T07:36:26Z</time>
      </trkpt>
      <trkpt lat="42.63551" lon="1.95078">
        <ele>1720.42</ele>
        <time>2015-10-11T07:36:32Z</time>
      </trkpt>
      <trkpt lat="42.63552" lon="1.95076">
        <ele>1718.49</ele>
        <time>2015-10-11T07:36:35Z</time>
      </trkpt>
      <trkpt lat="42.63553" lon="1.95074">
        <ele>1717.05</ele>
        <time>2015-10-11T07:36:38Z</time>
      </trkpt>
      <trkpt lat="42.63554" lon="1.95072">
        <ele>1718.01</ele>
        <time>2015-10-11T07:36:40Z</time>
      </trkpt>
      <trkpt lat="42.63558" lon="1.95074">
        <ele>1714.65</ele>
        <time>2015-10-11T07:36:48Z</time>
      </trkpt>
      <trkpt lat="42.63559" lon="1.95075">
        <ele>1717.53</ele>
        <time>2015-10-11T07:36:50Z</time>
      </trkpt>
      <trkpt lat="42.6356" lon="1.95076">
        <ele>1716.09</ele>
        <time>2015-10-11T07:37:09Z</time>
      </trkpt>
      <trkpt lat="42.6356" lon="1.95076">
        <ele>1715.13</ele>
        <time>2015-10-11T07:37:11Z</time>
      </trkpt>
      <trkpt lat="42.6356" lon="1.95076">
        <ele>1718.01</ele>
        <time>2015-10-11T07:37:13Z</time>
      </trkpt>
      <trkpt lat="42.6356" lon="1.95076">
        <ele>1719.46</ele>
        <time>2015-10-11T07:37:20Z</time>
      </trkpt>
      <trkpt lat="42.6356" lon="1.95076">
        <ele>1716.09</ele>
        <time>2015-10-11T07:37:21Z</time>
      </trkpt>
      <trkpt lat="42.6356" lon="1.95076">
        <ele>1718.01</ele>
        <time>2015-10-11T07:37:22Z</time>
      </trkpt>
      <trkpt lat="42.63559" lon="1.95074">
        <ele>1716.57</ele>
        <time>2015-10-11T07:37:29Z</time>
      </trkpt>
      <trkpt lat="42.63551" lon="1.95065">
        <ele>1719.94</ele>
        <time>2015-10-11T07:37:42Z</time>
      </trkpt>
      <trkpt lat="42.6355" lon="1.95064">
        <ele>1716.09</ele>
        <time>2015-10-11T07:37:43Z</time>
      </trkpt>
      <trkpt lat="42.6355" lon="1.95063">
        <ele>1718.97</ele>
        <time>2015-10-11T07:37:44Z</time>
      </trkpt>
      <trkpt lat="42.63549" lon="1.95061">
        <ele>1715.13</ele>
        <time>2015-10-11T07:37:49Z</time>
      </trkpt>
      <trkpt lat="42.63546" lon="1.95057">
        <ele>1716.09</ele>
        <time>2015-10-11T07:37:58Z</time>
      </trkpt>
      <trkpt lat="42.63546" lon="1.95057">
        <ele>1718.97</ele>
        <time>2015-10-11T07:38:03Z</time>
      </trkpt>
      <trkpt lat="42.63546" lon="1.95057">
        <ele>1715.61</ele>
        <time>2015-10-11T07:38:04Z</time>
      </trkpt>
      <trkpt lat="42.63546" lon="1.95057">
        <ele>1716.09</ele>
        <time>2015-10-11T07:38:11Z</time>
      </trkpt>
      <trkpt lat="42.63546" lon="1.95057">
        <ele>1717.05</ele>
        <time>2015-10-11T07:38:40Z</time>
      </trkpt>
      <trkpt lat="42.63546" lon="1.95057">
        <ele>1717.05</ele>
        <time>2015-10-11T07:39:04Z</time>
      </trkpt>
      <trkpt lat="42.63545" lon="1.95058">
        <ele>1713.21</ele>
        <time>2015-10-11T07:39:53Z</time>
      </trkpt>
      <trkpt lat="42.63545" lon="1.95058">
        <ele>1716.57</ele>
        <time>2015-10-11T07:39:55Z</time>
      </trkpt>
      <trkpt lat="42.63545" lon="1.95059">
        <ele>1715.61</ele>
        <time>2015-10-11T07:40:40Z</time>
      </trkpt>
      <trkpt lat="42.63551" lon="1.95065">
        <ele>1717.53</ele>
        <time>2015-10-11T07:40:53Z</time>
      </trkpt>
      <trkpt lat="42.63551" lon="1.95065">
        <ele>1716.09</ele>
        <time>2015-10-11T07:40:54Z</time>
      </trkpt>
      <trkpt lat="42.63549" lon="1.95073">
        <ele>1717.53</ele>
        <time>2015-10-11T07:41:10Z</time>
      </trkpt>
      <trkpt lat="42.63549" lon="1.95074">
        <ele>1714.65</ele>
        <time>2015-10-11T07:41:13Z</time>
      </trkpt>
      <trkpt lat="42.63551" lon="1.95078">
        <ele>1717.53</ele>
        <time>2015-10-11T07:41:24Z</time>
      </trkpt>
      <trkpt lat="42.63552" lon="1.95078">
        <ele>1717.05</ele>
        <time>2015-10-11T07:41:25Z</time>
      </trkpt>
      <trkpt lat="42.63553" lon="1.95079">
        <ele>1713.21</ele>
        <time>2015-10-11T07:41:26Z</time>
      </trkpt>
      <trkpt lat="42.63553" lon="1.95079">
        <ele>1715.13</ele>
        <time>2015-10-11T07:41:27Z</time>
      </trkpt>
      <trkpt lat="42.63559" lon="1.95078">
        <ele>1713.21</ele>
        <time>2015-10-11T07:41:36Z</time>
      </trkpt>
      <trkpt lat="42.6356" lon="1.95076">
        <ele>1717.05</ele>
        <time>2015-10-11T07:42:06Z</time>
      </trkpt>
      <trkpt lat="42.63561" lon="1.95076">
        <ele>1713.21</ele>
        <time>2015-10-11T07:42:09Z</time>
      </trkpt>
      <trkpt lat="42.63561" lon="1.95076">
        <ele>1716.57</ele>
        <time>2015-10-11T07:42:11Z</time>
      </trkpt>
      <trkpt lat="42.63561" lon="1.95076">
        <ele>1713.69</ele>
        <time>2015-10-11T07:42:19Z</time>
      </trkpt>
      <trkpt lat="42.63561" lon="1.95076">
        <ele>1716.09</ele>
        <time>2015-10-11T07:42:23Z</time>
      </trkpt>
      <trkpt lat="42.63567" lon="1.95079">
        <ele>1715.61</ele>
        <time>2015-10-11T07:42:41Z</time>
      </trkpt>
      <trkpt lat="42.63568" lon="1.95078">
        <ele>1713.69</ele>
        <time>2015-10-11T07:42:43Z</time>
      </trkpt>
      <trkpt lat="42.63573" lon="1.95079">
        <ele>1711.76</ele>
        <time>2015-10-11T07:42:49Z</time>
      </trkpt>
      <trkpt lat="42.63582" lon="1.95087">
        <ele>1710.8</ele>
        <time>2015-10-11T07:43:05Z</time>
      </trkpt>
      <trkpt lat="42.63591" lon="1.95097">
        <ele>1710.32</ele>
        <time>2015-10-11T07:43:19Z</time>
      </trkpt>
      <trkpt lat="42.63593" lon="1.95098">
        <ele>1713.21</ele>
        <time>2015-10-11T07:43:23Z</time>
      </trkpt>
      <trkpt lat="42.63602" lon="1.95105">
        <ele>1713.69</ele>
        <time>2015-10-11T07:43:36Z</time>
      </trkpt>
      <trkpt lat="42.6361" lon="1.95106">
        <ele>1710.32</ele>
        <time>2015-10-11T07:43:48Z</time>
      </trkpt>
      <trkpt lat="42.63619" lon="1.95112">
        <ele>1710.32</ele>
        <time>2015-10-11T07:43:59Z</time>
      </trkpt>
      <trkpt lat="42.63626" lon="1.95119">
        <ele>1710.32</ele>
        <time>2015-10-11T07:44:10Z</time>
      </trkpt>
      <trkpt lat="42.63629" lon="1.95122">
        <ele>1706.48</ele>
        <time>2015-10-11T07:44:18Z</time>
      </trkpt>
      <trkpt lat="42.63634" lon="1.95125">
        <ele>1706.48</ele>
        <time>2015-10-11T07:44:29Z</time>
      </trkpt>
      <trkpt lat="42.63636" lon="1.95129">
        <ele>1707.44</ele>
        <time>2015-10-11T07:44:36Z</time>
      </trkpt>
      <trkpt lat="42.63636" lon="1.9513">
        <ele>1705.52</ele>
        <time>2015-10-11T07:44:37Z</time>
      </trkpt>
      <trkpt lat="42.6364" lon="1.9514">
        <ele>1704.55</ele>
        <time>2015-10-11T07:44:47Z</time>
      </trkpt>
      <trkpt lat="42.63641" lon="1.9514">
        <ele>1706.48</ele>
        <time>2015-10-11T07:44:49Z</time>
      </trkpt>
      <trkpt lat="42.63641" lon="1.9514">
        <ele>1702.63</ele>
        <time>2015-10-11T07:44:50Z</time>
      </trkpt>
      <trkpt lat="42.63642" lon="1.95141">
        <ele>1703.59</ele>
        <time>2015-10-11T07:44:51Z</time>
      </trkpt>
      <trkpt lat="42.63649" lon="1.95138">
        <ele>1701.19</ele>
        <time>2015-10-11T07:45:04Z</time>
      </trkpt>
      <trkpt lat="42.63652" lon="1.95134">
        <ele>1697.83</ele>
        <time>2015-10-11T07:45:16Z</time>
      </trkpt>
      <trkpt lat="42.63655" lon="1.95136">
        <ele>1698.79</ele>
        <time>2015-10-11T07:45:20Z</time>
      </trkpt>
      <trkpt lat="42.63656" lon="1.95137">
        <ele>1696.38</ele>
        <time>2015-10-11T07:45:22Z</time>
      </trkpt>
      <trkpt lat="42.63657" lon="1.95138">
        <ele>1697.34</ele>
        <time>2015-10-11T07:45:24Z</time>
      </trkpt>
      <trkpt lat="42.63656" lon="1.95133">
        <ele>1696.86</ele>
        <time>2015-10-11T07:45:35Z</time>
      </trkpt>
      <trkpt lat="42.63658" lon="1.9513">
        <ele>1696.86</ele>
        <time>2015-10-11T07:45:43Z</time>
      </trkpt>
      <trkpt lat="42.63658" lon="1.9513">
        <ele>1693.5</ele>
        <time>2015-10-11T07:45:44Z</time>
      </trkpt>
      <trkpt lat="42.63656" lon="1.95122">
        <ele>1693.02</ele>
        <time>2015-10-11T07:45:57Z</time>
      </trkpt>
      <trkpt lat="42.63665" lon="1.95125">
        <ele>1693.5</ele>
        <time>2015-10-11T07:46:09Z</time>
      </trkpt>
      <trkpt lat="42.63666" lon="1.95127">
        <ele>1690.14</ele>
        <time>2015-10-11T07:46:11Z</time>
      </trkpt>
      <trkpt lat="42.63666" lon="1.95127">
        <ele>1693.02</ele>
        <time>2015-10-11T07:46:12Z</time>
      </trkpt>
      <trkpt lat="42.63668" lon="1.9513">
        <ele>1689.65</ele>
        <time>2015-10-11T07:46:16Z</time>
      </trkpt>
      <trkpt lat="42.63676" lon="1.95136">
        <ele>1686.29</ele>
        <time>2015-10-11T07:46:32Z</time>
      </trkpt>
      <trkpt lat="42.63683" lon="1.95136">
        <ele>1682.93</ele>
        <time>2015-10-11T07:46:43Z</time>
      </trkpt>
      <trkpt lat="42.63683" lon="1.95137">
        <ele>1683.41</ele>
        <time>2015-10-11T07:46:44Z</time>
      </trkpt>
      <trkpt lat="42.63686" lon="1.95138">
        <ele>1684.85</ele>
        <time>2015-10-11T07:46:48Z</time>
      </trkpt>
      <trkpt lat="42.63689" lon="1.95138">
        <ele>1683.41</ele>
        <time>2015-10-11T07:46:51Z</time>
      </trkpt>
      <trkpt lat="42.63691" lon="1.95138">
        <ele>1681.48</ele>
        <time>2015-10-11T07:46:54Z</time>
      </trkpt>
      <trkpt lat="42.63693" lon="1.95139">
        <ele>1682.44</ele>
        <time>2015-10-11T07:46:56Z</time>
      </trkpt>
      <trkpt lat="42.63693" lon="1.95139">
        <ele>1679.08</ele>
        <time>2015-10-11T07:46:57Z</time>
      </trkpt>
      <trkpt lat="42.63694" lon="1.9514">
        <ele>1682.44</ele>
        <time>2015-10-11T07:46:58Z</time>
      </trkpt>
      <trkpt lat="42.63695" lon="1.95141">
        <ele>1678.6</ele>
        <time>2015-10-11T07:47:01Z</time>
      </trkpt>
      <trkpt lat="42.63696" lon="1.95141">
        <ele>1681.96</ele>
        <time>2015-10-11T07:47:02Z</time>
      </trkpt>
      <trkpt lat="42.63698" lon="1.95143">
        <ele>1678.6</ele>
        <time>2015-10-11T07:47:08Z</time>
      </trkpt>
      <trkpt lat="42.63702" lon="1.95145">
        <ele>1678.6</ele>
        <time>2015-10-11T07:47:18Z</time>
      </trkpt>
      <trkpt lat="42.63703" lon="1.95146">
        <ele>1676.2</ele>
        <time>2015-10-11T07:47:20Z</time>
      </trkpt>
      <trkpt lat="42.63708" lon="1.95144">
        <ele>1675.23</ele>
        <time>2015-10-11T07:47:36Z</time>
      </trkpt>
      <trkpt lat="42.63714" lon="1.95143">
        <ele>1671.39</ele>
        <time>2015-10-11T07:47:49Z</time>
      </trkpt>
      <trkpt lat="42.63714" lon="1.95143">
        <ele>1673.79</ele>
        <time>2015-10-11T07:47:50Z</time>
      </trkpt>
      <trkpt lat="42.63717" lon="1.95144">
        <ele>1673.79</ele>
        <time>2015-10-11T07:47:54Z</time>
      </trkpt>
      <trkpt lat="42.6372" lon="1.95146">
        <ele>1670.91</ele>
        <time>2015-10-11T07:47:59Z</time>
      </trkpt>
      <trkpt lat="42.63721" lon="1.95146">
        <ele>1674.27</ele>
        <time>2015-10-11T07:48:02Z</time>
      </trkpt>
      <trkpt lat="42.63723" lon="1.95146">
        <ele>1669.95</ele>
        <time>2015-10-11T07:48:04Z</time>
      </trkpt>
      <trkpt lat="42.63724" lon="1.95146">
        <ele>1670.91</ele>
        <time>2015-10-11T07:48:05Z</time>
      </trkpt>
      <trkpt lat="42.63731" lon="1.95148">
        <ele>1667.54</ele>
        <time>2015-10-11T07:48:16Z</time>
      </trkpt>
      <trkpt lat="42.63733" lon="1.95151">
        <ele>1667.06</ele>
        <time>2015-10-11T07:48:23Z</time>
      </trkpt>
      <trkpt lat="42.63739" lon="1.95157">
        <ele>1665.14</ele>
        <time>2015-10-11T07:48:36Z</time>
      </trkpt>
      <trkpt lat="42.63744" lon="1.95158">
        <ele>1663.22</ele>
        <time>2015-10-11T07:48:43Z</time>
      </trkpt>
      <trkpt lat="42.63738" lon="1.9514">
        <ele>1660.33</ele>
        <time>2015-10-11T07:48:55Z</time>
      </trkpt>
      <trkpt lat="42.63734" lon="1.95129">
        <ele>1661.3</ele>
        <time>2015-10-11T07:49:06Z</time>
      </trkpt>
      <trkpt lat="42.63733" lon="1.95126">
        <ele>1659.85</ele>
        <time>2015-10-11T07:49:09Z</time>
      </trkpt>
      <trkpt lat="42.6373" lon="1.95119">
        <ele>1656.01</ele>
        <time>2015-10-11T07:49:16Z</time>
      </trkpt>
      <trkpt lat="42.63729" lon="1.95118">
        <ele>1658.41</ele>
        <time>2015-10-11T07:49:17Z</time>
      </trkpt>
      <trkpt lat="42.63727" lon="1.95112">
        <ele>1655.05</ele>
        <time>2015-10-11T07:49:25Z</time>
      </trkpt>
      <trkpt lat="42.63729" lon="1.95112">
        <ele>1657.93</ele>
        <time>2015-10-11T07:49:30Z</time>
      </trkpt>
      <trkpt lat="42.63733" lon="1.95114">
        <ele>1655.05</ele>
        <time>2015-10-11T07:49:37Z</time>
      </trkpt>
      <trkpt lat="42.63734" lon="1.95115">
        <ele>1653.12</ele>
        <time>2015-10-11T07:49:41Z</time>
      </trkpt>
      <trkpt lat="42.63735" lon="1.95115">
        <ele>1654.09</ele>
        <time>2015-10-11T07:49:43Z</time>
      </trkpt>
      <trkpt lat="42.63738" lon="1.95118">
        <ele>1651.2</ele>
        <time>2015-10-11T07:49:51Z</time>
      </trkpt>
      <trkpt lat="42.63738" lon="1.95119">
        <ele>1652.64</ele>
        <time>2015-10-11T07:49:55Z</time>
      </trkpt>
      <trkpt lat="42.63741" lon="1.95115">
        <ele>1650.72</ele>
        <time>2015-10-11T07:50:00Z</time>
      </trkpt>
      <trkpt lat="42.63741" lon="1.95114">
        <ele>1654.09</ele>
        <time>2015-10-11T07:50:03Z</time>
      </trkpt>
      <trkpt lat="42.63741" lon="1.95114">
        <ele>1649.76</ele>
        <time>2015-10-11T07:50:06Z</time>
      </trkpt>
      <trkpt lat="42.63741" lon="1.95114">
        <ele>1650.72</ele>
        <time>2015-10-11T07:50:07Z</time>
      </trkpt>
      <trkpt lat="42.63741" lon="1.95115">
        <ele>1651.68</ele>
        <time>2015-10-11T07:50:09Z</time>
      </trkpt>
      <trkpt lat="42.63741" lon="1.95116">
        <ele>1647.84</ele>
        <time>2015-10-11T07:50:12Z</time>
      </trkpt>
      <trkpt lat="42.63741" lon="1.95116">
        <ele>1651.2</ele>
        <time>2015-10-11T07:50:13Z</time>
      </trkpt>
      <trkpt lat="42.63741" lon="1.95116">
        <ele>1655.53</ele>
        <time>2015-10-11T07:50:15Z</time>
      </trkpt>
      <trkpt lat="42.63741" lon="1.95116">
        <ele>1648.8</ele>
        <time>2015-10-11T07:50:16Z</time>
      </trkpt>
      <trkpt lat="42.63741" lon="1.95117">
        <ele>1652.64</ele>
        <time>2015-10-11T07:50:17Z</time>
      </trkpt>
      <trkpt lat="42.63741" lon="1.95117">
        <ele>1649.28</ele>
        <time>2015-10-11T07:50:21Z</time>
      </trkpt>
      <trkpt lat="42.63741" lon="1.95118">
        <ele>1649.28</ele>
        <time>2015-10-11T07:50:22Z</time>
      </trkpt>
      <trkpt lat="42.63742" lon="1.9512">
        <ele>1652.64</ele>
        <time>2015-10-11T07:50:26Z</time>
      </trkpt>
      <trkpt lat="42.63743" lon="1.9512">
        <ele>1648.32</ele>
        <time>2015-10-11T07:50:27Z</time>
      </trkpt>
      <trkpt lat="42.63746" lon="1.95123">
        <ele>1647.84</ele>
        <time>2015-10-11T07:50:36Z</time>
      </trkpt>
      <trkpt lat="42.63749" lon="1.9512">
        <ele>1647.36</ele>
        <time>2015-10-11T07:50:42Z</time>
      </trkpt>
      <trkpt lat="42.63755" lon="1.9512">
        <ele>1643.03</ele>
        <time>2015-10-11T07:50:49Z</time>
      </trkpt>
      <trkpt lat="42.63755" lon="1.95121">
        <ele>1646.4</ele>
        <time>2015-10-11T07:50:50Z</time>
      </trkpt>
      <trkpt lat="42.6376" lon="1.95122">
        <ele>1642.55</ele>
        <time>2015-10-11T07:51:03Z</time>
      </trkpt>
      <trkpt lat="42.63769" lon="1.95126">
        <ele>1637.74</ele>
        <time>2015-10-11T07:51:15Z</time>
      </trkpt>
      <trkpt lat="42.63773" lon="1.95127">
        <ele>1642.07</ele>
        <time>2015-10-11T07:51:20Z</time>
      </trkpt>
      <trkpt lat="42.63774" lon="1.95128">
        <ele>1638.7</ele>
        <time>2015-10-11T07:51:22Z</time>
      </trkpt>
      <trkpt lat="42.63781" lon="1.95137">
        <ele>1635.82</ele>
        <time>2015-10-11T07:51:36Z</time>
      </trkpt>
      <trkpt lat="42.63787" lon="1.95139">
        <ele>1633.42</ele>
        <time>2015-10-11T07:51:47Z</time>
      </trkpt>
      <trkpt lat="42.63788" lon="1.95139">
        <ele>1636.3</ele>
        <time>2015-10-11T07:51:48Z</time>
      </trkpt>
      <trkpt lat="42.63793" lon="1.95139">
        <ele>1631.49</ele>
        <time>2015-10-11T07:51:57Z</time>
      </trkpt>
      <trkpt lat="42.63794" lon="1.95139">
        <ele>1631.98</ele>
        <time>2015-10-11T07:51:58Z</time>
      </trkpt>
      <trkpt lat="42.63796" lon="1.95139">
        <ele>1635.34</ele>
        <time>2015-10-11T07:52:02Z</time>
      </trkpt>
      <trkpt lat="42.63796" lon="1.95139">
        <ele>1631.98</ele>
        <time>2015-10-11T07:52:04Z</time>
      </trkpt>
      <trkpt lat="42.63797" lon="1.95139">
        <ele>1631.98</ele>
        <time>2015-10-11T07:52:05Z</time>
      </trkpt>
      <trkpt lat="42.638" lon="1.95139">
        <ele>1633.9</ele>
        <time>2015-10-11T07:52:09Z</time>
      </trkpt>
      <trkpt lat="42.63802" lon="1.95139">
        <ele>1630.53</ele>
        <time>2015-10-11T07:52:12Z</time>
      </trkpt>
      <trkpt lat="42.63806" lon="1.95142">
        <ele>1627.17</ele>
        <time>2015-10-11T07:52:18Z</time>
      </trkpt>
      <trkpt lat="42.63807" lon="1.95142">
        <ele>1630.53</ele>
        <time>2015-10-11T07:52:19Z</time>
      </trkpt>
      <trkpt lat="42.63806" lon="1.95141">
        <ele>1627.65</ele>
        <time>2015-10-11T07:52:28Z</time>
      </trkpt>
      <trkpt lat="42.63806" lon="1.95141">
        <ele>1631.01</ele>
        <time>2015-10-11T07:52:34Z</time>
      </trkpt>
      <trkpt lat="42.63807" lon="1.95141">
        <ele>1630.05</ele>
        <time>2015-10-11T07:52:38Z</time>
      </trkpt>
      <trkpt lat="42.63807" lon="1.95141">
        <ele>1628.61</ele>
        <time>2015-10-11T07:52:39Z</time>
      </trkpt>
      <trkpt lat="42.63811" lon="1.95137">
        <ele>1631.98</ele>
        <time>2015-10-11T07:52:44Z</time>
      </trkpt>
      <trkpt lat="42.63811" lon="1.95137">
        <ele>1628.61</ele>
        <time>2015-10-11T07:52:45Z</time>
      </trkpt>
      <trkpt lat="42.63816" lon="1.95135">
        <ele>1629.57</ele>
        <time>2015-10-11T07:52:50Z</time>
      </trkpt>
      <trkpt lat="42.63823" lon="1.95133">
        <ele>1625.73</ele>
        <time>2015-10-11T07:52:57Z</time>
      </trkpt>
      <trkpt lat="42.63828" lon="1.95126">
        <ele>1622.84</ele>
        <time>2015-10-11T07:53:06Z</time>
      </trkpt>
      <trkpt lat="42.6384" lon="1.95125">
        <ele>1618.52</ele>
        <time>2015-10-11T07:53:17Z</time>
      </trkpt>
      <trkpt lat="42.63841" lon="1.95125">
        <ele>1623.32</ele>
        <time>2015-10-11T07:53:18Z</time>
      </trkpt>
      <trkpt lat="42.6385" lon="1.95131">
        <ele>1621.4</ele>
        <time>2015-10-11T07:53:30Z</time>
      </trkpt>
      <trkpt lat="42.63859" lon="1.95133">
        <ele>1620.44</ele>
        <time>2015-10-11T07:53:40Z</time>
      </trkpt>
      <trkpt lat="42.6386" lon="1.95135">
        <ele>1620.92</ele>
        <time>2015-10-11T07:53:43Z</time>
      </trkpt>
      <trkpt lat="42.63863" lon="1.95138">
        <ele>1619</ele>
        <time>2015-10-11T07:53:47Z</time>
      </trkpt>
      <trkpt lat="42.63865" lon="1.95139">
        <ele>1618.52</ele>
        <time>2015-10-11T07:53:51Z</time>
      </trkpt>
      <trkpt lat="42.63866" lon="1.9514">
        <ele>1619.48</ele>
        <time>2015-10-11T07:53:53Z</time>
      </trkpt>
      <trkpt lat="42.63871" lon="1.95147">
        <ele>1619</ele>
        <time>2015-10-11T07:54:01Z</time>
      </trkpt>
      <trkpt lat="42.63873" lon="1.95151">
        <ele>1619</ele>
        <time>2015-10-11T07:54:05Z</time>
      </trkpt>
      <trkpt lat="42.63878" lon="1.95167">
        <ele>1618.52</ele>
        <time>2015-10-11T07:54:17Z</time>
      </trkpt>
      <trkpt lat="42.63879" lon="1.95168">
        <ele>1614.67</ele>
        <time>2015-10-11T07:54:18Z</time>
      </trkpt>
      <trkpt lat="42.6388" lon="1.95168">
        <ele>1619.96</ele>
        <time>2015-10-11T07:54:19Z</time>
      </trkpt>
      <trkpt lat="42.63887" lon="1.95171">
        <ele>1615.63</ele>
        <time>2015-10-11T07:54:25Z</time>
      </trkpt>
      <trkpt lat="42.6389" lon="1.95174">
        <ele>1619.48</ele>
        <time>2015-10-11T07:54:29Z</time>
      </trkpt>
      <trkpt lat="42.63891" lon="1.95175">
        <ele>1614.19</ele>
        <time>2015-10-11T07:54:31Z</time>
      </trkpt>
      <trkpt lat="42.63891" lon="1.95176">
        <ele>1614.19</ele>
        <time>2015-10-11T07:54:32Z</time>
      </trkpt>
      <trkpt lat="42.63893" lon="1.9518">
        <ele>1614.67</ele>
        <time>2015-10-11T07:54:44Z</time>
      </trkpt>
      <trkpt lat="42.63894" lon="1.95181">
        <ele>1616.11</ele>
        <time>2015-10-11T07:54:47Z</time>
      </trkpt>
      <trkpt lat="42.63895" lon="1.95181">
        <ele>1613.23</ele>
        <time>2015-10-11T07:54:48Z</time>
      </trkpt>
      <trkpt lat="42.63896" lon="1.95182">
        <ele>1615.63</ele>
        <time>2015-10-11T07:54:49Z</time>
      </trkpt>
      <trkpt lat="42.639" lon="1.95186">
        <ele>1617.07</ele>
        <time>2015-10-11T07:54:58Z</time>
      </trkpt>
      <trkpt lat="42.639" lon="1.95186">
        <ele>1612.75</ele>
        <time>2015-10-11T07:54:59Z</time>
      </trkpt>
      <trkpt lat="42.63904" lon="1.9519">
        <ele>1616.11</ele>
        <time>2015-10-11T07:55:07Z</time>
      </trkpt>
      <trkpt lat="42.63906" lon="1.95191">
        <ele>1613.23</ele>
        <time>2015-10-11T07:55:09Z</time>
      </trkpt>
      <trkpt lat="42.63913" lon="1.95192">
        <ele>1611.31</ele>
        <time>2015-10-11T07:55:16Z</time>
      </trkpt>
      <trkpt lat="42.63916" lon="1.95193">
        <ele>1614.19</ele>
        <time>2015-10-11T07:55:22Z</time>
      </trkpt>
      <trkpt lat="42.63916" lon="1.95193">
        <ele>1612.75</ele>
        <time>2015-10-11T07:55:24Z</time>
      </trkpt>
      <trkpt lat="42.63918" lon="1.95195">
        <ele>1610.35</ele>
        <time>2015-10-11T07:55:37Z</time>
      </trkpt>
      <trkpt lat="42.63918" lon="1.95195">
        <ele>1611.31</ele>
        <time>2015-10-11T07:55:38Z</time>
      </trkpt>
      <trkpt lat="42.6392" lon="1.952">
        <ele>1609.38</ele>
        <time>2015-10-11T07:55:45Z</time>
      </trkpt>
      <trkpt lat="42.63923" lon="1.95203">
        <ele>1611.31</ele>
        <time>2015-10-11T07:55:50Z</time>
      </trkpt>
      <trkpt lat="42.63928" lon="1.95203">
        <ele>1611.79</ele>
        <time>2015-10-11T07:55:58Z</time>
      </trkpt>
      <trkpt lat="42.63928" lon="1.95203">
        <ele>1609.38</ele>
        <time>2015-10-11T07:56:05Z</time>
      </trkpt>
      <trkpt lat="42.6393" lon="1.95206">
        <ele>1608.9</ele>
        <time>2015-10-11T07:56:14Z</time>
      </trkpt>
      <trkpt lat="42.63931" lon="1.95209">
        <ele>1611.79</ele>
        <time>2015-10-11T07:56:19Z</time>
      </trkpt>
      <trkpt lat="42.63932" lon="1.9521">
        <ele>1608.42</ele>
        <time>2015-10-11T07:56:20Z</time>
      </trkpt>
      <trkpt lat="42.63932" lon="1.95212">
        <ele>1613.23</ele>
        <time>2015-10-11T07:56:23Z</time>
      </trkpt>
      <trkpt lat="42.63932" lon="1.95212">
        <ele>1608.9</ele>
        <time>2015-10-11T07:56:24Z</time>
      </trkpt>
      <trkpt lat="42.63932" lon="1.95213">
        <ele>1612.27</ele>
        <time>2015-10-11T07:56:29Z</time>
      </trkpt>
      <trkpt lat="42.63932" lon="1.95213">
        <ele>1607.46</ele>
        <time>2015-10-11T07:56:32Z</time>
      </trkpt>
      <trkpt lat="42.63934" lon="1.95214">
        <ele>1606.5</ele>
        <time>2015-10-11T07:56:43Z</time>
      </trkpt>
      <trkpt lat="42.63938" lon="1.95225">
        <ele>1606.5</ele>
        <time>2015-10-11T07:56:59Z</time>
      </trkpt>
      <trkpt lat="42.63939" lon="1.95228">
        <ele>1605.06</ele>
        <time>2015-10-11T07:57:04Z</time>
      </trkpt>
      <trkpt lat="42.6394" lon="1.95229">
        <ele>1601.69</ele>
        <time>2015-10-11T07:57:07Z</time>
      </trkpt>
      <trkpt lat="42.6394" lon="1.9523">
        <ele>1605.54</ele>
        <time>2015-10-11T07:57:08Z</time>
      </trkpt>
      <trkpt lat="42.63941" lon="1.95232">
        <ele>1601.69</ele>
        <time>2015-10-11T07:57:14Z</time>
      </trkpt>
      <trkpt lat="42.63943" lon="1.95236">
        <ele>1605.06</ele>
        <time>2015-10-11T07:57:22Z</time>
      </trkpt>
      <trkpt lat="42.63943" lon="1.95236">
        <ele>1601.69</ele>
        <time>2015-10-11T07:57:23Z</time>
      </trkpt>
      <trkpt lat="42.63945" lon="1.95241">
        <ele>1599.77</ele>
        <time>2015-10-11T07:57:33Z</time>
      </trkpt>
      <trkpt lat="42.63947" lon="1.95242">
        <ele>1596.41</ele>
        <time>2015-10-11T07:57:38Z</time>
      </trkpt>
      <trkpt lat="42.63947" lon="1.95243">
        <ele>1600.73</ele>
        <time>2015-10-11T07:57:39Z</time>
      </trkpt>
      <trkpt lat="42.6395" lon="1.95247">
        <ele>1597.37</ele>
        <time>2015-10-11T07:57:48Z</time>
      </trkpt>
      <trkpt lat="42.63951" lon="1.95253">
        <ele>1596.89</ele>
        <time>2015-10-11T07:57:57Z</time>
      </trkpt>
      <trkpt lat="42.63955" lon="1.95261">
        <ele>1593.04</ele>
        <time>2015-10-11T07:58:11Z</time>
      </trkpt>
      <trkpt lat="42.63956" lon="1.95265">
        <ele>1593.52</ele>
        <time>2015-10-11T07:58:19Z</time>
      </trkpt>
      <trkpt lat="42.63957" lon="1.95269">
        <ele>1590.64</ele>
        <time>2015-10-11T07:58:25Z</time>
      </trkpt>
      <trkpt lat="42.63957" lon="1.95269">
        <ele>1591.6</ele>
        <time>2015-10-11T07:58:26Z</time>
      </trkpt>
      <trkpt lat="42.63957" lon="1.9527">
        <ele>1593.04</ele>
        <time>2015-10-11T07:58:28Z</time>
      </trkpt>
      <trkpt lat="42.63958" lon="1.9527">
        <ele>1589.68</ele>
        <time>2015-10-11T07:58:29Z</time>
      </trkpt>
      <trkpt lat="42.63958" lon="1.9527">
        <ele>1591.12</ele>
        <time>2015-10-11T07:58:30Z</time>
      </trkpt>
      <trkpt lat="42.63958" lon="1.95269">
        <ele>1592.56</ele>
        <time>2015-10-11T07:58:32Z</time>
      </trkpt>
      <trkpt lat="42.63958" lon="1.95269">
        <ele>1590.64</ele>
        <time>2015-10-11T07:58:35Z</time>
      </trkpt>
      <trkpt lat="42.63957" lon="1.95269">
        <ele>1592.08</ele>
        <time>2015-10-11T07:58:38Z</time>
      </trkpt>
      <trkpt lat="42.63957" lon="1.95274">
        <ele>1593.04</ele>
        <time>2015-10-11T07:59:03Z</time>
      </trkpt>
      <trkpt lat="42.63957" lon="1.95274">
        <ele>1589.2</ele>
        <time>2015-10-11T07:59:04Z</time>
      </trkpt>
      <trkpt lat="42.63957" lon="1.95275">
        <ele>1590.64</ele>
        <time>2015-10-11T07:59:05Z</time>
      </trkpt>
      <trkpt lat="42.63958" lon="1.9528">
        <ele>1591.6</ele>
        <time>2015-10-11T07:59:10Z</time>
      </trkpt>
      <trkpt lat="42.63958" lon="1.95283">
        <ele>1588.72</ele>
        <time>2015-10-11T07:59:12Z</time>
      </trkpt>
      <trkpt lat="42.63961" lon="1.95287">
        <ele>1586.79</ele>
        <time>2015-10-11T07:59:19Z</time>
      </trkpt>
      <trkpt lat="42.63961" lon="1.95288">
        <ele>1588.24</ele>
        <time>2015-10-11T07:59:21Z</time>
      </trkpt>
      <trkpt lat="42.63963" lon="1.9529">
        <ele>1583.91</ele>
        <time>2015-10-11T07:59:25Z</time>
      </trkpt>
      <trkpt lat="42.63964" lon="1.95293">
        <ele>1589.2</ele>
        <time>2015-10-11T07:59:29Z</time>
      </trkpt>
      <trkpt lat="42.63964" lon="1.95295">
        <ele>1586.31</ele>
        <time>2015-10-11T07:59:32Z</time>
      </trkpt>
      <trkpt lat="42.63964" lon="1.95296">
        <ele>1586.31</ele>
        <time>2015-10-11T07:59:33Z</time>
      </trkpt>
      <trkpt lat="42.63966" lon="1.95299">
        <ele>1582.47</ele>
        <time>2015-10-11T07:59:43Z</time>
      </trkpt>
      <trkpt lat="42.63968" lon="1.95298">
        <ele>1585.83</ele>
        <time>2015-10-11T07:59:49Z</time>
      </trkpt>
      <trkpt lat="42.6397" lon="1.95299">
        <ele>1581.51</ele>
        <time>2015-10-11T07:59:54Z</time>
      </trkpt>
      <trkpt lat="42.6397" lon="1.953">
        <ele>1580.54</ele>
        <time>2015-10-11T07:59:56Z</time>
      </trkpt>
      <trkpt lat="42.63971" lon="1.95303">
        <ele>1583.91</ele>
        <time>2015-10-11T08:00:01Z</time>
      </trkpt>
      <trkpt lat="42.63972" lon="1.95305">
        <ele>1579.58</ele>
        <time>2015-10-11T08:00:06Z</time>
      </trkpt>
      <trkpt lat="42.63972" lon="1.95305">
        <ele>1579.1</ele>
        <time>2015-10-11T08:00:07Z</time>
      </trkpt>
      <trkpt lat="42.63973" lon="1.95306">
        <ele>1582.47</ele>
        <time>2015-10-11T08:00:09Z</time>
      </trkpt>
      <trkpt lat="42.63973" lon="1.95304">
        <ele>1579.58</ele>
        <time>2015-10-11T08:00:11Z</time>
      </trkpt>
      <trkpt lat="42.63974" lon="1.95303">
        <ele>1580.06</ele>
        <time>2015-10-11T08:00:12Z</time>
      </trkpt>
      <trkpt lat="42.63977" lon="1.95297">
        <ele>1580.54</ele>
        <time>2015-10-11T08:00:17Z</time>
      </trkpt>
      <trkpt lat="42.63978" lon="1.95293">
        <ele>1577.66</ele>
        <time>2015-10-11T08:00:20Z</time>
      </trkpt>
      <trkpt lat="42.63981" lon="1.95289">
        <ele>1580.06</ele>
        <time>2015-10-11T08:00:26Z</time>
      </trkpt>
      <trkpt lat="42.63982" lon="1.95285">
        <ele>1576.7</ele>
        <time>2015-10-11T08:00:30Z</time>
      </trkpt>
      <trkpt lat="42.63982" lon="1.95277">
        <ele>1576.7</ele>
        <time>2015-10-11T08:00:42Z</time>
      </trkpt>
      <trkpt lat="42.63977" lon="1.95275">
        <ele>1575.26</ele>
        <time>2015-10-11T08:00:52Z</time>
      </trkpt>
      <trkpt lat="42.63978" lon="1.95274">
        <ele>1574.78</ele>
        <time>2015-10-11T08:01:01Z</time>
      </trkpt>
      <trkpt lat="42.63979" lon="1.95273">
        <ele>1576.7</ele>
        <time>2015-10-11T08:01:04Z</time>
      </trkpt>
      <trkpt lat="42.63979" lon="1.95272">
        <ele>1574.3</ele>
        <time>2015-10-11T08:01:06Z</time>
      </trkpt>
      <trkpt lat="42.63979" lon="1.95271">
        <ele>1572.37</ele>
        <time>2015-10-11T08:01:08Z</time>
      </trkpt>
      <trkpt lat="42.63979" lon="1.9527">
        <ele>1575.26</ele>
        <time>2015-10-11T08:01:09Z</time>
      </trkpt>
      <trkpt lat="42.6398" lon="1.95269">
        <ele>1571.41</ele>
        <time>2015-10-11T08:01:11Z</time>
      </trkpt>
      <trkpt lat="42.63981" lon="1.95267">
        <ele>1575.74</ele>
        <time>2015-10-11T08:01:13Z</time>
      </trkpt>
      <trkpt lat="42.63982" lon="1.95266">
        <ele>1571.41</ele>
        <time>2015-10-11T08:01:14Z</time>
      </trkpt>
      <trkpt lat="42.63985" lon="1.95261">
        <ele>1574.3</ele>
        <time>2015-10-11T08:01:19Z</time>
      </trkpt>
      <trkpt lat="42.63986" lon="1.9526">
        <ele>1569.49</ele>
        <time>2015-10-11T08:01:21Z</time>
      </trkpt>
      <trkpt lat="42.63987" lon="1.95259">
        <ele>1570.93</ele>
        <time>2015-10-11T08:01:22Z</time>
      </trkpt>
      <trkpt lat="42.63989" lon="1.95257">
        <ele>1570.93</ele>
        <time>2015-10-11T08:01:25Z</time>
      </trkpt>
      <trkpt lat="42.63994" lon="1.95249">
        <ele>1569.97</ele>
        <time>2015-10-11T08:01:37Z</time>
      </trkpt>
      <trkpt lat="42.63994" lon="1.95244">
        <ele>1566.61</ele>
        <time>2015-10-11T08:01:44Z</time>
      </trkpt>
      <trkpt lat="42.63994" lon="1.95243">
        <ele>1570.45</ele>
        <time>2015-10-11T08:01:46Z</time>
      </trkpt>
      <trkpt lat="42.63994" lon="1.95243">
        <ele>1567.57</ele>
        <time>2015-10-11T08:01:47Z</time>
      </trkpt>
      <trkpt lat="42.63996" lon="1.95243">
        <ele>1571.41</ele>
        <time>2015-10-11T08:01:53Z</time>
      </trkpt>
      <trkpt lat="42.63995" lon="1.95242">
        <ele>1568.05</ele>
        <time>2015-10-11T08:01:54Z</time>
      </trkpt>
      <trkpt lat="42.63994" lon="1.95242">
        <ele>1571.89</ele>
        <time>2015-10-11T08:01:55Z</time>
      </trkpt>
      <trkpt lat="42.63993" lon="1.95242">
        <ele>1566.61</ele>
        <time>2015-10-11T08:02:01Z</time>
      </trkpt>
      <trkpt lat="42.63995" lon="1.95241">
        <ele>1567.57</ele>
        <time>2015-10-11T08:02:03Z</time>
      </trkpt>
      <trkpt lat="42.63996" lon="1.9524">
        <ele>1565.16</ele>
        <time>2015-10-11T08:02:05Z</time>
      </trkpt>
      <trkpt lat="42.63998" lon="1.95237">
        <ele>1569.49</ele>
        <time>2015-10-11T08:02:08Z</time>
      </trkpt>
      <trkpt lat="42.63998" lon="1.95236">
        <ele>1565.64</ele>
        <time>2015-10-11T08:02:09Z</time>
      </trkpt>
      <trkpt lat="42.64004" lon="1.9523">
        <ele>1566.61</ele>
        <time>2015-10-11T08:02:21Z</time>
      </trkpt>
      <trkpt lat="42.64001" lon="1.9523">
        <ele>1562.76</ele>
        <time>2015-10-11T08:02:31Z</time>
      </trkpt>
      <trkpt lat="42.64" lon="1.95231">
        <ele>1566.12</ele>
        <time>2015-10-11T08:02:33Z</time>
      </trkpt>
      <trkpt lat="42.63999" lon="1.95231">
        <ele>1561.8</ele>
        <time>2015-10-11T08:02:36Z</time>
      </trkpt>
      <trkpt lat="42.63998" lon="1.95235">
        <ele>1561.8</ele>
        <time>2015-10-11T08:02:42Z</time>
      </trkpt>
      <trkpt lat="42.63997" lon="1.95237">
        <ele>1565.16</ele>
        <time>2015-10-11T08:02:44Z</time>
      </trkpt>
      <trkpt lat="42.63996" lon="1.9524">
        <ele>1560.84</ele>
        <time>2015-10-11T08:02:50Z</time>
      </trkpt>
      <trkpt lat="42.63996" lon="1.95241">
        <ele>1565.64</ele>
        <time>2015-10-11T08:02:52Z</time>
      </trkpt>
      <trkpt lat="42.63996" lon="1.95242">
        <ele>1561.32</ele>
        <time>2015-10-11T08:02:53Z</time>
      </trkpt>
      <trkpt lat="42.63997" lon="1.95247">
        <ele>1559.4</ele>
        <time>2015-10-11T08:03:00Z</time>
      </trkpt>
      <trkpt lat="42.63997" lon="1.95248">
        <ele>1561.8</ele>
        <time>2015-10-11T08:03:01Z</time>
      </trkpt>
      <trkpt lat="42.63997" lon="1.9525">
        <ele>1557.95</ele>
        <time>2015-10-11T08:03:03Z</time>
      </trkpt>
      <trkpt lat="42.63997" lon="1.95251">
        <ele>1560.84</ele>
        <time>2015-10-11T08:03:04Z</time>
      </trkpt>
      <trkpt lat="42.64001" lon="1.95259">
        <ele>1559.4</ele>
        <time>2015-10-11T08:03:16Z</time>
      </trkpt>
      <trkpt lat="42.64005" lon="1.95263">
        <ele>1556.99</ele>
        <time>2015-10-11T08:03:23Z</time>
      </trkpt>
      <trkpt lat="42.64012" lon="1.95266">
        <ele>1553.63</ele>
        <time>2015-10-11T08:03:35Z</time>
      </trkpt>
      <trkpt lat="42.64013" lon="1.95266">
        <ele>1556.03</ele>
        <time>2015-10-11T08:03:36Z</time>
      </trkpt>
      <trkpt lat="42.64014" lon="1.95268">
        <ele>1554.59</ele>
        <time>2015-10-11T08:03:40Z</time>
      </trkpt>
      <trkpt lat="42.64015" lon="1.95275">
        <ele>1552.67</ele>
        <time>2015-10-11T08:03:56Z</time>
      </trkpt>
      <trkpt lat="42.64015" lon="1.95276">
        <ele>1548.82</ele>
        <time>2015-10-11T08:03:59Z</time>
      </trkpt>
      <trkpt lat="42.64015" lon="1.95277">
        <ele>1555.07</ele>
        <time>2015-10-11T08:04:00Z</time>
      </trkpt>
      <trkpt lat="42.64015" lon="1.9528">
        <ele>1553.15</ele>
        <time>2015-10-11T08:04:03Z</time>
      </trkpt>
      <trkpt lat="42.64016" lon="1.95286">
        <ele>1554.11</ele>
        <time>2015-10-11T08:04:17Z</time>
      </trkpt>
      <trkpt lat="42.64017" lon="1.95287">
        <ele>1549.78</ele>
        <time>2015-10-11T08:04:19Z</time>
      </trkpt>
      <trkpt lat="42.64018" lon="1.95295">
        <ele>1550.74</ele>
        <time>2015-10-11T08:04:32Z</time>
      </trkpt>
      <trkpt lat="42.64019" lon="1.95299">
        <ele>1548.82</ele>
        <time>2015-10-11T08:04:36Z</time>
      </trkpt>
      <trkpt lat="42.64019" lon="1.953">
        <ele>1551.22</ele>
        <time>2015-10-11T08:04:38Z</time>
      </trkpt>
      <trkpt lat="42.6402" lon="1.95302">
        <ele>1547.38</ele>
        <time>2015-10-11T08:04:41Z</time>
      </trkpt>
      <trkpt lat="42.6402" lon="1.95303">
        <ele>1550.74</ele>
        <time>2015-10-11T08:04:42Z</time>
      </trkpt>
      <trkpt lat="42.6402" lon="1.95304">
        <ele>1550.74</ele>
        <time>2015-10-11T08:04:43Z</time>
      </trkpt>
      <trkpt lat="42.64021" lon="1.95305">
        <ele>1546.42</ele>
        <time>2015-10-11T08:04:44Z</time>
      </trkpt>
      <trkpt lat="42.64021" lon="1.95305">
        <ele>1548.82</ele>
        <time>2015-10-11T08:04:45Z</time>
      </trkpt>
      <trkpt lat="42.64022" lon="1.95306">
        <ele>1545.94</ele>
        <time>2015-10-11T08:04:46Z</time>
      </trkpt>
      <trkpt lat="42.6403" lon="1.95316">
        <ele>1544.98</ele>
        <time>2015-10-11T08:05:05Z</time>
      </trkpt>
      <trkpt lat="42.64032" lon="1.95318">
        <ele>1542.09</ele>
        <time>2015-10-11T08:05:08Z</time>
      </trkpt>
      <trkpt lat="42.64033" lon="1.95323">
        <ele>1546.9</ele>
        <time>2015-10-11T08:05:12Z</time>
      </trkpt>
      <trkpt lat="42.64034" lon="1.95324">
        <ele>1540.17</ele>
        <time>2015-10-11T08:05:13Z</time>
      </trkpt>
      <trkpt lat="42.64034" lon="1.95324">
        <ele>1545.94</ele>
        <time>2015-10-11T08:05:14Z</time>
      </trkpt>
      <trkpt lat="42.64035" lon="1.95325">
        <ele>1541.13</ele>
        <time>2015-10-11T08:05:15Z</time>
      </trkpt>
      <trkpt lat="42.64037" lon="1.95328">
        <ele>1544.5</ele>
        <time>2015-10-11T08:05:18Z</time>
      </trkpt>
      <trkpt lat="42.64039" lon="1.95332">
        <ele>1542.57</ele>
        <time>2015-10-11T08:05:23Z</time>
      </trkpt>
      <trkpt lat="42.6404" lon="1.95335">
        <ele>1542.09</ele>
        <time>2015-10-11T08:05:29Z</time>
      </trkpt>
      <trkpt lat="42.64041" lon="1.95336">
        <ele>1543.05</ele>
        <time>2015-10-11T08:05:31Z</time>
      </trkpt>
      <trkpt lat="42.64041" lon="1.95337">
        <ele>1539.69</ele>
        <time>2015-10-11T08:05:33Z</time>
      </trkpt>
      <trkpt lat="42.64042" lon="1.95338">
        <ele>1544.01</ele>
        <time>2015-10-11T08:05:34Z</time>
      </trkpt>
      <trkpt lat="42.64046" lon="1.95345">
        <ele>1541.61</ele>
        <time>2015-10-11T08:05:44Z</time>
      </trkpt>
      <trkpt lat="42.64047" lon="1.95349">
        <ele>1539.21</ele>
        <time>2015-10-11T08:05:50Z</time>
      </trkpt>
      <trkpt lat="42.6405" lon="1.95358">
        <ele>1541.61</ele>
        <time>2015-10-11T08:06:06Z</time>
      </trkpt>
      <trkpt lat="42.64051" lon="1.95358">
        <ele>1541.13</ele>
        <time>2015-10-11T08:06:07Z</time>
      </trkpt>
      <trkpt lat="42.64052" lon="1.95358">
        <ele>1540.17</ele>
        <time>2015-10-11T08:06:09Z</time>
      </trkpt>
      <trkpt lat="42.64053" lon="1.95358">
        <ele>1539.69</ele>
        <time>2015-10-11T08:06:13Z</time>
      </trkpt>
      <trkpt lat="42.64052" lon="1.95359">
        <ele>1541.61</ele>
        <time>2015-10-11T08:06:24Z</time>
      </trkpt>
      <trkpt lat="42.64051" lon="1.95359">
        <ele>1538.25</ele>
        <time>2015-10-11T08:06:26Z</time>
      </trkpt>
      <trkpt lat="42.64051" lon="1.95359">
        <ele>1541.61</ele>
        <time>2015-10-11T08:06:27Z</time>
      </trkpt>
      <trkpt lat="42.64051" lon="1.95359">
        <ele>1542.09</ele>
        <time>2015-10-11T08:06:29Z</time>
      </trkpt>
      <trkpt lat="42.64051" lon="1.95359">
        <ele>1538.25</ele>
        <time>2015-10-11T08:06:30Z</time>
      </trkpt>
      <trkpt lat="42.64051" lon="1.95359">
        <ele>1539.69</ele>
        <time>2015-10-11T08:06:31Z</time>
      </trkpt>
      <trkpt lat="42.64047" lon="1.95363">
        <ele>1538.25</ele>
        <time>2015-10-11T08:06:52Z</time>
      </trkpt>
      <trkpt lat="42.64049" lon="1.9537">
        <ele>1532.96</ele>
        <time>2015-10-11T08:07:03Z</time>
      </trkpt>
      <trkpt lat="42.6405" lon="1.95371">
        <ele>1536.8</ele>
        <time>2015-10-11T08:07:05Z</time>
      </trkpt>
      <trkpt lat="42.64049" lon="1.95377">
        <ele>1532</ele>
        <time>2015-10-11T08:07:17Z</time>
      </trkpt>
      <trkpt lat="42.64049" lon="1.95378">
        <ele>1536.8</ele>
        <time>2015-10-11T08:07:18Z</time>
      </trkpt>
      <trkpt lat="42.64049" lon="1.9538">
        <ele>1531.52</ele>
        <time>2015-10-11T08:07:20Z</time>
      </trkpt>
      <trkpt lat="42.64048" lon="1.9538">
        <ele>1532.48</ele>
        <time>2015-10-11T08:07:21Z</time>
      </trkpt>
      <trkpt lat="42.64047" lon="1.95383">
        <ele>1534.4</ele>
        <time>2015-10-11T08:07:25Z</time>
      </trkpt>
      <trkpt lat="42.64046" lon="1.95385">
        <ele>1532.48</ele>
        <time>2015-10-11T08:07:27Z</time>
      </trkpt>
      <trkpt lat="42.64046" lon="1.95393">
        <ele>1531.52</ele>
        <time>2015-10-11T08:07:36Z</time>
      </trkpt>
      <trkpt lat="42.64045" lon="1.95395">
        <ele>1534.88</ele>
        <time>2015-10-11T08:07:38Z</time>
      </trkpt>
      <trkpt lat="42.64045" lon="1.95396">
        <ele>1529.59</ele>
        <time>2015-10-11T08:07:39Z</time>
      </trkpt>
      <trkpt lat="42.64049" lon="1.95403">
        <ele>1531.52</ele>
        <time>2015-10-11T08:07:45Z</time>
      </trkpt>
      <trkpt lat="42.64049" lon="1.95411">
        <ele>1532</ele>
        <time>2015-10-11T08:07:52Z</time>
      </trkpt>
      <trkpt lat="42.64049" lon="1.95415">
        <ele>1529.11</ele>
        <time>2015-10-11T08:07:57Z</time>
      </trkpt>
      <trkpt lat="42.64049" lon="1.95418">
        <ele>1532</ele>
        <time>2015-10-11T08:08:01Z</time>
      </trkpt>
      <trkpt lat="42.64049" lon="1.9542">
        <ele>1528.15</ele>
        <time>2015-10-11T08:08:03Z</time>
      </trkpt>
      <trkpt lat="42.64047" lon="1.95426">
        <ele>1532</ele>
        <time>2015-10-11T08:08:12Z</time>
      </trkpt>
      <trkpt lat="42.64049" lon="1.95428">
        <ele>1528.63</ele>
        <time>2015-10-11T08:08:16Z</time>
      </trkpt>
      <trkpt lat="42.64052" lon="1.9544">
        <ele>1527.19</ele>
        <time>2015-10-11T08:08:28Z</time>
      </trkpt>
      <trkpt lat="42.64049" lon="1.95443">
        <ele>1528.63</ele>
        <time>2015-10-11T08:08:40Z</time>
      </trkpt>
      <trkpt lat="42.64049" lon="1.95443">
        <ele>1525.75</ele>
        <time>2015-10-11T08:08:43Z</time>
      </trkpt>
      <trkpt lat="42.64049" lon="1.95444">
        <ele>1526.23</ele>
        <time>2015-10-11T08:08:44Z</time>
      </trkpt>
      <trkpt lat="42.64048" lon="1.95452">
        <ele>1524.31</ele>
        <time>2015-10-11T08:08:58Z</time>
      </trkpt>
      <trkpt lat="42.64051" lon="1.95455">
        <ele>1524.31</ele>
        <time>2015-10-11T08:09:04Z</time>
      </trkpt>
      <trkpt lat="42.64052" lon="1.95456">
        <ele>1522.87</ele>
        <time>2015-10-11T08:09:06Z</time>
      </trkpt>
      <trkpt lat="42.64052" lon="1.95456">
        <ele>1521.9</ele>
        <time>2015-10-11T08:09:07Z</time>
      </trkpt>
      <trkpt lat="42.64052" lon="1.95461">
        <ele>1525.75</ele>
        <time>2015-10-11T08:09:11Z</time>
      </trkpt>
      <trkpt lat="42.64052" lon="1.95464">
        <ele>1522.39</ele>
        <time>2015-10-11T08:09:14Z</time>
      </trkpt>
      <trkpt lat="42.64052" lon="1.95466">
        <ele>1525.75</ele>
        <time>2015-10-11T08:09:16Z</time>
      </trkpt>
      <trkpt lat="42.64052" lon="1.95467">
        <ele>1521.9</ele>
        <time>2015-10-11T08:09:17Z</time>
      </trkpt>
      <trkpt lat="42.64051" lon="1.95468">
        <ele>1521.9</ele>
        <time>2015-10-11T08:09:18Z</time>
      </trkpt>
      <trkpt lat="42.64057" lon="1.95478">
        <ele>1521.42</ele>
        <time>2015-10-11T08:09:31Z</time>
      </trkpt>
      <trkpt lat="42.64062" lon="1.95485">
        <ele>1521.42</ele>
        <time>2015-10-11T08:09:43Z</time>
      </trkpt>
      <trkpt lat="42.64061" lon="1.95486">
        <ele>1520.46</ele>
        <time>2015-10-11T08:09:48Z</time>
      </trkpt>
      <trkpt lat="42.64063" lon="1.95493">
        <ele>1518.06</ele>
        <time>2015-10-11T08:09:57Z</time>
      </trkpt>
      <trkpt lat="42.64065" lon="1.95494">
        <ele>1520.94</ele>
        <time>2015-10-11T08:10:00Z</time>
      </trkpt>
      <trkpt lat="42.64065" lon="1.95498">
        <ele>1517.58</ele>
        <time>2015-10-11T08:10:05Z</time>
      </trkpt>
      <trkpt lat="42.64066" lon="1.95508">
        <ele>1517.58</ele>
        <time>2015-10-11T08:10:15Z</time>
      </trkpt>
      <trkpt lat="42.64067" lon="1.95514">
        <ele>1515.66</ele>
        <time>2015-10-11T08:10:21Z</time>
      </trkpt>
      <trkpt lat="42.64064" lon="1.95523">
        <ele>1517.1</ele>
        <time>2015-10-11T08:10:29Z</time>
      </trkpt>
      <trkpt lat="42.64069" lon="1.95531">
        <ele>1519.02</ele>
        <time>2015-10-11T08:10:39Z</time>
      </trkpt>
      <trkpt lat="42.64073" lon="1.95533">
        <ele>1514.69</ele>
        <time>2015-10-11T08:10:42Z</time>
      </trkpt>
      <trkpt lat="42.64076" lon="1.95535">
        <ele>1518.54</ele>
        <time>2015-10-11T08:10:44Z</time>
      </trkpt>
      <trkpt lat="42.64079" lon="1.95539">
        <ele>1517.1</ele>
        <time>2015-10-11T08:10:49Z</time>
      </trkpt>
      <trkpt lat="42.64073" lon="1.95552">
        <ele>1517.58</ele>
        <time>2015-10-11T08:11:05Z</time>
      </trkpt>
      <trkpt lat="42.64073" lon="1.95553">
        <ele>1514.21</ele>
        <time>2015-10-11T08:11:06Z</time>
      </trkpt>
      <trkpt lat="42.64073" lon="1.95554">
        <ele>1517.58</ele>
        <time>2015-10-11T08:11:08Z</time>
      </trkpt>
      <trkpt lat="42.64071" lon="1.95561">
        <ele>1515.66</ele>
        <time>2015-10-11T08:11:18Z</time>
      </trkpt>
      <trkpt lat="42.64074" lon="1.95567">
        <ele>1516.14</ele>
        <time>2015-10-11T08:11:26Z</time>
      </trkpt>
      <trkpt lat="42.64071" lon="1.95573">
        <ele>1514.21</ele>
        <time>2015-10-11T08:11:34Z</time>
      </trkpt>
      <trkpt lat="42.64071" lon="1.95576">
        <ele>1510.85</ele>
        <time>2015-10-11T08:11:40Z</time>
      </trkpt>
      <trkpt lat="42.64071" lon="1.95577">
        <ele>1515.66</ele>
        <time>2015-10-11T08:11:41Z</time>
      </trkpt>
      <trkpt lat="42.64071" lon="1.95578">
        <ele>1512.29</ele>
        <time>2015-10-11T08:11:42Z</time>
      </trkpt>
      <trkpt lat="42.64073" lon="1.95582">
        <ele>1513.25</ele>
        <time>2015-10-11T08:11:47Z</time>
      </trkpt>
      <trkpt lat="42.64075" lon="1.95585">
        <ele>1510.37</ele>
        <time>2015-10-11T08:11:51Z</time>
      </trkpt>
      <trkpt lat="42.64076" lon="1.95585">
        <ele>1511.33</ele>
        <time>2015-10-11T08:11:52Z</time>
      </trkpt>
      <trkpt lat="42.64087" lon="1.9559">
        <ele>1509.41</ele>
        <time>2015-10-11T08:12:08Z</time>
      </trkpt>
      <trkpt lat="42.64088" lon="1.95595">
        <ele>1508.45</ele>
        <time>2015-10-11T08:12:17Z</time>
      </trkpt>
      <trkpt lat="42.64088" lon="1.95595">
        <ele>1511.81</ele>
        <time>2015-10-11T08:12:20Z</time>
      </trkpt>
      <trkpt lat="42.64088" lon="1.95595">
        <ele>1507.48</ele>
        <time>2015-10-11T08:12:21Z</time>
      </trkpt>
      <trkpt lat="42.64088" lon="1.95596">
        <ele>1507.97</ele>
        <time>2015-10-11T08:12:25Z</time>
      </trkpt>
      <trkpt lat="42.6409" lon="1.95598">
        <ele>1506.04</ele>
        <time>2015-10-11T08:12:38Z</time>
      </trkpt>
      <trkpt lat="42.64089" lon="1.95605">
        <ele>1505.08</ele>
        <time>2015-10-11T08:12:46Z</time>
      </trkpt>
      <trkpt lat="42.64088" lon="1.95608">
        <ele>1506.04</ele>
        <time>2015-10-11T08:12:48Z</time>
      </trkpt>
      <trkpt lat="42.64088" lon="1.95616">
        <ele>1507</ele>
        <time>2015-10-11T08:12:54Z</time>
      </trkpt>
      <trkpt lat="42.64088" lon="1.95618">
        <ele>1502.2</ele>
        <time>2015-10-11T08:12:55Z</time>
      </trkpt>
      <trkpt lat="42.64088" lon="1.95619">
        <ele>1504.12</ele>
        <time>2015-10-11T08:12:56Z</time>
      </trkpt>
      <trkpt lat="42.64088" lon="1.95626">
        <ele>1507.48</ele>
        <time>2015-10-11T08:13:00Z</time>
      </trkpt>
      <trkpt lat="42.64088" lon="1.95631">
        <ele>1504.12</ele>
        <time>2015-10-11T08:13:06Z</time>
      </trkpt>
      <trkpt lat="42.64081" lon="1.95639">
        <ele>1502.2</ele>
        <time>2015-10-11T08:13:22Z</time>
      </trkpt>
      <trkpt lat="42.64083" lon="1.95641">
        <ele>1502.2</ele>
        <time>2015-10-11T08:13:27Z</time>
      </trkpt>
      <trkpt lat="42.64087" lon="1.9564">
        <ele>1500.76</ele>
        <time>2015-10-11T08:13:40Z</time>
      </trkpt>
      <trkpt lat="42.64089" lon="1.9564">
        <ele>1496.91</ele>
        <time>2015-10-11T08:13:44Z</time>
      </trkpt>
      <trkpt lat="42.64091" lon="1.95641">
        <ele>1502.68</ele>
        <time>2015-10-11T08:13:45Z</time>
      </trkpt>
      <trkpt lat="42.64094" lon="1.9564">
        <ele>1500.76</ele>
        <time>2015-10-11T08:13:48Z</time>
      </trkpt>
      <trkpt lat="42.64105" lon="1.9564">
        <ele>1497.39</ele>
        <time>2015-10-11T08:13:57Z</time>
      </trkpt>
      <trkpt lat="42.6411" lon="1.9564">
        <ele>1496.91</ele>
        <time>2015-10-11T08:13:59Z</time>
      </trkpt>
      <trkpt lat="42.64116" lon="1.95642">
        <ele>1500.27</ele>
        <time>2015-10-11T08:14:02Z</time>
      </trkpt>
      <trkpt lat="42.64125" lon="1.95642">
        <ele>1495.47</ele>
        <time>2015-10-11T08:14:11Z</time>
      </trkpt>
      <trkpt lat="42.64129" lon="1.9564">
        <ele>1494.99</ele>
        <time>2015-10-11T08:14:18Z</time>
      </trkpt>
      <trkpt lat="42.64128" lon="1.95636">
        <ele>1494.99</ele>
        <time>2015-10-11T08:14:22Z</time>
      </trkpt>
      <trkpt lat="42.64132" lon="1.95632">
        <ele>1491.62</ele>
        <time>2015-10-11T08:14:38Z</time>
      </trkpt>
      <trkpt lat="42.64134" lon="1.9563">
        <ele>1492.58</ele>
        <time>2015-10-11T08:14:42Z</time>
      </trkpt>
      <trkpt lat="42.64138" lon="1.95628">
        <ele>1492.58</ele>
        <time>2015-10-11T08:14:46Z</time>
      </trkpt>
      <trkpt lat="42.64146" lon="1.95625">
        <ele>1489.22</ele>
        <time>2015-10-11T08:14:53Z</time>
      </trkpt>
      <trkpt lat="42.6415" lon="1.95625">
        <ele>1492.1</ele>
        <time>2015-10-11T08:14:59Z</time>
      </trkpt>
      <trkpt lat="42.64151" lon="1.95624">
        <ele>1488.26</ele>
        <time>2015-10-11T08:15:02Z</time>
      </trkpt>
      <trkpt lat="42.64155" lon="1.95618">
        <ele>1488.26</ele>
        <time>2015-10-11T08:15:19Z</time>
      </trkpt>
      <trkpt lat="42.64154" lon="1.95618">
        <ele>1487.78</ele>
        <time>2015-10-11T08:15:24Z</time>
      </trkpt>
      <trkpt lat="42.64153" lon="1.95613">
        <ele>1484.41</ele>
        <time>2015-10-11T08:15:37Z</time>
      </trkpt>
      <trkpt lat="42.64158" lon="1.9561">
        <ele>1485.37</ele>
        <time>2015-10-11T08:15:46Z</time>
      </trkpt>
      <trkpt lat="42.64159" lon="1.95609">
        <ele>1485.37</ele>
        <time>2015-10-11T08:15:51Z</time>
      </trkpt>
      <trkpt lat="42.64159" lon="1.95609">
        <ele>1484.41</ele>
        <time>2015-10-11T08:15:53Z</time>
      </trkpt>
      <trkpt lat="42.64163" lon="1.95612">
        <ele>1480.57</ele>
        <time>2015-10-11T08:16:05Z</time>
      </trkpt>
      <trkpt lat="42.64162" lon="1.95612">
        <ele>1483.93</ele>
        <time>2015-10-11T08:16:06Z</time>
      </trkpt>
      <trkpt lat="42.64166" lon="1.95618">
        <ele>1480.57</ele>
        <time>2015-10-11T08:16:12Z</time>
      </trkpt>
      <trkpt lat="42.64167" lon="1.9562">
        <ele>1482.01</ele>
        <time>2015-10-11T08:16:13Z</time>
      </trkpt>
      <trkpt lat="42.64173" lon="1.95626">
        <ele>1481.05</ele>
        <time>2015-10-11T08:16:21Z</time>
      </trkpt>
      <trkpt lat="42.64173" lon="1.95638">
        <ele>1480.09</ele>
        <time>2015-10-11T08:16:37Z</time>
      </trkpt>
      <trkpt lat="42.64177" lon="1.95646">
        <ele>1477.68</ele>
        <time>2015-10-11T08:16:47Z</time>
      </trkpt>
      <trkpt lat="42.64183" lon="1.95649">
        <ele>1481.53</ele>
        <time>2015-10-11T08:16:52Z</time>
      </trkpt>
      <trkpt lat="42.64185" lon="1.95649">
        <ele>1477.68</ele>
        <time>2015-10-11T08:16:54Z</time>
      </trkpt>
      <trkpt lat="42.64185" lon="1.95649">
        <ele>1479.13</ele>
        <time>2015-10-11T08:16:55Z</time>
      </trkpt>
      <trkpt lat="42.64187" lon="1.95649">
        <ele>1475.76</ele>
        <time>2015-10-11T08:16:57Z</time>
      </trkpt>
      <trkpt lat="42.64188" lon="1.95649">
        <ele>1481.05</ele>
        <time>2015-10-11T08:16:58Z</time>
      </trkpt>
      <trkpt lat="42.64189" lon="1.95648">
        <ele>1477.68</ele>
        <time>2015-10-11T08:16:59Z</time>
      </trkpt>
      <trkpt lat="42.6419" lon="1.95648">
        <ele>1479.13</ele>
        <time>2015-10-11T08:17:02Z</time>
      </trkpt>
      <trkpt lat="42.64191" lon="1.95651">
        <ele>1474.8</ele>
        <time>2015-10-11T08:17:09Z</time>
      </trkpt>
      <trkpt lat="42.64191" lon="1.95652">
        <ele>1478.16</ele>
        <time>2015-10-11T08:17:10Z</time>
      </trkpt>
      <trkpt lat="42.64191" lon="1.95654">
        <ele>1476.72</ele>
        <time>2015-10-11T08:17:13Z</time>
      </trkpt>
      <trkpt lat="42.64189" lon="1.95655">
        <ele>1477.68</ele>
        <time>2015-10-11T08:17:15Z</time>
      </trkpt>
      <trkpt lat="42.64187" lon="1.95658">
        <ele>1475.28</ele>
        <time>2015-10-11T08:17:20Z</time>
      </trkpt>
      <trkpt lat="42.64193" lon="1.95666">
        <ele>1476.24</ele>
        <time>2015-10-11T08:17:33Z</time>
      </trkpt>
      <trkpt lat="42.64194" lon="1.95667">
        <ele>1474.8</ele>
        <time>2015-10-11T08:17:35Z</time>
      </trkpt>
      <trkpt lat="42.642" lon="1.95673">
        <ele>1472.88</ele>
        <time>2015-10-11T08:17:42Z</time>
      </trkpt>
      <trkpt lat="42.64214" lon="1.95683">
        <ele>1472.4</ele>
        <time>2015-10-11T08:17:58Z</time>
      </trkpt>
      <trkpt lat="42.64216" lon="1.95685">
        <ele>1471.44</ele>
        <time>2015-10-11T08:18:00Z</time>
      </trkpt>
      <trkpt lat="42.64226" lon="1.95694">
        <ele>1468.07</ele>
        <time>2015-10-11T08:18:13Z</time>
      </trkpt>
      <trkpt lat="42.64228" lon="1.95698">
        <ele>1471.44</ele>
        <time>2015-10-11T08:18:17Z</time>
      </trkpt>
      <trkpt lat="42.64228" lon="1.95708">
        <ele>1468.07</ele>
        <time>2015-10-11T08:18:27Z</time>
      </trkpt>
      <trkpt lat="42.64227" lon="1.95715">
        <ele>1473.36</ele>
        <time>2015-10-11T08:18:32Z</time>
      </trkpt>
      <trkpt lat="42.64228" lon="1.95716">
        <ele>1469.03</ele>
        <time>2015-10-11T08:18:33Z</time>
      </trkpt>
      <trkpt lat="42.64228" lon="1.95721">
        <ele>1469.51</ele>
        <time>2015-10-11T08:18:36Z</time>
      </trkpt>
      <trkpt lat="42.64227" lon="1.95723">
        <ele>1467.59</ele>
        <time>2015-10-11T08:18:38Z</time>
      </trkpt>
      <trkpt lat="42.64227" lon="1.95727">
        <ele>1469.51</ele>
        <time>2015-10-11T08:18:41Z</time>
      </trkpt>
      <trkpt lat="42.64229" lon="1.95732">
        <ele>1467.59</ele>
        <time>2015-10-11T08:18:46Z</time>
      </trkpt>
      <trkpt lat="42.6423" lon="1.95733">
        <ele>1470.47</ele>
        <time>2015-10-11T08:18:47Z</time>
      </trkpt>
      <trkpt lat="42.64232" lon="1.95737">
        <ele>1469.03</ele>
        <time>2015-10-11T08:18:50Z</time>
      </trkpt>
      <trkpt lat="42.64239" lon="1.95749">
        <ele>1468.07</ele>
        <time>2015-10-11T08:18:59Z</time>
      </trkpt>
      <trkpt lat="42.6424" lon="1.9575">
        <ele>1467.11</ele>
        <time>2015-10-11T08:19:00Z</time>
      </trkpt>
      <trkpt lat="42.64245" lon="1.9577">
        <ele>1466.63</ele>
        <time>2015-10-11T08:19:15Z</time>
      </trkpt>
      <trkpt lat="42.64257" lon="1.95785">
        <ele>1467.11</ele>
        <time>2015-10-11T08:19:31Z</time>
      </trkpt>
      <trkpt lat="42.64258" lon="1.95788">
        <ele>1470.47</ele>
        <time>2015-10-11T08:19:33Z</time>
      </trkpt>
      <trkpt lat="42.6426" lon="1.95794">
        <ele>1467.11</ele>
        <time>2015-10-11T08:19:38Z</time>
      </trkpt>
      <trkpt lat="42.64259" lon="1.95798">
        <ele>1466.63</ele>
        <time>2015-10-11T08:19:44Z</time>
      </trkpt>
      <trkpt lat="42.6426" lon="1.958">
        <ele>1467.59</ele>
        <time>2015-10-11T08:19:46Z</time>
      </trkpt>
      <trkpt lat="42.64276" lon="1.95815">
        <ele>1467.11</ele>
        <time>2015-10-11T08:20:01Z</time>
      </trkpt>
      <trkpt lat="42.64278" lon="1.95816">
        <ele>1466.15</ele>
        <time>2015-10-11T08:20:03Z</time>
      </trkpt>
      <trkpt lat="42.6428" lon="1.95818">
        <ele>1467.59</ele>
        <time>2015-10-11T08:20:05Z</time>
      </trkpt>
      <trkpt lat="42.64281" lon="1.95822">
        <ele>1463.74</ele>
        <time>2015-10-11T08:20:07Z</time>
      </trkpt>
      <trkpt lat="42.64288" lon="1.95838">
        <ele>1467.11</ele>
        <time>2015-10-11T08:20:17Z</time>
      </trkpt>
      <trkpt lat="42.6429" lon="1.95843">
        <ele>1465.19</ele>
        <time>2015-10-11T08:20:22Z</time>
      </trkpt>
      <trkpt lat="42.6429" lon="1.95844">
        <ele>1465.19</ele>
        <time>2015-10-11T08:20:23Z</time>
      </trkpt>
      <trkpt lat="42.64287" lon="1.95854">
        <ele>1467.11</ele>
        <time>2015-10-11T08:20:28Z</time>
      </trkpt>
      <trkpt lat="42.64295" lon="1.95872">
        <ele>1466.63</ele>
        <time>2015-10-11T08:20:41Z</time>
      </trkpt>
      <trkpt lat="42.64295" lon="1.95873">
        <ele>1464.71</ele>
        <time>2015-10-11T08:20:42Z</time>
      </trkpt>
      <trkpt lat="42.64303" lon="1.95878">
        <ele>1464.23</ele>
        <time>2015-10-11T08:20:50Z</time>
      </trkpt>
      <trkpt lat="42.64314" lon="1.95881">
        <ele>1465.19</ele>
        <time>2015-10-11T08:20:57Z</time>
      </trkpt>
      <trkpt lat="42.64317" lon="1.95886">
        <ele>1463.74</ele>
        <time>2015-10-11T08:21:02Z</time>
      </trkpt>
      <trkpt lat="42.64318" lon="1.95887">
        <ele>1462.3</ele>
        <time>2015-10-11T08:21:03Z</time>
      </trkpt>
      <trkpt lat="42.64322" lon="1.95892">
        <ele>1464.71</ele>
        <time>2015-10-11T08:21:06Z</time>
      </trkpt>
      <trkpt lat="42.6433" lon="1.95904">
        <ele>1464.23</ele>
        <time>2015-10-11T08:21:14Z</time>
      </trkpt>
      <trkpt lat="42.64337" lon="1.95912">
        <ele>1465.67</ele>
        <time>2015-10-11T08:21:20Z</time>
      </trkpt>
      <trkpt lat="42.64338" lon="1.95913">
        <ele>1464.71</ele>
        <time>2015-10-11T08:21:21Z</time>
      </trkpt>
      <trkpt lat="42.64339" lon="1.95916">
        <ele>1465.19</ele>
        <time>2015-10-11T08:21:23Z</time>
      </trkpt>
      <trkpt lat="42.64346" lon="1.95923">
        <ele>1464.71</ele>
        <time>2015-10-11T08:21:31Z</time>
      </trkpt>
      <trkpt lat="42.64349" lon="1.95925">
        <ele>1463.74</ele>
        <time>2015-10-11T08:21:34Z</time>
      </trkpt>
      <trkpt lat="42.6435" lon="1.95926">
        <ele>1467.11</ele>
        <time>2015-10-11T08:21:36Z</time>
      </trkpt>
      <trkpt lat="42.64351" lon="1.95929">
        <ele>1464.23</ele>
        <time>2015-10-11T08:21:38Z</time>
      </trkpt>
      <trkpt lat="42.64353" lon="1.95933">
        <ele>1466.63</ele>
        <time>2015-10-11T08:21:41Z</time>
      </trkpt>
      <trkpt lat="42.64355" lon="1.95936">
        <ele>1464.23</ele>
        <time>2015-10-11T08:21:44Z</time>
      </trkpt>
      <trkpt lat="42.6436" lon="1.95942">
        <ele>1465.67</ele>
        <time>2015-10-11T08:21:49Z</time>
      </trkpt>
      <trkpt lat="42.64362" lon="1.95943">
        <ele>1467.11</ele>
        <time>2015-10-11T08:21:50Z</time>
      </trkpt>
      <trkpt lat="42.64382" lon="1.95948">
        <ele>1467.11</ele>
        <time>2015-10-11T08:22:04Z</time>
      </trkpt>
      <trkpt lat="42.64384" lon="1.95947">
        <ele>1468.07</ele>
        <time>2015-10-11T08:22:09Z</time>
      </trkpt>
      <trkpt lat="42.64389" lon="1.95951">
        <ele>1467.11</ele>
        <time>2015-10-11T08:22:19Z</time>
      </trkpt>
      <trkpt lat="42.64391" lon="1.95952">
        <ele>1468.07</ele>
        <time>2015-10-11T08:22:21Z</time>
      </trkpt>
      <trkpt lat="42.64394" lon="1.95956">
        <ele>1466.15</ele>
        <time>2015-10-11T08:22:25Z</time>
      </trkpt>
      <trkpt lat="42.64395" lon="1.95957">
        <ele>1469.51</ele>
        <time>2015-10-11T08:22:28Z</time>
      </trkpt>
      <trkpt lat="42.64397" lon="1.95961">
        <ele>1467.59</ele>
        <time>2015-10-11T08:22:35Z</time>
      </trkpt>
      <trkpt lat="42.64402" lon="1.95959">
        <ele>1469.03</ele>
        <time>2015-10-11T08:22:40Z</time>
      </trkpt>
      <trkpt lat="42.64389" lon="1.95942">
        <ele>1467.11</ele>
        <time>2015-10-11T08:22:50Z</time>
      </trkpt>
      <trkpt lat="42.64389" lon="1.95942">
        <ele>1470.47</ele>
        <time>2015-10-11T08:22:51Z</time>
      </trkpt>
      <trkpt lat="42.64389" lon="1.9594">
        <ele>1470.95</ele>
        <time>2015-10-11T08:22:57Z</time>
      </trkpt>
      <trkpt lat="42.64369" lon="1.95943">
        <ele>1470.95</ele>
        <time>2015-10-11T08:23:09Z</time>
      </trkpt>
      <trkpt lat="42.64373" lon="1.95958">
        <ele>1469.99</ele>
        <time>2015-10-11T08:23:23Z</time>
      </trkpt>
      <trkpt lat="42.64374" lon="1.9596">
        <ele>1470.95</ele>
        <time>2015-10-11T08:23:25Z</time>
      </trkpt>
      <trkpt lat="42.64385" lon="1.95975">
        <ele>1468.55</ele>
        <time>2015-10-11T08:23:44Z</time>
      </trkpt>
      <trkpt lat="42.64381" lon="1.95975">
        <ele>1470.47</ele>
        <time>2015-10-11T08:23:49Z</time>
      </trkpt>
      <trkpt lat="42.6438" lon="1.9598">
        <ele>1472.88</ele>
        <time>2015-10-11T08:24:06Z</time>
      </trkpt>
      <trkpt lat="42.64381" lon="1.9598">
        <ele>1470.95</ele>
        <time>2015-10-11T08:24:07Z</time>
      </trkpt>
      <trkpt lat="42.64394" lon="1.95969">
        <ele>1468.55</ele>
        <time>2015-10-11T08:24:21Z</time>
      </trkpt>
      <trkpt lat="42.64394" lon="1.95969">
        <ele>1469.51</ele>
        <time>2015-10-11T08:24:24Z</time>
      </trkpt>
      <trkpt lat="42.64395" lon="1.95969">
        <ele>1469.51</ele>
        <time>2015-10-11T08:24:27Z</time>
      </trkpt>
      <trkpt lat="42.64397" lon="1.95977">
        <ele>1468.55</ele>
        <time>2015-10-11T08:24:37Z</time>
      </trkpt>
      <trkpt lat="42.64396" lon="1.95978">
        <ele>1470.47</ele>
        <time>2015-10-11T08:24:40Z</time>
      </trkpt>
      <trkpt lat="42.64395" lon="1.9598">
        <ele>1467.59</ele>
        <time>2015-10-11T08:24:43Z</time>
      </trkpt>
      <trkpt lat="42.64395" lon="1.95981">
        <ele>1468.55</ele>
        <time>2015-10-11T08:24:45Z</time>
      </trkpt>
      <trkpt lat="42.64396" lon="1.95984">
        <ele>1468.07</ele>
        <time>2015-10-11T08:24:53Z</time>
      </trkpt>
      <trkpt lat="42.644" lon="1.95991">
        <ele>1469.03</ele>
        <time>2015-10-11T08:25:05Z</time>
      </trkpt>
      <trkpt lat="42.64403" lon="1.95992">
        <ele>1467.59</ele>
        <time>2015-10-11T08:25:07Z</time>
      </trkpt>
      <trkpt lat="42.64408" lon="1.95992">
        <ele>1466.63</ele>
        <time>2015-10-11T08:25:11Z</time>
      </trkpt>
      <trkpt lat="42.64409" lon="1.95992">
        <ele>1469.99</ele>
        <time>2015-10-11T08:25:12Z</time>
      </trkpt>
      <trkpt lat="42.6441" lon="1.95992">
        <ele>1468.55</ele>
        <time>2015-10-11T08:25:13Z</time>
      </trkpt>
      <trkpt lat="42.64411" lon="1.95992">
        <ele>1467.59</ele>
        <time>2015-10-11T08:25:15Z</time>
      </trkpt>
      <trkpt lat="42.64423" lon="1.9599">
        <ele>1467.59</ele>
        <time>2015-10-11T08:25:27Z</time>
      </trkpt>
      <trkpt lat="42.64424" lon="1.95989">
        <ele>1466.63</ele>
        <time>2015-10-11T08:25:29Z</time>
      </trkpt>
      <trkpt lat="42.6443" lon="1.95984">
        <ele>1466.15</ele>
        <time>2015-10-11T08:25:39Z</time>
      </trkpt>
      <trkpt lat="42.64437" lon="1.95974">
        <ele>1467.59</ele>
        <time>2015-10-11T08:25:54Z</time>
      </trkpt>
      <trkpt lat="42.64439" lon="1.95958">
        <ele>1465.67</ele>
        <time>2015-10-11T08:26:14Z</time>
      </trkpt>
      <trkpt lat="42.64435" lon="1.95946">
        <ele>1465.67</ele>
        <time>2015-10-11T08:26:28Z</time>
      </trkpt>
      <trkpt lat="42.64435" lon="1.95944">
        <ele>1467.59</ele>
        <time>2015-10-11T08:26:30Z</time>
      </trkpt>
      <trkpt lat="42.64439" lon="1.95935">
        <ele>1466.15</ele>
        <time>2015-10-11T08:26:48Z</time>
      </trkpt>
      <trkpt lat="42.64433" lon="1.95932">
        <ele>1467.11</ele>
        <time>2015-10-11T08:27:01Z</time>
      </trkpt>
      <trkpt lat="42.64434" lon="1.9593">
        <ele>1467.59</ele>
        <time>2015-10-11T08:27:10Z</time>
      </trkpt>
      <trkpt lat="42.64433" lon="1.9593">
        <ele>1464.23</ele>
        <time>2015-10-11T08:27:23Z</time>
      </trkpt>
      <trkpt lat="42.64433" lon="1.95928">
        <ele>1467.59</ele>
        <time>2015-10-11T08:27:26Z</time>
      </trkpt>
      <trkpt lat="42.64433" lon="1.95928">
        <ele>1468.07</ele>
        <time>2015-10-11T08:27:27Z</time>
      </trkpt>
      <trkpt lat="42.64432" lon="1.95926">
        <ele>1464.23</ele>
        <time>2015-10-11T08:27:41Z</time>
      </trkpt>
      <trkpt lat="42.64432" lon="1.95927">
        <ele>1467.59</ele>
        <time>2015-10-11T08:27:42Z</time>
      </trkpt>
      <trkpt lat="42.64433" lon="1.95927">
        <ele>1464.71</ele>
        <time>2015-10-11T08:27:52Z</time>
      </trkpt>
      <trkpt lat="42.64433" lon="1.95927">
        <ele>1468.55</ele>
        <time>2015-10-11T08:28:00Z</time>
      </trkpt>
      <trkpt lat="42.64433" lon="1.95927">
        <ele>1464.23</ele>
        <time>2015-10-11T08:28:02Z</time>
      </trkpt>
      <trkpt lat="42.64433" lon="1.95925">
        <ele>1467.59</ele>
        <time>2015-10-11T08:28:17Z</time>
      </trkpt>
      <trkpt lat="42.64432" lon="1.95923">
        <ele>1464.71</ele>
        <time>2015-10-11T08:28:23Z</time>
      </trkpt>
      <trkpt lat="42.64431" lon="1.95924">
        <ele>1465.19</ele>
        <time>2015-10-11T08:28:42Z</time>
      </trkpt>
      <trkpt lat="42.64432" lon="1.95923">
        <ele>1466.63</ele>
        <time>2015-10-11T08:29:02Z</time>
      </trkpt>
      <trkpt lat="42.64432" lon="1.95923">
        <ele>1464.23</ele>
        <time>2015-10-11T08:29:04Z</time>
      </trkpt>
      <trkpt lat="42.64434" lon="1.95922">
        <ele>1463.74</ele>
        <time>2015-10-11T08:29:33Z</time>
      </trkpt>
      <trkpt lat="42.64434" lon="1.95922">
        <ele>1463.26</ele>
        <time>2015-10-11T08:29:34Z</time>
      </trkpt>
      <trkpt lat="42.64434" lon="1.95923">
        <ele>1463.74</ele>
        <time>2015-10-11T08:29:48Z</time>
      </trkpt>
      <trkpt lat="42.64434" lon="1.95924">
        <ele>1467.11</ele>
        <time>2015-10-11T08:29:50Z</time>
      </trkpt>
      <trkpt lat="42.64434" lon="1.95924">
        <ele>1462.78</ele>
        <time>2015-10-11T08:29:51Z</time>
      </trkpt>
      <trkpt lat="42.64434" lon="1.95925">
        <ele>1466.15</ele>
        <time>2015-10-11T08:30:18Z</time>
      </trkpt>
      <trkpt lat="42.64434" lon="1.95925">
        <ele>1462.78</ele>
        <time>2015-10-11T08:30:19Z</time>
      </trkpt>
      <trkpt lat="42.64434" lon="1.95926">
        <ele>1461.82</ele>
        <time>2015-10-11T08:30:37Z</time>
      </trkpt>
      <trkpt lat="42.64434" lon="1.95926">
        <ele>1463.26</ele>
        <time>2015-10-11T08:30:39Z</time>
      </trkpt>
      <trkpt lat="42.64434" lon="1.95926">
        <ele>1464.23</ele>
        <time>2015-10-11T08:30:47Z</time>
      </trkpt>
      <trkpt lat="42.64433" lon="1.95926">
        <ele>1463.26</ele>
        <time>2015-10-11T08:30:49Z</time>
      </trkpt>
      <trkpt lat="42.64433" lon="1.95926">
        <ele>1461.82</ele>
        <time>2015-10-11T08:30:58Z</time>
      </trkpt>
      <trkpt lat="42.64433" lon="1.95926">
        <ele>1465.19</ele>
        <time>2015-10-11T08:31:01Z</time>
      </trkpt>
      <trkpt lat="42.64433" lon="1.95926">
        <ele>1461.82</ele>
        <time>2015-10-11T08:31:04Z</time>
      </trkpt>
      <trkpt lat="42.64422" lon="1.9593">
        <ele>1461.82</ele>
        <time>2015-10-11T08:31:47Z</time>
      </trkpt>
      <trkpt lat="42.64426" lon="1.95928">
        <ele>1462.3</ele>
        <time>2015-10-11T08:32:16Z</time>
      </trkpt>
      <trkpt lat="42.64429" lon="1.95927">
        <ele>1461.34</ele>
        <time>2015-10-11T08:32:36Z</time>
      </trkpt>
      <trkpt lat="42.64432" lon="1.95928">
        <ele>1464.23</ele>
        <time>2015-10-11T08:32:44Z</time>
      </trkpt>
      <trkpt lat="42.64432" lon="1.95928">
        <ele>1462.3</ele>
        <time>2015-10-11T08:32:46Z</time>
      </trkpt>
      <trkpt lat="42.64433" lon="1.95927">
        <ele>1461.82</ele>
        <time>2015-10-11T08:32:59Z</time>
      </trkpt>
      <trkpt lat="42.64434" lon="1.95926">
        <ele>1460.86</ele>
        <time>2015-10-11T08:33:06Z</time>
      </trkpt>
      <trkpt lat="42.64433" lon="1.95927">
        <ele>1462.3</ele>
        <time>2015-10-11T08:33:08Z</time>
      </trkpt>
      <trkpt lat="42.64433" lon="1.9593">
        <ele>1459.9</ele>
        <time>2015-10-11T08:33:41Z</time>
      </trkpt>
      <trkpt lat="42.64433" lon="1.9593">
        <ele>1460.86</ele>
        <time>2015-10-11T08:34:23Z</time>
      </trkpt>
      <trkpt lat="42.64433" lon="1.9593">
        <ele>1460.38</ele>
        <time>2015-10-11T08:34:35Z</time>
      </trkpt>
      <trkpt lat="42.64433" lon="1.9593">
        <ele>1461.34</ele>
        <time>2015-10-11T08:34:52Z</time>
      </trkpt>
      <trkpt lat="42.64433" lon="1.9593">
        <ele>1459.42</ele>
        <time>2015-10-11T08:34:58Z</time>
      </trkpt>
      <trkpt lat="42.64433" lon="1.9593">
        <ele>1460.38</ele>
        <time>2015-10-11T08:35:00Z</time>
      </trkpt>
      <trkpt lat="42.64433" lon="1.9593">
        <ele>1459.42</ele>
        <time>2015-10-11T08:35:08Z</time>
      </trkpt>
      <trkpt lat="42.64434" lon="1.9593">
        <ele>1460.86</ele>
        <time>2015-10-11T08:35:16Z</time>
      </trkpt>
      <trkpt lat="42.64434" lon="1.9593">
        <ele>1456.53</ele>
        <time>2015-10-11T08:35:29Z</time>
      </trkpt>
      <trkpt lat="42.64434" lon="1.9593">
        <ele>1460.38</ele>
        <time>2015-10-11T08:35:31Z</time>
      </trkpt>
      <trkpt lat="42.64434" lon="1.9593">
        <ele>1460.86</ele>
        <time>2015-10-11T08:35:32Z</time>
      </trkpt>
      <trkpt lat="42.64434" lon="1.9593">
        <ele>1457.5</ele>
        <time>2015-10-11T08:35:34Z</time>
      </trkpt>
      <trkpt lat="42.64434" lon="1.9593">
        <ele>1458.94</ele>
        <time>2015-10-11T08:35:35Z</time>
      </trkpt>
      <trkpt lat="42.64437" lon="1.95935">
        <ele>1457.98</ele>
        <time>2015-10-11T08:35:43Z</time>
      </trkpt>
      <trkpt lat="42.64464" lon="1.95962">
        <ele>1456.05</ele>
        <time>2015-10-11T08:36:05Z</time>
      </trkpt>
      <trkpt lat="42.64478" lon="1.95981">
        <ele>1455.57</ele>
        <time>2015-10-11T08:36:25Z</time>
      </trkpt>
      <trkpt lat="42.64479" lon="1.95986">
        <ele>1455.57</ele>
        <time>2015-10-11T08:36:37Z</time>
      </trkpt>
      <trkpt lat="42.64486" lon="1.95993">
        <ele>1451.73</ele>
        <time>2015-10-11T08:36:46Z</time>
      </trkpt>
      <trkpt lat="42.64486" lon="1.95994">
        <ele>1454.13</ele>
        <time>2015-10-11T08:36:47Z</time>
      </trkpt>
      <trkpt lat="42.64496" lon="1.96024">
        <ele>1455.09</ele>
        <time>2015-10-11T08:37:11Z</time>
      </trkpt>
      <trkpt lat="42.6451" lon="1.96038">
        <ele>1454.61</ele>
        <time>2015-10-11T08:37:26Z</time>
      </trkpt>
      <trkpt lat="42.6453" lon="1.96038">
        <ele>1452.69</ele>
        <time>2015-10-11T08:37:35Z</time>
      </trkpt>
      <trkpt lat="42.64533" lon="1.96037">
        <ele>1455.57</ele>
        <time>2015-10-11T08:37:36Z</time>
      </trkpt>
      <trkpt lat="42.64534" lon="1.96037">
        <ele>1456.05</ele>
        <time>2015-10-11T08:37:37Z</time>
      </trkpt>
      <trkpt lat="42.64537" lon="1.96037">
        <ele>1452.69</ele>
        <time>2015-10-11T08:37:39Z</time>
      </trkpt>
      <trkpt lat="42.64551" lon="1.96046">
        <ele>1455.57</ele>
        <time>2015-10-11T08:37:53Z</time>
      </trkpt>
      <trkpt lat="42.64554" lon="1.96048">
        <ele>1452.21</ele>
        <time>2015-10-11T08:37:56Z</time>
      </trkpt>
      <trkpt lat="42.64559" lon="1.96049">
        <ele>1451.25</ele>
        <time>2015-10-11T08:38:02Z</time>
      </trkpt>
      <trkpt lat="42.64563" lon="1.96049">
        <ele>1451.73</ele>
        <time>2015-10-11T08:38:05Z</time>
      </trkpt>
      <trkpt lat="42.64583" lon="1.96048">
        <ele>1451.25</ele>
        <time>2015-10-11T08:38:25Z</time>
      </trkpt>
      <trkpt lat="42.64588" lon="1.96051">
        <ele>1449.81</ele>
        <time>2015-10-11T08:38:31Z</time>
      </trkpt>
      <trkpt lat="42.64589" lon="1.96053">
        <ele>1450.29</ele>
        <time>2015-10-11T08:38:33Z</time>
      </trkpt>
      <trkpt lat="42.64596" lon="1.96053">
        <ele>1448.84</ele>
        <time>2015-10-11T08:38:40Z</time>
      </trkpt>
      <trkpt lat="42.64598" lon="1.96053">
        <ele>1452.21</ele>
        <time>2015-10-11T08:38:42Z</time>
      </trkpt>
      <trkpt lat="42.64599" lon="1.96053">
        <ele>1448.84</ele>
        <time>2015-10-11T08:38:43Z</time>
      </trkpt>
      <trkpt lat="42.6461" lon="1.9606">
        <ele>1450.29</ele>
        <time>2015-10-11T08:38:57Z</time>
      </trkpt>
      <trkpt lat="42.64613" lon="1.96061">
        <ele>1446.92</ele>
        <time>2015-10-11T08:39:00Z</time>
      </trkpt>
      <trkpt lat="42.64614" lon="1.96062">
        <ele>1450.29</ele>
        <time>2015-10-11T08:39:01Z</time>
      </trkpt>
      <trkpt lat="42.64617" lon="1.96063">
        <ele>1448.36</ele>
        <time>2015-10-11T08:39:04Z</time>
      </trkpt>
      <trkpt lat="42.6462" lon="1.96064">
        <ele>1449.81</ele>
        <time>2015-10-11T08:39:07Z</time>
      </trkpt>
      <trkpt lat="42.64629" lon="1.96069">
        <ele>1446.92</ele>
        <time>2015-10-11T08:39:16Z</time>
      </trkpt>
      <trkpt lat="42.64633" lon="1.96071">
        <ele>1447.88</ele>
        <time>2015-10-11T08:39:20Z</time>
      </trkpt>
      <trkpt lat="42.64635" lon="1.96073">
        <ele>1448.84</ele>
        <time>2015-10-11T08:39:23Z</time>
      </trkpt>
      <trkpt lat="42.64639" lon="1.96078">
        <ele>1446.44</ele>
        <time>2015-10-11T08:39:28Z</time>
      </trkpt>
      <trkpt lat="42.64647" lon="1.96086">
        <ele>1446.44</ele>
        <time>2015-10-11T08:39:38Z</time>
      </trkpt>
      <trkpt lat="42.64654" lon="1.96092">
        <ele>1447.88</ele>
        <time>2015-10-11T08:39:47Z</time>
      </trkpt>
      <trkpt lat="42.64658" lon="1.96097">
        <ele>1445</ele>
        <time>2015-10-11T08:39:52Z</time>
      </trkpt>
      <trkpt lat="42.64672" lon="1.96109">
        <ele>1444.04</ele>
        <time>2015-10-11T08:40:04Z</time>
      </trkpt>
      <trkpt lat="42.64678" lon="1.96118">
        <ele>1442.11</ele>
        <time>2015-10-11T08:40:11Z</time>
      </trkpt>
      <trkpt lat="42.64687" lon="1.9612">
        <ele>1445</ele>
        <time>2015-10-11T08:40:19Z</time>
      </trkpt>
      <trkpt lat="42.64694" lon="1.96128">
        <ele>1442.11</ele>
        <time>2015-10-11T08:40:29Z</time>
      </trkpt>
      <trkpt lat="42.64718" lon="1.9613">
        <ele>1443.56</ele>
        <time>2015-10-11T08:40:46Z</time>
      </trkpt>
      <trkpt lat="42.64719" lon="1.96129">
        <ele>1439.71</ele>
        <time>2015-10-11T08:40:47Z</time>
      </trkpt>
      <trkpt lat="42.64719" lon="1.96129">
        <ele>1440.67</ele>
        <time>2015-10-11T08:40:48Z</time>
      </trkpt>
      <trkpt lat="42.64721" lon="1.96129">
        <ele>1439.71</ele>
        <time>2015-10-11T08:40:50Z</time>
      </trkpt>
      <trkpt lat="42.64721" lon="1.96129">
        <ele>1443.08</ele>
        <time>2015-10-11T08:40:51Z</time>
      </trkpt>
      <trkpt lat="42.64722" lon="1.96129">
        <ele>1439.71</ele>
        <time>2015-10-11T08:40:52Z</time>
      </trkpt>
      <trkpt lat="42.64726" lon="1.9613">
        <ele>1441.63</ele>
        <time>2015-10-11T08:40:59Z</time>
      </trkpt>
      <trkpt lat="42.64745" lon="1.9613">
        <ele>1440.19</ele>
        <time>2015-10-11T08:41:17Z</time>
      </trkpt>
      <trkpt lat="42.64754" lon="1.96129">
        <ele>1440.19</ele>
        <time>2015-10-11T08:41:25Z</time>
      </trkpt>
      <trkpt lat="42.6477" lon="1.96128">
        <ele>1440.67</ele>
        <time>2015-10-11T08:41:37Z</time>
      </trkpt>
      <trkpt lat="42.64777" lon="1.96122">
        <ele>1440.19</ele>
        <time>2015-10-11T08:41:45Z</time>
      </trkpt>
      <trkpt lat="42.64778" lon="1.9612">
        <ele>1442.6</ele>
        <time>2015-10-11T08:41:47Z</time>
      </trkpt>
      <trkpt lat="42.64793" lon="1.96117">
        <ele>1443.56</ele>
        <time>2015-10-11T08:42:02Z</time>
      </trkpt>
      <trkpt lat="42.64794" lon="1.96117">
        <ele>1441.63</ele>
        <time>2015-10-11T08:42:03Z</time>
      </trkpt>
      <trkpt lat="42.648" lon="1.96119">
        <ele>1443.08</ele>
        <time>2015-10-11T08:42:09Z</time>
      </trkpt>
      <trkpt lat="42.64802" lon="1.9612">
        <ele>1441.63</ele>
        <time>2015-10-11T08:42:11Z</time>
      </trkpt>
      <trkpt lat="42.64818" lon="1.96129">
        <ele>1441.63</ele>
        <time>2015-10-11T08:42:28Z</time>
      </trkpt>
      <trkpt lat="42.64834" lon="1.96141">
        <ele>1440.19</ele>
        <time>2015-10-11T08:42:45Z</time>
      </trkpt>
      <trkpt lat="42.64837" lon="1.96144">
        <ele>1441.63</ele>
        <time>2015-10-11T08:42:48Z</time>
      </trkpt>
      <trkpt lat="42.64843" lon="1.96148">
        <ele>1441.15</ele>
        <time>2015-10-11T08:42:54Z</time>
      </trkpt>
      <trkpt lat="42.64849" lon="1.96149">
        <ele>1442.6</ele>
        <time>2015-10-11T08:43:00Z</time>
      </trkpt>
      <trkpt lat="42.64853" lon="1.9615">
        <ele>1438.75</ele>
        <time>2015-10-11T08:43:04Z</time>
      </trkpt>
      <trkpt lat="42.64855" lon="1.96151">
        <ele>1442.6</ele>
        <time>2015-10-11T08:43:07Z</time>
      </trkpt>
      <trkpt lat="42.64856" lon="1.96152">
        <ele>1438.27</ele>
        <time>2015-10-11T08:43:08Z</time>
      </trkpt>
      <trkpt lat="42.64861" lon="1.96153">
        <ele>1441.63</ele>
        <time>2015-10-11T08:43:12Z</time>
      </trkpt>
      <trkpt lat="42.64879" lon="1.96165">
        <ele>1443.08</ele>
        <time>2015-10-11T08:43:31Z</time>
      </trkpt>
      <trkpt lat="42.6489" lon="1.96174">
        <ele>1438.75</ele>
        <time>2015-10-11T08:43:42Z</time>
      </trkpt>
      <trkpt lat="42.64891" lon="1.96174">
        <ele>1440.67</ele>
        <time>2015-10-11T08:43:43Z</time>
      </trkpt>
      <trkpt lat="42.64896" lon="1.96178">
        <ele>1442.6</ele>
        <time>2015-10-11T08:43:48Z</time>
      </trkpt>
      <trkpt lat="42.64915" lon="1.96186">
        <ele>1442.6</ele>
        <time>2015-10-11T08:44:05Z</time>
      </trkpt>
      <trkpt lat="42.64932" lon="1.96192">
        <ele>1444.52</ele>
        <time>2015-10-11T08:44:20Z</time>
      </trkpt>
      <trkpt lat="42.64937" lon="1.96197">
        <ele>1440.19</ele>
        <time>2015-10-11T08:44:26Z</time>
      </trkpt>
      <trkpt lat="42.64938" lon="1.96198">
        <ele>1445</ele>
        <time>2015-10-11T08:44:27Z</time>
      </trkpt>
      <trkpt lat="42.64939" lon="1.96199">
        <ele>1443.56</ele>
        <time>2015-10-11T08:44:28Z</time>
      </trkpt>
      <trkpt lat="42.64953" lon="1.96203">
        <ele>1445.48</ele>
        <time>2015-10-11T08:44:42Z</time>
      </trkpt>
      <trkpt lat="42.64971" lon="1.96206">
        <ele>1445</ele>
        <time>2015-10-11T08:44:59Z</time>
      </trkpt>
      <trkpt lat="42.64974" lon="1.96207">
        <ele>1443.56</ele>
        <time>2015-10-11T08:45:02Z</time>
      </trkpt>
      <trkpt lat="42.64982" lon="1.9621">
        <ele>1446.44</ele>
        <time>2015-10-11T08:45:08Z</time>
      </trkpt>
      <trkpt lat="42.64997" lon="1.96218">
        <ele>1448.84</ele>
        <time>2015-10-11T08:45:24Z</time>
      </trkpt>
      <trkpt lat="42.64999" lon="1.96219">
        <ele>1444.04</ele>
        <time>2015-10-11T08:45:26Z</time>
      </trkpt>
      <trkpt lat="42.65" lon="1.96219">
        <ele>1450.77</ele>
        <time>2015-10-11T08:45:27Z</time>
      </trkpt>
      <trkpt lat="42.65001" lon="1.96219">
        <ele>1445.96</ele>
        <time>2015-10-11T08:45:28Z</time>
      </trkpt>
      <trkpt lat="42.65009" lon="1.96222">
        <ele>1447.4</ele>
        <time>2015-10-11T08:45:36Z</time>
      </trkpt>
      <trkpt lat="42.65011" lon="1.96222">
        <ele>1446.44</ele>
        <time>2015-10-11T08:45:38Z</time>
      </trkpt>
      <trkpt lat="42.65027" lon="1.96227">
        <ele>1450.29</ele>
        <time>2015-10-11T08:45:53Z</time>
      </trkpt>
      <trkpt lat="42.65028" lon="1.96227">
        <ele>1447.4</ele>
        <time>2015-10-11T08:45:54Z</time>
      </trkpt>
      <trkpt lat="42.65048" lon="1.96229">
        <ele>1446.92</ele>
        <time>2015-10-11T08:46:12Z</time>
      </trkpt>
      <trkpt lat="42.65059" lon="1.96228">
        <ele>1450.77</ele>
        <time>2015-10-11T08:46:22Z</time>
      </trkpt>
      <trkpt lat="42.6506" lon="1.96227">
        <ele>1445.96</ele>
        <time>2015-10-11T08:46:23Z</time>
      </trkpt>
      <trkpt lat="42.65066" lon="1.96226">
        <ele>1449.32</ele>
        <time>2015-10-11T08:46:28Z</time>
      </trkpt>
      <trkpt lat="42.65068" lon="1.96225">
        <ele>1445.48</ele>
        <time>2015-10-11T08:46:30Z</time>
      </trkpt>
      <trkpt lat="42.6507" lon="1.96225">
        <ele>1448.36</ele>
        <time>2015-10-11T08:46:31Z</time>
      </trkpt>
      <trkpt lat="42.65073" lon="1.96224">
        <ele>1446.92</ele>
        <time>2015-10-11T08:46:34Z</time>
      </trkpt>
      <trkpt lat="42.65075" lon="1.96223">
        <ele>1449.32</ele>
        <time>2015-10-11T08:46:36Z</time>
      </trkpt>
      <trkpt lat="42.65077" lon="1.96222">
        <ele>1446.92</ele>
        <time>2015-10-11T08:46:45Z</time>
      </trkpt>
      <trkpt lat="42.65078" lon="1.96224">
        <ele>1445.48</ele>
        <time>2015-10-11T08:46:48Z</time>
      </trkpt>
      <trkpt lat="42.65082" lon="1.96226">
        <ele>1449.81</ele>
        <time>2015-10-11T08:46:52Z</time>
      </trkpt>
      <trkpt lat="42.6509" lon="1.96222">
        <ele>1445.96</ele>
        <time>2015-10-11T08:47:00Z</time>
      </trkpt>
      <trkpt lat="42.65099" lon="1.96221">
        <ele>1445.48</ele>
        <time>2015-10-11T08:47:08Z</time>
      </trkpt>
      <trkpt lat="42.65103" lon="1.9622">
        <ele>1447.4</ele>
        <time>2015-10-11T08:47:11Z</time>
      </trkpt>
      <trkpt lat="42.6511" lon="1.96218">
        <ele>1443.08</ele>
        <time>2015-10-11T08:47:17Z</time>
      </trkpt>
      <trkpt lat="42.65112" lon="1.96217">
        <ele>1444.52</ele>
        <time>2015-10-11T08:47:18Z</time>
      </trkpt>
      <trkpt lat="42.65123" lon="1.96213">
        <ele>1444.52</ele>
        <time>2015-10-11T08:47:28Z</time>
      </trkpt>
      <trkpt lat="42.65133" lon="1.9621">
        <ele>1440.67</ele>
        <time>2015-10-11T08:47:36Z</time>
      </trkpt>
      <trkpt lat="42.65135" lon="1.9621">
        <ele>1445.48</ele>
        <time>2015-10-11T08:47:37Z</time>
      </trkpt>
      <trkpt lat="42.65138" lon="1.96209">
        <ele>1442.6</ele>
        <time>2015-10-11T08:47:39Z</time>
      </trkpt>
      <trkpt lat="42.65139" lon="1.96209">
        <ele>1443.08</ele>
        <time>2015-10-11T08:47:40Z</time>
      </trkpt>
      <trkpt lat="42.65161" lon="1.96209">
        <ele>1442.6</ele>
        <time>2015-10-11T08:47:58Z</time>
      </trkpt>
      <trkpt lat="42.65177" lon="1.96211">
        <ele>1439.23</ele>
        <time>2015-10-11T08:48:11Z</time>
      </trkpt>
      <trkpt lat="42.65178" lon="1.96211">
        <ele>1441.15</ele>
        <time>2015-10-11T08:48:12Z</time>
      </trkpt>
      <trkpt lat="42.65192" lon="1.96223">
        <ele>1439.71</ele>
        <time>2015-10-11T08:48:27Z</time>
      </trkpt>
      <trkpt lat="42.65203" lon="1.9623">
        <ele>1439.71</ele>
        <time>2015-10-11T08:48:41Z</time>
      </trkpt>
      <trkpt lat="42.65211" lon="1.9623">
        <ele>1436.35</ele>
        <time>2015-10-11T08:48:52Z</time>
      </trkpt>
      <trkpt lat="42.65213" lon="1.96231">
        <ele>1439.71</ele>
        <time>2015-10-11T08:48:55Z</time>
      </trkpt>
      <trkpt lat="42.65214" lon="1.96231">
        <ele>1436.35</ele>
        <time>2015-10-11T08:48:56Z</time>
      </trkpt>
      <trkpt lat="42.65217" lon="1.96229">
        <ele>1440.67</ele>
        <time>2015-10-11T08:48:59Z</time>
      </trkpt>
      <trkpt lat="42.65218" lon="1.96229">
        <ele>1438.75</ele>
        <time>2015-10-11T08:49:00Z</time>
      </trkpt>
      <trkpt lat="42.6522" lon="1.96228">
        <ele>1438.75</ele>
        <time>2015-10-11T08:49:02Z</time>
      </trkpt>
      <trkpt lat="42.65233" lon="1.96229">
        <ele>1433.94</ele>
        <time>2015-10-11T08:49:20Z</time>
      </trkpt>
      <trkpt lat="42.65234" lon="1.96229">
        <ele>1435.39</ele>
        <time>2015-10-11T08:49:21Z</time>
      </trkpt>
      <trkpt lat="42.65238" lon="1.96234">
        <ele>1432.98</ele>
        <time>2015-10-11T08:49:28Z</time>
      </trkpt>
      <trkpt lat="42.6524" lon="1.96235">
        <ele>1435.39</ele>
        <time>2015-10-11T08:49:30Z</time>
      </trkpt>
      <trkpt lat="42.65242" lon="1.96237">
        <ele>1433.46</ele>
        <time>2015-10-11T08:49:33Z</time>
      </trkpt>
      <trkpt lat="42.65244" lon="1.96245">
        <ele>1433.46</ele>
        <time>2015-10-11T08:49:46Z</time>
      </trkpt>
      <trkpt lat="42.65245" lon="1.9625">
        <ele>1432.02</ele>
        <time>2015-10-11T08:50:02Z</time>
      </trkpt>
      <trkpt lat="42.65245" lon="1.96253">
        <ele>1432.98</ele>
        <time>2015-10-11T08:50:06Z</time>
      </trkpt>
      <trkpt lat="42.65251" lon="1.9626">
        <ele>1430.1</ele>
        <time>2015-10-11T08:50:20Z</time>
      </trkpt>
      <trkpt lat="42.65263" lon="1.96268">
        <ele>1428.66</ele>
        <time>2015-10-11T08:50:34Z</time>
      </trkpt>
      <trkpt lat="42.65276" lon="1.96277">
        <ele>1427.21</ele>
        <time>2015-10-11T08:50:48Z</time>
      </trkpt>
      <trkpt lat="42.65279" lon="1.96279">
        <ele>1423.85</ele>
        <time>2015-10-11T08:50:52Z</time>
      </trkpt>
      <trkpt lat="42.65284" lon="1.96282">
        <ele>1423.85</ele>
        <time>2015-10-11T08:50:57Z</time>
      </trkpt>
      <trkpt lat="42.65288" lon="1.96283">
        <ele>1420.97</ele>
        <time>2015-10-11T08:51:01Z</time>
      </trkpt>
      <trkpt lat="42.65289" lon="1.96283">
        <ele>1421.93</ele>
        <time>2015-10-11T08:51:02Z</time>
      </trkpt>
      <trkpt lat="42.6529" lon="1.96284">
        <ele>1422.89</ele>
        <time>2015-10-11T08:51:04Z</time>
      </trkpt>
      <trkpt lat="42.653" lon="1.96287">
        <ele>1420.49</ele>
        <time>2015-10-11T08:51:14Z</time>
      </trkpt>
      <trkpt lat="42.65301" lon="1.96287">
        <ele>1423.85</ele>
        <time>2015-10-11T08:51:15Z</time>
      </trkpt>
      <trkpt lat="42.65301" lon="1.96288">
        <ele>1423.37</ele>
        <time>2015-10-11T08:51:16Z</time>
      </trkpt>
      <trkpt lat="42.65303" lon="1.96289">
        <ele>1420.49</ele>
        <time>2015-10-11T08:51:18Z</time>
      </trkpt>
      <trkpt lat="42.65304" lon="1.9629">
        <ele>1421.93</ele>
        <time>2015-10-11T08:51:20Z</time>
      </trkpt>
      <trkpt lat="42.65306" lon="1.96291">
        <ele>1419.04</ele>
        <time>2015-10-11T08:51:22Z</time>
      </trkpt>
      <trkpt lat="42.65307" lon="1.96292">
        <ele>1420.49</ele>
        <time>2015-10-11T08:51:23Z</time>
      </trkpt>
      <trkpt lat="42.65313" lon="1.96295">
        <ele>1419.04</ele>
        <time>2015-10-11T08:51:30Z</time>
      </trkpt>
      <trkpt lat="42.65327" lon="1.96298">
        <ele>1415.68</ele>
        <time>2015-10-11T08:51:44Z</time>
      </trkpt>
      <trkpt lat="42.6534" lon="1.96302">
        <ele>1419.52</ele>
        <time>2015-10-11T08:51:56Z</time>
      </trkpt>
      <trkpt lat="42.65342" lon="1.96302">
        <ele>1416.16</ele>
        <time>2015-10-11T08:51:58Z</time>
      </trkpt>
      <trkpt lat="42.65358" lon="1.96311">
        <ele>1417.12</ele>
        <time>2015-10-11T08:52:14Z</time>
      </trkpt>
      <trkpt lat="42.65368" lon="1.96319">
        <ele>1415.2</ele>
        <time>2015-10-11T08:52:24Z</time>
      </trkpt>
      <trkpt lat="42.65371" lon="1.9632">
        <ele>1417.6</ele>
        <time>2015-10-11T08:52:26Z</time>
      </trkpt>
      <trkpt lat="42.65386" lon="1.96327">
        <ele>1414.24</ele>
        <time>2015-10-11T08:52:40Z</time>
      </trkpt>
      <trkpt lat="42.65407" lon="1.96341">
        <ele>1415.2</ele>
        <time>2015-10-11T08:52:58Z</time>
      </trkpt>
      <trkpt lat="42.65421" lon="1.96349">
        <ele>1410.87</ele>
        <time>2015-10-11T08:53:11Z</time>
      </trkpt>
      <trkpt lat="42.65422" lon="1.96349">
        <ele>1414.72</ele>
        <time>2015-10-11T08:53:12Z</time>
      </trkpt>
      <trkpt lat="42.65434" lon="1.96356">
        <ele>1411.83</ele>
        <time>2015-10-11T08:53:23Z</time>
      </trkpt>
      <trkpt lat="42.65446" lon="1.96363">
        <ele>1411.35</ele>
        <time>2015-10-11T08:53:33Z</time>
      </trkpt>
      <trkpt lat="42.65448" lon="1.96365">
        <ele>1411.83</ele>
        <time>2015-10-11T08:53:35Z</time>
      </trkpt>
      <trkpt lat="42.65452" lon="1.96368">
        <ele>1410.87</ele>
        <time>2015-10-11T08:53:39Z</time>
      </trkpt>
      <trkpt lat="42.65475" lon="1.96389">
        <ele>1409.43</ele>
        <time>2015-10-11T08:54:01Z</time>
      </trkpt>
      <trkpt lat="42.65481" lon="1.96393">
        <ele>1409.91</ele>
        <time>2015-10-11T08:54:06Z</time>
      </trkpt>
      <trkpt lat="42.65483" lon="1.96395">
        <ele>1408.95</ele>
        <time>2015-10-11T08:54:08Z</time>
      </trkpt>
      <trkpt lat="42.65505" lon="1.96405">
        <ele>1407.51</ele>
        <time>2015-10-11T08:54:28Z</time>
      </trkpt>
      <trkpt lat="42.65507" lon="1.96405">
        <ele>1407.99</ele>
        <time>2015-10-11T08:54:29Z</time>
      </trkpt>
      <trkpt lat="42.65509" lon="1.96406">
        <ele>1404.62</ele>
        <time>2015-10-11T08:54:31Z</time>
      </trkpt>
      <trkpt lat="42.65511" lon="1.96407">
        <ele>1407.99</ele>
        <time>2015-10-11T08:54:33Z</time>
      </trkpt>
      <trkpt lat="42.65513" lon="1.96407">
        <ele>1404.14</ele>
        <time>2015-10-11T08:54:34Z</time>
      </trkpt>
      <trkpt lat="42.65514" lon="1.96408">
        <ele>1407.99</ele>
        <time>2015-10-11T08:54:35Z</time>
      </trkpt>
      <trkpt lat="42.65515" lon="1.96408">
        <ele>1404.14</ele>
        <time>2015-10-11T08:54:36Z</time>
      </trkpt>
      <trkpt lat="42.65517" lon="1.96409">
        <ele>1407.51</ele>
        <time>2015-10-11T08:54:38Z</time>
      </trkpt>
      <trkpt lat="42.65521" lon="1.96412">
        <ele>1404.14</ele>
        <time>2015-10-11T08:54:41Z</time>
      </trkpt>
      <trkpt lat="42.65522" lon="1.96412">
        <ele>1405.58</ele>
        <time>2015-10-11T08:54:42Z</time>
      </trkpt>
      <trkpt lat="42.65524" lon="1.96413">
        <ele>1408.47</ele>
        <time>2015-10-11T08:54:44Z</time>
      </trkpt>
      <trkpt lat="42.65525" lon="1.96414">
        <ele>1404.14</ele>
        <time>2015-10-11T08:54:45Z</time>
      </trkpt>
      <trkpt lat="42.65536" lon="1.96418">
        <ele>1403.66</ele>
        <time>2015-10-11T08:54:55Z</time>
      </trkpt>
      <trkpt lat="42.65543" lon="1.96421">
        <ele>1405.58</ele>
        <time>2015-10-11T08:55:01Z</time>
      </trkpt>
      <trkpt lat="42.65549" lon="1.96423">
        <ele>1403.18</ele>
        <time>2015-10-11T08:55:06Z</time>
      </trkpt>
      <trkpt lat="42.6555" lon="1.96423">
        <ele>1403.66</ele>
        <time>2015-10-11T08:55:07Z</time>
      </trkpt>
      <trkpt lat="42.65552" lon="1.96424">
        <ele>1404.62</ele>
        <time>2015-10-11T08:55:09Z</time>
      </trkpt>
      <trkpt lat="42.65559" lon="1.96428">
        <ele>1404.14</ele>
        <time>2015-10-11T08:55:17Z</time>
      </trkpt>
      <trkpt lat="42.65579" lon="1.96433">
        <ele>1403.66</ele>
        <time>2015-10-11T08:55:34Z</time>
      </trkpt>
      <trkpt lat="42.65582" lon="1.96433">
        <ele>1399.82</ele>
        <time>2015-10-11T08:55:36Z</time>
      </trkpt>
      <trkpt lat="42.65583" lon="1.96433">
        <ele>1404.62</ele>
        <time>2015-10-11T08:55:37Z</time>
      </trkpt>
      <trkpt lat="42.65584" lon="1.96433">
        <ele>1404.14</ele>
        <time>2015-10-11T08:55:38Z</time>
      </trkpt>
      <trkpt lat="42.65599" lon="1.96437">
        <ele>1400.78</ele>
        <time>2015-10-11T08:55:51Z</time>
      </trkpt>
      <trkpt lat="42.656" lon="1.96438">
        <ele>1400.78</ele>
        <time>2015-10-11T08:55:52Z</time>
      </trkpt>
      <trkpt lat="42.65606" lon="1.96442">
        <ele>1404.62</ele>
        <time>2015-10-11T08:55:57Z</time>
      </trkpt>
      <trkpt lat="42.65608" lon="1.96443">
        <ele>1401.26</ele>
        <time>2015-10-11T08:55:59Z</time>
      </trkpt>
      <trkpt lat="42.65609" lon="1.96443">
        <ele>1404.62</ele>
        <time>2015-10-11T08:56:00Z</time>
      </trkpt>
      <trkpt lat="42.65612" lon="1.96445">
        <ele>1402.22</ele>
        <time>2015-10-11T08:56:03Z</time>
      </trkpt>
      <trkpt lat="42.65637" lon="1.96459">
        <ele>1403.66</ele>
        <time>2015-10-11T08:56:25Z</time>
      </trkpt>
      <trkpt lat="42.6565" lon="1.96469">
        <ele>1402.22</ele>
        <time>2015-10-11T08:56:38Z</time>
      </trkpt>
      <trkpt lat="42.6566" lon="1.96479">
        <ele>1405.1</ele>
        <time>2015-10-11T08:56:48Z</time>
      </trkpt>
      <trkpt lat="42.65662" lon="1.96481">
        <ele>1402.22</ele>
        <time>2015-10-11T08:56:50Z</time>
      </trkpt>
      <trkpt lat="42.65668" lon="1.96487">
        <ele>1405.58</ele>
        <time>2015-10-11T08:56:56Z</time>
      </trkpt>
      <trkpt lat="42.65671" lon="1.96488">
        <ele>1401.74</ele>
        <time>2015-10-11T08:56:58Z</time>
      </trkpt>
      <trkpt lat="42.65674" lon="1.9649">
        <ele>1405.58</ele>
        <time>2015-10-11T08:57:00Z</time>
      </trkpt>
      <trkpt lat="42.65675" lon="1.96491">
        <ele>1404.14</ele>
        <time>2015-10-11T08:57:01Z</time>
      </trkpt>
      <trkpt lat="42.65677" lon="1.96492">
        <ele>1403.18</ele>
        <time>2015-10-11T08:57:03Z</time>
      </trkpt>
      <trkpt lat="42.65684" lon="1.96496">
        <ele>1402.22</ele>
        <time>2015-10-11T08:57:09Z</time>
      </trkpt>
      <trkpt lat="42.65694" lon="1.96496">
        <ele>1400.78</ele>
        <time>2015-10-11T08:57:19Z</time>
      </trkpt>
      <trkpt lat="42.65702" lon="1.96501">
        <ele>1402.7</ele>
        <time>2015-10-11T08:57:28Z</time>
      </trkpt>
      <trkpt lat="42.65704" lon="1.96503">
        <ele>1402.22</ele>
        <time>2015-10-11T08:57:30Z</time>
      </trkpt>
      <trkpt lat="42.65705" lon="1.96503">
        <ele>1398.86</ele>
        <time>2015-10-11T08:57:31Z</time>
      </trkpt>
      <trkpt lat="42.65707" lon="1.96503">
        <ele>1402.22</ele>
        <time>2015-10-11T08:57:32Z</time>
      </trkpt>
      <trkpt lat="42.65711" lon="1.96505">
        <ele>1403.18</ele>
        <time>2015-10-11T08:57:36Z</time>
      </trkpt>
      <trkpt lat="42.65731" lon="1.96504">
        <ele>1399.34</ele>
        <time>2015-10-11T08:57:52Z</time>
      </trkpt>
      <trkpt lat="42.65735" lon="1.96503">
        <ele>1403.66</ele>
        <time>2015-10-11T08:57:55Z</time>
      </trkpt>
      <trkpt lat="42.65737" lon="1.965">
        <ele>1400.3</ele>
        <time>2015-10-11T08:57:57Z</time>
      </trkpt>
      <trkpt lat="42.65741" lon="1.96496">
        <ele>1403.66</ele>
        <time>2015-10-11T08:58:00Z</time>
      </trkpt>
      <trkpt lat="42.65742" lon="1.96495">
        <ele>1399.82</ele>
        <time>2015-10-11T08:58:01Z</time>
      </trkpt>
      <trkpt lat="42.65752" lon="1.96491">
        <ele>1398.37</ele>
        <time>2015-10-11T08:58:09Z</time>
      </trkpt>
      <trkpt lat="42.65756" lon="1.96491">
        <ele>1403.18</ele>
        <time>2015-10-11T08:58:13Z</time>
      </trkpt>
      <trkpt lat="42.65757" lon="1.96491">
        <ele>1400.3</ele>
        <time>2015-10-11T08:58:14Z</time>
      </trkpt>
      <trkpt lat="42.6576" lon="1.96491">
        <ele>1399.82</ele>
        <time>2015-10-11T08:58:17Z</time>
      </trkpt>
      <trkpt lat="42.65762" lon="1.96491">
        <ele>1399.34</ele>
        <time>2015-10-11T08:58:19Z</time>
      </trkpt>
      <trkpt lat="42.65765" lon="1.96492">
        <ele>1399.82</ele>
        <time>2015-10-11T08:58:22Z</time>
      </trkpt>
      <trkpt lat="42.65768" lon="1.96493">
        <ele>1402.22</ele>
        <time>2015-10-11T08:58:24Z</time>
      </trkpt>
      <trkpt lat="42.65777" lon="1.96495">
        <ele>1398.86</ele>
        <time>2015-10-11T08:58:32Z</time>
      </trkpt>
      <trkpt lat="42.65782" lon="1.96496">
        <ele>1397.89</ele>
        <time>2015-10-11T08:58:36Z</time>
      </trkpt>
      <trkpt lat="42.65784" lon="1.96496">
        <ele>1401.74</ele>
        <time>2015-10-11T08:58:38Z</time>
      </trkpt>
      <trkpt lat="42.65785" lon="1.96497">
        <ele>1401.26</ele>
        <time>2015-10-11T08:58:39Z</time>
      </trkpt>
      <trkpt lat="42.65792" lon="1.96497">
        <ele>1397.41</ele>
        <time>2015-10-11T08:58:45Z</time>
      </trkpt>
      <trkpt lat="42.65794" lon="1.96497">
        <ele>1400.78</ele>
        <time>2015-10-11T08:58:46Z</time>
      </trkpt>
      <trkpt lat="42.65801" lon="1.96496">
        <ele>1400.78</ele>
        <time>2015-10-11T08:58:51Z</time>
      </trkpt>
      <trkpt lat="42.65807" lon="1.96494">
        <ele>1400.78</ele>
        <time>2015-10-11T08:58:56Z</time>
      </trkpt>
      <trkpt lat="42.65814" lon="1.96489">
        <ele>1397.89</ele>
        <time>2015-10-11T08:59:02Z</time>
      </trkpt>
      <trkpt lat="42.65829" lon="1.96478">
        <ele>1397.89</ele>
        <time>2015-10-11T08:59:17Z</time>
      </trkpt>
      <trkpt lat="42.65833" lon="1.96476">
        <ele>1396.45</ele>
        <time>2015-10-11T08:59:20Z</time>
      </trkpt>
      <trkpt lat="42.6585" lon="1.96473">
        <ele>1396.93</ele>
        <time>2015-10-11T08:59:35Z</time>
      </trkpt>
      <trkpt lat="42.65854" lon="1.96473">
        <ele>1394.53</ele>
        <time>2015-10-11T08:59:38Z</time>
      </trkpt>
      <trkpt lat="42.65855" lon="1.96473">
        <ele>1393.57</ele>
        <time>2015-10-11T08:59:39Z</time>
      </trkpt>
      <trkpt lat="42.65872" lon="1.96466">
        <ele>1393.09</ele>
        <time>2015-10-11T08:59:54Z</time>
      </trkpt>
      <trkpt lat="42.65882" lon="1.96459">
        <ele>1391.17</ele>
        <time>2015-10-11T09:00:05Z</time>
      </trkpt>
      <trkpt lat="42.65902" lon="1.96449">
        <ele>1388.28</ele>
        <time>2015-10-11T09:00:23Z</time>
      </trkpt>
      <trkpt lat="42.65904" lon="1.96449">
        <ele>1390.2</ele>
        <time>2015-10-11T09:00:24Z</time>
      </trkpt>
      <trkpt lat="42.65913" lon="1.96447">
        <ele>1388.76</ele>
        <time>2015-10-11T09:00:32Z</time>
      </trkpt>
      <trkpt lat="42.6592" lon="1.96447">
        <ele>1389.24</ele>
        <time>2015-10-11T09:00:39Z</time>
      </trkpt>
      <trkpt lat="42.65933" lon="1.96453">
        <ele>1385.88</ele>
        <time>2015-10-11T09:00:54Z</time>
      </trkpt>
      <trkpt lat="42.6594" lon="1.96466">
        <ele>1385.4</ele>
        <time>2015-10-11T09:01:04Z</time>
      </trkpt>
      <trkpt lat="42.65944" lon="1.96475">
        <ele>1384.92</ele>
        <time>2015-10-11T09:01:11Z</time>
      </trkpt>
      <trkpt lat="42.65947" lon="1.96479">
        <ele>1388.76</ele>
        <time>2015-10-11T09:01:14Z</time>
      </trkpt>
      <trkpt lat="42.6595" lon="1.96484">
        <ele>1385.4</ele>
        <time>2015-10-11T09:01:17Z</time>
      </trkpt>
      <trkpt lat="42.65952" lon="1.96487">
        <ele>1383.47</ele>
        <time>2015-10-11T09:01:20Z</time>
      </trkpt>
      <trkpt lat="42.65954" lon="1.9649">
        <ele>1386.84</ele>
        <time>2015-10-11T09:01:24Z</time>
      </trkpt>
      <trkpt lat="42.65954" lon="1.9649">
        <ele>1386.84</ele>
        <time>2015-10-11T09:01:25Z</time>
      </trkpt>
      <trkpt lat="42.65955" lon="1.96493">
        <ele>1383.47</ele>
        <time>2015-10-11T09:01:28Z</time>
      </trkpt>
      <trkpt lat="42.65963" lon="1.96502">
        <ele>1384.44</ele>
        <time>2015-10-11T09:01:36Z</time>
      </trkpt>
      <trkpt lat="42.65964" lon="1.96504">
        <ele>1380.59</ele>
        <time>2015-10-11T09:01:38Z</time>
      </trkpt>
      <trkpt lat="42.65965" lon="1.96507">
        <ele>1383.47</ele>
        <time>2015-10-11T09:01:42Z</time>
      </trkpt>
      <trkpt lat="42.6597" lon="1.96511">
        <ele>1380.11</ele>
        <time>2015-10-11T09:01:49Z</time>
      </trkpt>
      <trkpt lat="42.65974" lon="1.96515">
        <ele>1383.47</ele>
        <time>2015-10-11T09:01:54Z</time>
      </trkpt>
      <trkpt lat="42.65977" lon="1.96519">
        <ele>1380.59</ele>
        <time>2015-10-11T09:01:58Z</time>
      </trkpt>
      <trkpt lat="42.6599" lon="1.96522">
        <ele>1376.75</ele>
        <time>2015-10-11T09:02:10Z</time>
      </trkpt>
      <trkpt lat="42.65991" lon="1.96522">
        <ele>1379.63</ele>
        <time>2015-10-11T09:02:11Z</time>
      </trkpt>
      <trkpt lat="42.65993" lon="1.96522">
        <ele>1378.19</ele>
        <time>2015-10-11T09:02:13Z</time>
      </trkpt>
      <trkpt lat="42.65998" lon="1.96524">
        <ele>1380.59</ele>
        <time>2015-10-11T09:02:18Z</time>
      </trkpt>
      <trkpt lat="42.66002" lon="1.96529">
        <ele>1376.26</ele>
        <time>2015-10-11T09:02:23Z</time>
      </trkpt>
      <trkpt lat="42.66002" lon="1.96531">
        <ele>1377.23</ele>
        <time>2015-10-11T09:02:24Z</time>
      </trkpt>
      <trkpt lat="42.66002" lon="1.96541">
        <ele>1378.67</ele>
        <time>2015-10-11T09:02:31Z</time>
      </trkpt>
      <trkpt lat="42.66002" lon="1.96542">
        <ele>1374.82</ele>
        <time>2015-10-11T09:02:32Z</time>
      </trkpt>
      <trkpt lat="42.66001" lon="1.96543">
        <ele>1377.71</ele>
        <time>2015-10-11T09:02:38Z</time>
      </trkpt>
      <trkpt lat="42.66" lon="1.96543">
        <ele>1377.71</ele>
        <time>2015-10-11T09:02:39Z</time>
      </trkpt>
      <trkpt lat="42.65994" lon="1.9654">
        <ele>1375.3</ele>
        <time>2015-10-11T09:02:44Z</time>
      </trkpt>
      <trkpt lat="42.65987" lon="1.96532">
        <ele>1379.15</ele>
        <time>2015-10-11T09:02:49Z</time>
      </trkpt>
      <trkpt lat="42.65986" lon="1.9653">
        <ele>1375.78</ele>
        <time>2015-10-11T09:02:50Z</time>
      </trkpt>
      <trkpt lat="42.65976" lon="1.96523">
        <ele>1374.82</ele>
        <time>2015-10-11T09:02:58Z</time>
      </trkpt>
      <trkpt lat="42.65965" lon="1.96524">
        <ele>1372.42</ele>
        <time>2015-10-11T09:03:11Z</time>
      </trkpt>
      <trkpt lat="42.65959" lon="1.96526">
        <ele>1373.38</ele>
        <time>2015-10-11T09:03:17Z</time>
      </trkpt>
      <trkpt lat="42.65955" lon="1.96527">
        <ele>1371.94</ele>
        <time>2015-10-11T09:03:20Z</time>
      </trkpt>
      <trkpt lat="42.65953" lon="1.96528">
        <ele>1371.46</ele>
        <time>2015-10-11T09:03:22Z</time>
      </trkpt>
      <trkpt lat="42.65951" lon="1.96532">
        <ele>1368.57</ele>
        <time>2015-10-11T09:03:27Z</time>
      </trkpt>
      <trkpt lat="42.65954" lon="1.96544">
        <ele>1369.54</ele>
        <time>2015-10-11T09:03:35Z</time>
      </trkpt>
      <trkpt lat="42.65974" lon="1.96549">
        <ele>1367.13</ele>
        <time>2015-10-11T09:03:51Z</time>
      </trkpt>
      <trkpt lat="42.6599" lon="1.96551">
        <ele>1365.69</ele>
        <time>2015-10-11T09:04:07Z</time>
      </trkpt>
      <trkpt lat="42.65995" lon="1.96553">
        <ele>1363.77</ele>
        <time>2015-10-11T09:04:20Z</time>
      </trkpt>
      <trkpt lat="42.66001" lon="1.96554">
        <ele>1363.29</ele>
        <time>2015-10-11T09:04:26Z</time>
      </trkpt>
      <trkpt lat="42.66008" lon="1.96554">
        <ele>1362.33</ele>
        <time>2015-10-11T09:04:32Z</time>
      </trkpt>
      <trkpt lat="42.6602" lon="1.96563">
        <ele>1361.84</ele>
        <time>2015-10-11T09:04:44Z</time>
      </trkpt>
      <trkpt lat="42.66024" lon="1.96565">
        <ele>1361.84</ele>
        <time>2015-10-11T09:04:49Z</time>
      </trkpt>
      <trkpt lat="42.66034" lon="1.96569">
        <ele>1361.36</ele>
        <time>2015-10-11T09:05:04Z</time>
      </trkpt>
      <trkpt lat="42.66035" lon="1.96569">
        <ele>1356.56</ele>
        <time>2015-10-11T09:05:06Z</time>
      </trkpt>
      <trkpt lat="42.66043" lon="1.96571">
        <ele>1359.44</ele>
        <time>2015-10-11T09:05:14Z</time>
      </trkpt>
      <trkpt lat="42.66044" lon="1.96572">
        <ele>1356.08</ele>
        <time>2015-10-11T09:05:15Z</time>
      </trkpt>
      <trkpt lat="42.66053" lon="1.96578">
        <ele>1359.92</ele>
        <time>2015-10-11T09:05:24Z</time>
      </trkpt>
      <trkpt lat="42.66054" lon="1.96579">
        <ele>1356.56</ele>
        <time>2015-10-11T09:05:25Z</time>
      </trkpt>
      <trkpt lat="42.6607" lon="1.96597">
        <ele>1353.67</ele>
        <time>2015-10-11T09:05:42Z</time>
      </trkpt>
      <trkpt lat="42.66072" lon="1.96598">
        <ele>1356.08</ele>
        <time>2015-10-11T09:05:43Z</time>
      </trkpt>
      <trkpt lat="42.66074" lon="1.966">
        <ele>1357.04</ele>
        <time>2015-10-11T09:05:45Z</time>
      </trkpt>
      <trkpt lat="42.66088" lon="1.96602">
        <ele>1357.52</ele>
        <time>2015-10-11T09:05:56Z</time>
      </trkpt>
      <trkpt lat="42.66099" lon="1.96603">
        <ele>1358</ele>
        <time>2015-10-11T09:06:07Z</time>
      </trkpt>
      <trkpt lat="42.66109" lon="1.96608">
        <ele>1354.15</ele>
        <time>2015-10-11T09:06:15Z</time>
      </trkpt>
      <trkpt lat="42.66116" lon="1.9661">
        <ele>1356.56</ele>
        <time>2015-10-11T09:06:21Z</time>
      </trkpt>
      <trkpt lat="42.66123" lon="1.96613">
        <ele>1353.19</ele>
        <time>2015-10-11T09:06:28Z</time>
      </trkpt>
      <trkpt lat="42.66124" lon="1.96613">
        <ele>1354.63</ele>
        <time>2015-10-11T09:06:29Z</time>
      </trkpt>
      <trkpt lat="42.66127" lon="1.96614">
        <ele>1355.12</ele>
        <time>2015-10-11T09:06:32Z</time>
      </trkpt>
      <trkpt lat="42.66132" lon="1.96618">
        <ele>1358</ele>
        <time>2015-10-11T09:06:38Z</time>
      </trkpt>
      <trkpt lat="42.66132" lon="1.96619">
        <ele>1353.67</ele>
        <time>2015-10-11T09:06:39Z</time>
      </trkpt>
      <trkpt lat="42.66146" lon="1.9663">
        <ele>1351.75</ele>
        <time>2015-10-11T09:06:55Z</time>
      </trkpt>
      <trkpt lat="42.66151" lon="1.96631">
        <ele>1353.19</ele>
        <time>2015-10-11T09:07:00Z</time>
      </trkpt>
      <trkpt lat="42.66161" lon="1.96634">
        <ele>1351.75</ele>
        <time>2015-10-11T09:07:12Z</time>
      </trkpt>
      <trkpt lat="42.66181" lon="1.96628">
        <ele>1347.91</ele>
        <time>2015-10-11T09:07:27Z</time>
      </trkpt>
      <trkpt lat="42.66198" lon="1.96622">
        <ele>1352.23</ele>
        <time>2015-10-11T09:07:41Z</time>
      </trkpt>
      <trkpt lat="42.662" lon="1.96622">
        <ele>1349.35</ele>
        <time>2015-10-11T09:07:42Z</time>
      </trkpt>
      <trkpt lat="42.66203" lon="1.9662">
        <ele>1345.5</ele>
        <time>2015-10-11T09:07:45Z</time>
      </trkpt>
      <trkpt lat="42.66204" lon="1.9662">
        <ele>1349.83</ele>
        <time>2015-10-11T09:07:46Z</time>
      </trkpt>
      <trkpt lat="42.66207" lon="1.9662">
        <ele>1346.46</ele>
        <time>2015-10-11T09:07:49Z</time>
      </trkpt>
      <trkpt lat="42.66225" lon="1.96615">
        <ele>1347.43</ele>
        <time>2015-10-11T09:08:06Z</time>
      </trkpt>
      <trkpt lat="42.66231" lon="1.96612">
        <ele>1343.1</ele>
        <time>2015-10-11T09:08:11Z</time>
      </trkpt>
      <trkpt lat="42.66232" lon="1.96612">
        <ele>1347.91</ele>
        <time>2015-10-11T09:08:12Z</time>
      </trkpt>
      <trkpt lat="42.66244" lon="1.96614">
        <ele>1344.54</ele>
        <time>2015-10-11T09:08:23Z</time>
      </trkpt>
      <trkpt lat="42.66252" lon="1.96618">
        <ele>1340.7</ele>
        <time>2015-10-11T09:08:35Z</time>
      </trkpt>
      <trkpt lat="42.66253" lon="1.96618">
        <ele>1341.18</ele>
        <time>2015-10-11T09:08:36Z</time>
      </trkpt>
      <trkpt lat="42.66258" lon="1.96619">
        <ele>1341.66</ele>
        <time>2015-10-11T09:08:39Z</time>
      </trkpt>
      <trkpt lat="42.66271" lon="1.96631">
        <ele>1339.73</ele>
        <time>2015-10-11T09:08:54Z</time>
      </trkpt>
      <trkpt lat="42.66273" lon="1.96634">
        <ele>1337.81</ele>
        <time>2015-10-11T09:08:57Z</time>
      </trkpt>
      <trkpt lat="42.66281" lon="1.96641">
        <ele>1338.77</ele>
        <time>2015-10-11T09:09:07Z</time>
      </trkpt>
      <trkpt lat="42.66286" lon="1.96647">
        <ele>1336.37</ele>
        <time>2015-10-11T09:09:13Z</time>
      </trkpt>
      <trkpt lat="42.66292" lon="1.96655">
        <ele>1335.89</ele>
        <time>2015-10-11T09:09:23Z</time>
      </trkpt>
      <trkpt lat="42.66311" lon="1.96659">
        <ele>1333.97</ele>
        <time>2015-10-11T09:09:43Z</time>
      </trkpt>
      <trkpt lat="42.66334" lon="1.96654">
        <ele>1330.6</ele>
        <time>2015-10-11T09:10:06Z</time>
      </trkpt>
      <trkpt lat="42.66336" lon="1.96654">
        <ele>1330.6</ele>
        <time>2015-10-11T09:10:07Z</time>
      </trkpt>
      <trkpt lat="42.66342" lon="1.96654">
        <ele>1330.12</ele>
        <time>2015-10-11T09:10:12Z</time>
      </trkpt>
      <trkpt lat="42.66345" lon="1.96655">
        <ele>1330.6</ele>
        <time>2015-10-11T09:10:16Z</time>
      </trkpt>
      <trkpt lat="42.66349" lon="1.96655">
        <ele>1326.76</ele>
        <time>2015-10-11T09:10:22Z</time>
      </trkpt>
      <trkpt lat="42.66349" lon="1.96655">
        <ele>1328.2</ele>
        <time>2015-10-11T09:10:23Z</time>
      </trkpt>
      <trkpt lat="42.66349" lon="1.96653">
        <ele>1330.6</ele>
        <time>2015-10-11T09:10:28Z</time>
      </trkpt>
      <trkpt lat="42.66349" lon="1.9665">
        <ele>1327.24</ele>
        <time>2015-10-11T09:10:32Z</time>
      </trkpt>
      <trkpt lat="42.66353" lon="1.96649">
        <ele>1324.35</ele>
        <time>2015-10-11T09:10:40Z</time>
      </trkpt>
      <trkpt lat="42.66361" lon="1.96658">
        <ele>1322.91</ele>
        <time>2015-10-11T09:10:52Z</time>
      </trkpt>
      <trkpt lat="42.66361" lon="1.9666">
        <ele>1325.31</ele>
        <time>2015-10-11T09:10:54Z</time>
      </trkpt>
      <trkpt lat="42.66362" lon="1.96664">
        <ele>1323.39</ele>
        <time>2015-10-11T09:11:01Z</time>
      </trkpt>
      <trkpt lat="42.66351" lon="1.96679">
        <ele>1319.55</ele>
        <time>2015-10-11T09:11:21Z</time>
      </trkpt>
      <trkpt lat="42.6635" lon="1.96679">
        <ele>1320.03</ele>
        <time>2015-10-11T09:11:22Z</time>
      </trkpt>
      <trkpt lat="42.66332" lon="1.96677">
        <ele>1320.51</ele>
        <time>2015-10-11T09:11:40Z</time>
      </trkpt>
      <trkpt lat="42.66331" lon="1.96678">
        <ele>1320.99</ele>
        <time>2015-10-11T09:11:42Z</time>
      </trkpt>
      <trkpt lat="42.66328" lon="1.9669">
        <ele>1316.18</ele>
        <time>2015-10-11T09:11:53Z</time>
      </trkpt>
      <trkpt lat="42.66328" lon="1.96692">
        <ele>1320.03</ele>
        <time>2015-10-11T09:11:55Z</time>
      </trkpt>
      <trkpt lat="42.66329" lon="1.96693">
        <ele>1318.59</ele>
        <time>2015-10-11T09:11:58Z</time>
      </trkpt>
      <trkpt lat="42.66332" lon="1.96694">
        <ele>1319.07</ele>
        <time>2015-10-11T09:12:02Z</time>
      </trkpt>
      <trkpt lat="42.66335" lon="1.96695">
        <ele>1317.14</ele>
        <time>2015-10-11T09:12:05Z</time>
      </trkpt>
      <trkpt lat="42.66338" lon="1.96695">
        <ele>1320.51</ele>
        <time>2015-10-11T09:12:08Z</time>
      </trkpt>
      <trkpt lat="42.66339" lon="1.96694">
        <ele>1318.59</ele>
        <time>2015-10-11T09:12:10Z</time>
      </trkpt>
      <trkpt lat="42.66343" lon="1.96692">
        <ele>1316.66</ele>
        <time>2015-10-11T09:12:13Z</time>
      </trkpt>
      <trkpt lat="42.66346" lon="1.9669">
        <ele>1316.66</ele>
        <time>2015-10-11T09:12:17Z</time>
      </trkpt>
      <trkpt lat="42.66354" lon="1.96686">
        <ele>1314.74</ele>
        <time>2015-10-11T09:12:26Z</time>
      </trkpt>
      <trkpt lat="42.66362" lon="1.96685">
        <ele>1313.78</ele>
        <time>2015-10-11T09:12:33Z</time>
      </trkpt>
      <trkpt lat="42.66368" lon="1.96683">
        <ele>1314.74</ele>
        <time>2015-10-11T09:12:38Z</time>
      </trkpt>
      <trkpt lat="42.66369" lon="1.96683">
        <ele>1318.59</ele>
        <time>2015-10-11T09:12:39Z</time>
      </trkpt>
      <trkpt lat="42.6637" lon="1.96683">
        <ele>1314.74</ele>
        <time>2015-10-11T09:12:40Z</time>
      </trkpt>
      <trkpt lat="42.66376" lon="1.96683">
        <ele>1315.22</ele>
        <time>2015-10-11T09:12:44Z</time>
      </trkpt>
      <trkpt lat="42.66391" lon="1.96673">
        <ele>1314.26</ele>
        <time>2015-10-11T09:13:00Z</time>
      </trkpt>
      <trkpt lat="42.66401" lon="1.96667">
        <ele>1310.41</ele>
        <time>2015-10-11T09:13:09Z</time>
      </trkpt>
      <trkpt lat="42.66405" lon="1.96662">
        <ele>1314.26</ele>
        <time>2015-10-11T09:13:14Z</time>
      </trkpt>
      <trkpt lat="42.66405" lon="1.96661">
        <ele>1310.9</ele>
        <time>2015-10-11T09:13:15Z</time>
      </trkpt>
      <trkpt lat="42.66418" lon="1.96649">
        <ele>1310.41</ele>
        <time>2015-10-11T09:13:28Z</time>
      </trkpt>
      <trkpt lat="42.66431" lon="1.9664">
        <ele>1310.41</ele>
        <time>2015-10-11T09:13:45Z</time>
      </trkpt>
      <trkpt lat="42.66441" lon="1.96641">
        <ele>1308.49</ele>
        <time>2015-10-11T09:13:54Z</time>
      </trkpt>
      <trkpt lat="42.66452" lon="1.96641">
        <ele>1311.38</ele>
        <time>2015-10-11T09:14:03Z</time>
      </trkpt>
      <trkpt lat="42.66456" lon="1.96642">
        <ele>1308.01</ele>
        <time>2015-10-11T09:14:07Z</time>
      </trkpt>
      <trkpt lat="42.66463" lon="1.96643">
        <ele>1308.49</ele>
        <time>2015-10-11T09:14:14Z</time>
      </trkpt>
      <trkpt lat="42.66471" lon="1.9664">
        <ele>1308.01</ele>
        <time>2015-10-11T09:14:21Z</time>
      </trkpt>
      <trkpt lat="42.66472" lon="1.96639">
        <ele>1308.01</ele>
        <time>2015-10-11T09:14:22Z</time>
      </trkpt>
      <trkpt lat="42.66475" lon="1.96638">
        <ele>1308.97</ele>
        <time>2015-10-11T09:14:24Z</time>
      </trkpt>
      <trkpt lat="42.6648" lon="1.96636">
        <ele>1305.61</ele>
        <time>2015-10-11T09:14:28Z</time>
      </trkpt>
      <trkpt lat="42.66481" lon="1.96636">
        <ele>1306.57</ele>
        <time>2015-10-11T09:14:29Z</time>
      </trkpt>
      <trkpt lat="42.66483" lon="1.96636">
        <ele>1307.53</ele>
        <time>2015-10-11T09:14:31Z</time>
      </trkpt>
      <trkpt lat="42.66491" lon="1.96634">
        <ele>1304.65</ele>
        <time>2015-10-11T09:14:40Z</time>
      </trkpt>
      <trkpt lat="42.66492" lon="1.96634">
        <ele>1305.13</ele>
        <time>2015-10-11T09:14:41Z</time>
      </trkpt>
      <trkpt lat="42.66492" lon="1.96634">
        <ele>1308.49</ele>
        <time>2015-10-11T09:14:42Z</time>
      </trkpt>
      <trkpt lat="42.66493" lon="1.96635">
        <ele>1307.53</ele>
        <time>2015-10-11T09:14:43Z</time>
      </trkpt>
      <trkpt lat="42.66502" lon="1.96636">
        <ele>1308.01</ele>
        <time>2015-10-11T09:14:52Z</time>
      </trkpt>
      <trkpt lat="42.66509" lon="1.96634">
        <ele>1305.13</ele>
        <time>2015-10-11T09:14:59Z</time>
      </trkpt>
      <trkpt lat="42.6651" lon="1.96635">
        <ele>1308.01</ele>
        <time>2015-10-11T09:15:00Z</time>
      </trkpt>
      <trkpt lat="42.66526" lon="1.96639">
        <ele>1307.53</ele>
        <time>2015-10-11T09:15:15Z</time>
      </trkpt>
      <trkpt lat="42.66533" lon="1.96647">
        <ele>1307.05</ele>
        <time>2015-10-11T09:15:22Z</time>
      </trkpt>
      <trkpt lat="42.6654" lon="1.96642">
        <ele>1307.05</ele>
        <time>2015-10-11T09:15:29Z</time>
      </trkpt>
      <trkpt lat="42.66545" lon="1.96643">
        <ele>1308.97</ele>
        <time>2015-10-11T09:15:34Z</time>
      </trkpt>
      <trkpt lat="42.66546" lon="1.96643">
        <ele>1308.01</ele>
        <time>2015-10-11T09:15:35Z</time>
      </trkpt>
      <trkpt lat="42.66556" lon="1.96653">
        <ele>1308.49</ele>
        <time>2015-10-11T09:15:46Z</time>
      </trkpt>
      <trkpt lat="42.66575" lon="1.96658">
        <ele>1307.05</ele>
        <time>2015-10-11T09:16:02Z</time>
      </trkpt>
      <trkpt lat="42.66577" lon="1.96658">
        <ele>1310.41</ele>
        <time>2015-10-11T09:16:04Z</time>
      </trkpt>
      <trkpt lat="42.66579" lon="1.96659">
        <ele>1309.93</ele>
        <time>2015-10-11T09:16:05Z</time>
      </trkpt>
      <trkpt lat="42.66593" lon="1.96654">
        <ele>1310.9</ele>
        <time>2015-10-11T09:16:17Z</time>
      </trkpt>
      <trkpt lat="42.66602" lon="1.96654">
        <ele>1311.86</ele>
        <time>2015-10-11T09:16:28Z</time>
      </trkpt>
      <trkpt lat="42.66612" lon="1.96653">
        <ele>1311.38</ele>
        <time>2015-10-11T09:16:40Z</time>
      </trkpt>
      <trkpt lat="42.66617" lon="1.96649">
        <ele>1310.9</ele>
        <time>2015-10-11T09:16:44Z</time>
      </trkpt>
      <trkpt lat="42.6663" lon="1.96635">
        <ele>1309.45</ele>
        <time>2015-10-11T09:16:57Z</time>
      </trkpt>
      <trkpt lat="42.66637" lon="1.96632">
        <ele>1305.61</ele>
        <time>2015-10-11T09:17:02Z</time>
      </trkpt>
      <trkpt lat="42.66639" lon="1.96632">
        <ele>1309.93</ele>
        <time>2015-10-11T09:17:03Z</time>
      </trkpt>
      <trkpt lat="42.66642" lon="1.96629">
        <ele>1308.49</ele>
        <time>2015-10-11T09:17:06Z</time>
      </trkpt>
      <trkpt lat="42.66653" lon="1.96615">
        <ele>1308.97</ele>
        <time>2015-10-11T09:17:17Z</time>
      </trkpt>
      <trkpt lat="42.66655" lon="1.96608">
        <ele>1308.97</ele>
        <time>2015-10-11T09:17:21Z</time>
      </trkpt>
      <trkpt lat="42.66656" lon="1.96602">
        <ele>1306.57</ele>
        <time>2015-10-11T09:17:24Z</time>
      </trkpt>
      <trkpt lat="42.66656" lon="1.96601">
        <ele>1305.13</ele>
        <time>2015-10-11T09:17:25Z</time>
      </trkpt>
      <trkpt lat="42.66657" lon="1.96598">
        <ele>1306.57</ele>
        <time>2015-10-11T09:17:27Z</time>
      </trkpt>
      <trkpt lat="42.66663" lon="1.96587">
        <ele>1305.13</ele>
        <time>2015-10-11T09:17:38Z</time>
      </trkpt>
      <trkpt lat="42.66662" lon="1.96584">
        <ele>1301.76</ele>
        <time>2015-10-11T09:17:40Z</time>
      </trkpt>
      <trkpt lat="42.66661" lon="1.96582">
        <ele>1303.69</ele>
        <time>2015-10-11T09:17:42Z</time>
      </trkpt>
      <trkpt lat="42.66663" lon="1.96574">
        <ele>1303.69</ele>
        <time>2015-10-11T09:17:49Z</time>
      </trkpt>
      <trkpt lat="42.66659" lon="1.9656">
        <ele>1300.8</ele>
        <time>2015-10-11T09:17:59Z</time>
      </trkpt>
      <trkpt lat="42.6665" lon="1.96548">
        <ele>1300.8</ele>
        <time>2015-10-11T09:18:08Z</time>
      </trkpt>
      <trkpt lat="42.66642" lon="1.96533">
        <ele>1299.84</ele>
        <time>2015-10-11T09:18:22Z</time>
      </trkpt>
      <trkpt lat="42.66648" lon="1.96515">
        <ele>1296.48</ele>
        <time>2015-10-11T09:18:37Z</time>
      </trkpt>
      <trkpt lat="42.66659" lon="1.96503">
        <ele>1295.51</ele>
        <time>2015-10-11T09:18:49Z</time>
      </trkpt>
      <trkpt lat="42.66677" lon="1.96488">
        <ele>1295.99</ele>
        <time>2015-10-11T09:19:07Z</time>
      </trkpt>
      <trkpt lat="42.66678" lon="1.96487">
        <ele>1295.99</ele>
        <time>2015-10-11T09:19:08Z</time>
      </trkpt>
      <trkpt lat="42.66682" lon="1.96476">
        <ele>1295.51</ele>
        <time>2015-10-11T09:19:16Z</time>
      </trkpt>
      <trkpt lat="42.66687" lon="1.96452">
        <ele>1295.03</ele>
        <time>2015-10-11T09:19:33Z</time>
      </trkpt>
      <trkpt lat="42.66695" lon="1.96443">
        <ele>1292.63</ele>
        <time>2015-10-11T09:19:41Z</time>
      </trkpt>
      <trkpt lat="42.66702" lon="1.96436">
        <ele>1292.63</ele>
        <time>2015-10-11T09:19:49Z</time>
      </trkpt>
      <trkpt lat="42.66704" lon="1.96434">
        <ele>1291.19</ele>
        <time>2015-10-11T09:19:51Z</time>
      </trkpt>
      <trkpt lat="42.66706" lon="1.96431">
        <ele>1292.63</ele>
        <time>2015-10-11T09:19:54Z</time>
      </trkpt>
      <trkpt lat="42.66708" lon="1.96428">
        <ele>1291.19</ele>
        <time>2015-10-11T09:19:57Z</time>
      </trkpt>
      <trkpt lat="42.66713" lon="1.96412">
        <ele>1291.19</ele>
        <time>2015-10-11T09:20:08Z</time>
      </trkpt>
      <trkpt lat="42.66718" lon="1.96401">
        <ele>1289.27</ele>
        <time>2015-10-11T09:20:17Z</time>
      </trkpt>
      <trkpt lat="42.66722" lon="1.96395">
        <ele>1292.15</ele>
        <time>2015-10-11T09:20:22Z</time>
      </trkpt>
      <trkpt lat="42.66733" lon="1.96378">
        <ele>1290.23</ele>
        <time>2015-10-11T09:20:34Z</time>
      </trkpt>
      <trkpt lat="42.66737" lon="1.96367">
        <ele>1290.23</ele>
        <time>2015-10-11T09:20:43Z</time>
      </trkpt>
      <trkpt lat="42.66737" lon="1.96365">
        <ele>1291.19</ele>
        <time>2015-10-11T09:20:45Z</time>
      </trkpt>
      <trkpt lat="42.66745" lon="1.96348">
        <ele>1290.23</ele>
        <time>2015-10-11T09:20:58Z</time>
      </trkpt>
      <trkpt lat="42.6675" lon="1.96337">
        <ele>1287.82</ele>
        <time>2015-10-11T09:21:06Z</time>
      </trkpt>
      <trkpt lat="42.66751" lon="1.96336">
        <ele>1291.19</ele>
        <time>2015-10-11T09:21:07Z</time>
      </trkpt>
      <trkpt lat="42.66756" lon="1.96322">
        <ele>1287.82</ele>
        <time>2015-10-11T09:21:18Z</time>
      </trkpt>
      <trkpt lat="42.66756" lon="1.96321">
        <ele>1286.86</ele>
        <time>2015-10-11T09:21:19Z</time>
      </trkpt>
      <trkpt lat="42.66763" lon="1.96311">
        <ele>1284.94</ele>
        <time>2015-10-11T09:21:28Z</time>
      </trkpt>
      <trkpt lat="42.66766" lon="1.9631">
        <ele>1287.82</ele>
        <time>2015-10-11T09:21:31Z</time>
      </trkpt>
      <trkpt lat="42.66784" lon="1.96298">
        <ele>1285.42</ele>
        <time>2015-10-11T09:21:51Z</time>
      </trkpt>
      <trkpt lat="42.66785" lon="1.96297">
        <ele>1284.46</ele>
        <time>2015-10-11T09:21:52Z</time>
      </trkpt>
      <trkpt lat="42.66787" lon="1.96296">
        <ele>1286.86</ele>
        <time>2015-10-11T09:21:54Z</time>
      </trkpt>
      <trkpt lat="42.66795" lon="1.96291">
        <ele>1282.54</ele>
        <time>2015-10-11T09:22:02Z</time>
      </trkpt>
      <trkpt lat="42.66797" lon="1.96289">
        <ele>1285.42</ele>
        <time>2015-10-11T09:22:04Z</time>
      </trkpt>
      <trkpt lat="42.66807" lon="1.96278">
        <ele>1282.06</ele>
        <time>2015-10-11T09:22:15Z</time>
      </trkpt>
      <trkpt lat="42.66822" lon="1.96259">
        <ele>1281.57</ele>
        <time>2015-10-11T09:22:31Z</time>
      </trkpt>
      <trkpt lat="42.66824" lon="1.96246">
        <ele>1281.57</ele>
        <time>2015-10-11T09:22:39Z</time>
      </trkpt>
      <trkpt lat="42.66828" lon="1.96239">
        <ele>1277.25</ele>
        <time>2015-10-11T09:22:44Z</time>
      </trkpt>
      <trkpt lat="42.66829" lon="1.96238">
        <ele>1280.61</ele>
        <time>2015-10-11T09:22:45Z</time>
      </trkpt>
      <trkpt lat="42.6683" lon="1.96232">
        <ele>1281.09</ele>
        <time>2015-10-11T09:22:50Z</time>
      </trkpt>
      <trkpt lat="42.66831" lon="1.96228">
        <ele>1280.13</ele>
        <time>2015-10-11T09:22:53Z</time>
      </trkpt>
      <trkpt lat="42.66842" lon="1.96214">
        <ele>1280.13</ele>
        <time>2015-10-11T09:23:07Z</time>
      </trkpt>
      <trkpt lat="42.66854" lon="1.96209">
        <ele>1279.17</ele>
        <time>2015-10-11T09:23:20Z</time>
      </trkpt>
      <trkpt lat="42.66869" lon="1.96197">
        <ele>1279.65</ele>
        <time>2015-10-11T09:23:35Z</time>
      </trkpt>
      <trkpt lat="42.66887" lon="1.96188">
        <ele>1279.65</ele>
        <time>2015-10-11T09:23:52Z</time>
      </trkpt>
      <trkpt lat="42.669" lon="1.96167">
        <ele>1280.13</ele>
        <time>2015-10-11T09:24:08Z</time>
      </trkpt>
      <trkpt lat="42.66907" lon="1.96153">
        <ele>1276.77</ele>
        <time>2015-10-11T09:24:21Z</time>
      </trkpt>
      <trkpt lat="42.66927" lon="1.96144">
        <ele>1276.29</ele>
        <time>2015-10-11T09:24:39Z</time>
      </trkpt>
      <trkpt lat="42.66936" lon="1.96133">
        <ele>1275.33</ele>
        <time>2015-10-11T09:24:50Z</time>
      </trkpt>
      <trkpt lat="42.66939" lon="1.9613">
        <ele>1273.88</ele>
        <time>2015-10-11T09:24:53Z</time>
      </trkpt>
      <trkpt lat="42.66949" lon="1.96108">
        <ele>1271.96</ele>
        <time>2015-10-11T09:25:11Z</time>
      </trkpt>
      <trkpt lat="42.66963" lon="1.96084">
        <ele>1268.6</ele>
        <time>2015-10-11T09:25:32Z</time>
      </trkpt>
      <trkpt lat="42.66965" lon="1.96076">
        <ele>1270.04</ele>
        <time>2015-10-11T09:25:48Z</time>
      </trkpt>
      <trkpt lat="42.6698" lon="1.96065">
        <ele>1269.08</ele>
        <time>2015-10-11T09:26:03Z</time>
      </trkpt>
      <trkpt lat="42.66982" lon="1.96064">
        <ele>1268.6</ele>
        <time>2015-10-11T09:26:05Z</time>
      </trkpt>
      <trkpt lat="42.66999" lon="1.96046">
        <ele>1266.67</ele>
        <time>2015-10-11T09:26:25Z</time>
      </trkpt>
      <trkpt lat="42.67011" lon="1.96025">
        <ele>1263.79</ele>
        <time>2015-10-11T09:26:43Z</time>
      </trkpt>
      <trkpt lat="42.67024" lon="1.96002">
        <ele>1260.91</ele>
        <time>2015-10-11T09:27:05Z</time>
      </trkpt>
      <trkpt lat="42.67026" lon="1.95997">
        <ele>1260.43</ele>
        <time>2015-10-11T09:27:08Z</time>
      </trkpt>
      <trkpt lat="42.67033" lon="1.95977">
        <ele>1258.98</ele>
        <time>2015-10-11T09:27:22Z</time>
      </trkpt>
      <trkpt lat="42.67034" lon="1.95958">
        <ele>1258.5</ele>
        <time>2015-10-11T09:27:36Z</time>
      </trkpt>
      <trkpt lat="42.67038" lon="1.95938">
        <ele>1256.1</ele>
        <time>2015-10-11T09:27:50Z</time>
      </trkpt>
      <trkpt lat="42.67047" lon="1.95898">
        <ele>1253.7</ele>
        <time>2015-10-11T09:28:16Z</time>
      </trkpt>
      <trkpt lat="42.67046" lon="1.95876">
        <ele>1251.29</ele>
        <time>2015-10-11T09:28:32Z</time>
      </trkpt>
      <trkpt lat="42.67046" lon="1.95852">
        <ele>1249.37</ele>
        <time>2015-10-11T09:28:53Z</time>
      </trkpt>
      <trkpt lat="42.67047" lon="1.95843">
        <ele>1248.41</ele>
        <time>2015-10-11T09:29:02Z</time>
      </trkpt>
      <trkpt lat="42.67048" lon="1.95815">
        <ele>1245.04</ele>
        <time>2015-10-11T09:29:23Z</time>
      </trkpt>
      <trkpt lat="42.67052" lon="1.95792">
        <ele>1243.6</ele>
        <time>2015-10-11T09:29:39Z</time>
      </trkpt>
      <trkpt lat="42.67053" lon="1.95778">
        <ele>1241.2</ele>
        <time>2015-10-11T09:29:58Z</time>
      </trkpt>
      <trkpt lat="42.67059" lon="1.95758">
        <ele>1238.32</ele>
        <time>2015-10-11T09:30:18Z</time>
      </trkpt>
      <trkpt lat="42.67071" lon="1.95753">
        <ele>1235.91</ele>
        <time>2015-10-11T09:30:35Z</time>
      </trkpt>
      <trkpt lat="42.67076" lon="1.95756">
        <ele>1234.95</ele>
        <time>2015-10-11T09:30:40Z</time>
      </trkpt>
      <trkpt lat="42.6708" lon="1.95758">
        <ele>1234.47</ele>
        <time>2015-10-11T09:30:45Z</time>
      </trkpt>
      <trkpt lat="42.67093" lon="1.95755">
        <ele>1232.07</ele>
        <time>2015-10-11T09:31:03Z</time>
      </trkpt>
      <trkpt lat="42.67107" lon="1.95754">
        <ele>1229.66</ele>
        <time>2015-10-11T09:31:19Z</time>
      </trkpt>
      <trkpt lat="42.67125" lon="1.9575">
        <ele>1228.7</ele>
        <time>2015-10-11T09:31:34Z</time>
      </trkpt>
      <trkpt lat="42.67142" lon="1.95737">
        <ele>1227.74</ele>
        <time>2015-10-11T09:31:53Z</time>
      </trkpt>
      <trkpt lat="42.67159" lon="1.95727">
        <ele>1225.82</ele>
        <time>2015-10-11T09:32:10Z</time>
      </trkpt>
      <trkpt lat="42.67171" lon="1.95717">
        <ele>1223.9</ele>
        <time>2015-10-11T09:32:26Z</time>
      </trkpt>
      <trkpt lat="42.67188" lon="1.95699">
        <ele>1223.9</ele>
        <time>2015-10-11T09:32:45Z</time>
      </trkpt>
      <trkpt lat="42.67201" lon="1.95685">
        <ele>1223.9</ele>
        <time>2015-10-11T09:32:59Z</time>
      </trkpt>
      <trkpt lat="42.67215" lon="1.95669">
        <ele>1223.9</ele>
        <time>2015-10-11T09:33:13Z</time>
      </trkpt>
      <trkpt lat="42.67228" lon="1.95646">
        <ele>1225.34</ele>
        <time>2015-10-11T09:33:31Z</time>
      </trkpt>
      <trkpt lat="42.67246" lon="1.95633">
        <ele>1224.38</ele>
        <time>2015-10-11T09:33:47Z</time>
      </trkpt>
      <trkpt lat="42.67258" lon="1.95629">
        <ele>1222.93</ele>
        <time>2015-10-11T09:34:03Z</time>
      </trkpt>
      <trkpt lat="42.67279" lon="1.95624">
        <ele>1220.53</ele>
        <time>2015-10-11T09:34:21Z</time>
      </trkpt>
      <trkpt lat="42.67285" lon="1.95618">
        <ele>1219.09</ele>
        <time>2015-10-11T09:34:29Z</time>
      </trkpt>
      <trkpt lat="42.67296" lon="1.95605">
        <ele>1217.65</ele>
        <time>2015-10-11T09:34:41Z</time>
      </trkpt>
      <trkpt lat="42.67309" lon="1.95579">
        <ele>1216.21</ele>
        <time>2015-10-11T09:35:00Z</time>
      </trkpt>
      <trkpt lat="42.67316" lon="1.9556">
        <ele>1214.76</ele>
        <time>2015-10-11T09:35:15Z</time>
      </trkpt>
      <trkpt lat="42.67316" lon="1.95535">
        <ele>1212.84</ele>
        <time>2015-10-11T09:35:29Z</time>
      </trkpt>
      <trkpt lat="42.67325" lon="1.95527">
        <ele>1210.92</ele>
        <time>2015-10-11T09:35:44Z</time>
      </trkpt>
      <trkpt lat="42.67332" lon="1.95527">
        <ele>1209.96</ele>
        <time>2015-10-11T09:35:54Z</time>
      </trkpt>
      <trkpt lat="42.67336" lon="1.95541">
        <ele>1209</ele>
        <time>2015-10-11T09:36:07Z</time>
      </trkpt>
      <trkpt lat="42.6733" lon="1.95551">
        <ele>1207.07</ele>
        <time>2015-10-11T09:36:16Z</time>
      </trkpt>
      <trkpt lat="42.67326" lon="1.95562">
        <ele>1206.11</ele>
        <time>2015-10-11T09:36:28Z</time>
      </trkpt>
      <trkpt lat="42.67339" lon="1.95568">
        <ele>1205.15</ele>
        <time>2015-10-11T09:36:43Z</time>
      </trkpt>
      <trkpt lat="42.67354" lon="1.95539">
        <ele>1204.19</ele>
        <time>2015-10-11T09:37:05Z</time>
      </trkpt>
      <trkpt lat="42.6737" lon="1.95542">
        <ele>1204.19</ele>
        <time>2015-10-11T09:37:22Z</time>
      </trkpt>
      <trkpt lat="42.67378" lon="1.95535">
        <ele>1202.75</ele>
        <time>2015-10-11T09:37:38Z</time>
      </trkpt>
      <trkpt lat="42.67385" lon="1.95527">
        <ele>1200.34</ele>
        <time>2015-10-11T09:37:54Z</time>
      </trkpt>
      <trkpt lat="42.67386" lon="1.95524">
        <ele>1199.38</ele>
        <time>2015-10-11T09:37:57Z</time>
      </trkpt>
      <trkpt lat="42.67396" lon="1.95515">
        <ele>1197.46</ele>
        <time>2015-10-11T09:38:14Z</time>
      </trkpt>
      <trkpt lat="42.67406" lon="1.95504">
        <ele>1195.54</ele>
        <time>2015-10-11T09:38:25Z</time>
      </trkpt>
      <trkpt lat="42.67419" lon="1.95488">
        <ele>1195.54</ele>
        <time>2015-10-11T09:38:39Z</time>
      </trkpt>
      <trkpt lat="42.67428" lon="1.95476">
        <ele>1195.06</ele>
        <time>2015-10-11T09:38:53Z</time>
      </trkpt>
      <trkpt lat="42.6745" lon="1.95463">
        <ele>1195.54</ele>
        <time>2015-10-11T09:39:16Z</time>
      </trkpt>
      <trkpt lat="42.67464" lon="1.9545">
        <ele>1195.54</ele>
        <time>2015-10-11T09:39:28Z</time>
      </trkpt>
      <trkpt lat="42.6747" lon="1.95435">
        <ele>1194.09</ele>
        <time>2015-10-11T09:39:41Z</time>
      </trkpt>
      <trkpt lat="42.67473" lon="1.95428">
        <ele>1193.13</ele>
        <time>2015-10-11T09:39:51Z</time>
      </trkpt>
      <trkpt lat="42.67474" lon="1.95407">
        <ele>1191.69</ele>
        <time>2015-10-11T09:40:07Z</time>
      </trkpt>
      <trkpt lat="42.6748" lon="1.95397">
        <ele>1188.81</ele>
        <time>2015-10-11T09:40:25Z</time>
      </trkpt>
      <trkpt lat="42.675" lon="1.95392">
        <ele>1188.81</ele>
        <time>2015-10-11T09:40:45Z</time>
      </trkpt>
      <trkpt lat="42.67511" lon="1.95382">
        <ele>1185.92</ele>
        <time>2015-10-11T09:41:03Z</time>
      </trkpt>
      <trkpt lat="42.67518" lon="1.9538">
        <ele>1183.52</ele>
        <time>2015-10-11T09:41:18Z</time>
      </trkpt>
      <trkpt lat="42.6753" lon="1.95373">
        <ele>1183.04</ele>
        <time>2015-10-11T09:41:32Z</time>
      </trkpt>
      <trkpt lat="42.67543" lon="1.95355">
        <ele>1180.64</ele>
        <time>2015-10-11T09:41:52Z</time>
      </trkpt>
      <trkpt lat="42.67557" lon="1.95356">
        <ele>1179.67</ele>
        <time>2015-10-11T09:42:05Z</time>
      </trkpt>
      <trkpt lat="42.67571" lon="1.95357">
        <ele>1179.67</ele>
        <time>2015-10-11T09:42:20Z</time>
      </trkpt>
      <trkpt lat="42.67585" lon="1.95346">
        <ele>1178.23</ele>
        <time>2015-10-11T09:42:35Z</time>
      </trkpt>
      <trkpt lat="42.67592" lon="1.95335">
        <ele>1176.79</ele>
        <time>2015-10-11T09:42:43Z</time>
      </trkpt>
      <trkpt lat="42.67594" lon="1.95331">
        <ele>1176.79</ele>
        <time>2015-10-11T09:42:46Z</time>
      </trkpt>
      <trkpt lat="42.67599" lon="1.95317">
        <ele>1176.79</ele>
        <time>2015-10-11T09:43:02Z</time>
      </trkpt>
      <trkpt lat="42.67596" lon="1.95305">
        <ele>1175.83</ele>
        <time>2015-10-11T09:43:15Z</time>
      </trkpt>
      <trkpt lat="42.67599" lon="1.95278">
        <ele>1174.87</ele>
        <time>2015-10-11T09:43:33Z</time>
      </trkpt>
      <trkpt lat="42.67598" lon="1.95275">
        <ele>1175.35</ele>
        <time>2015-10-11T09:43:35Z</time>
      </trkpt>
      <trkpt lat="42.67599" lon="1.95269">
        <ele>1174.87</ele>
        <time>2015-10-11T09:43:38Z</time>
      </trkpt>
      <trkpt lat="42.67606" lon="1.95251">
        <ele>1174.39</ele>
        <time>2015-10-11T09:43:53Z</time>
      </trkpt>
      <trkpt lat="42.67607" lon="1.9525">
        <ele>1174.87</ele>
        <time>2015-10-11T09:43:54Z</time>
      </trkpt>
      <trkpt lat="42.67615" lon="1.95233">
        <ele>1175.83</ele>
        <time>2015-10-11T09:44:07Z</time>
      </trkpt>
      <trkpt lat="42.6763" lon="1.9522">
        <ele>1176.31</ele>
        <time>2015-10-11T09:44:23Z</time>
      </trkpt>
      <trkpt lat="42.67642" lon="1.95215">
        <ele>1176.79</ele>
        <time>2015-10-11T09:44:38Z</time>
      </trkpt>
      <trkpt lat="42.67661" lon="1.95206">
        <ele>1175.83</ele>
        <time>2015-10-11T09:44:56Z</time>
      </trkpt>
      <trkpt lat="42.67677" lon="1.95199">
        <ele>1174.39</ele>
        <time>2015-10-11T09:45:12Z</time>
      </trkpt>
      <trkpt lat="42.67698" lon="1.95192">
        <ele>1173.91</ele>
        <time>2015-10-11T09:45:31Z</time>
      </trkpt>
      <trkpt lat="42.67702" lon="1.95186">
        <ele>1172.47</ele>
        <time>2015-10-11T09:45:36Z</time>
      </trkpt>
      <trkpt lat="42.67708" lon="1.95171">
        <ele>1172.47</ele>
        <time>2015-10-11T09:45:52Z</time>
      </trkpt>
      <trkpt lat="42.6773" lon="1.95149">
        <ele>1171.98</ele>
        <time>2015-10-11T09:46:12Z</time>
      </trkpt>
      <trkpt lat="42.67738" lon="1.95131">
        <ele>1170.06</ele>
        <time>2015-10-11T09:46:30Z</time>
      </trkpt>
      <trkpt lat="42.67754" lon="1.95113">
        <ele>1168.62</ele>
        <time>2015-10-11T09:46:50Z</time>
      </trkpt>
      <trkpt lat="42.67766" lon="1.95097">
        <ele>1166.22</ele>
        <time>2015-10-11T09:47:08Z</time>
      </trkpt>
      <trkpt lat="42.67781" lon="1.95079">
        <ele>1165.74</ele>
        <time>2015-10-11T09:47:28Z</time>
      </trkpt>
      <trkpt lat="42.67794" lon="1.95067">
        <ele>1164.77</ele>
        <time>2015-10-11T09:47:48Z</time>
      </trkpt>
      <trkpt lat="42.67804" lon="1.9505">
        <ele>1164.29</ele>
        <time>2015-10-11T09:48:05Z</time>
      </trkpt>
      <trkpt lat="42.67817" lon="1.95038">
        <ele>1162.85</ele>
        <time>2015-10-11T09:48:26Z</time>
      </trkpt>
      <trkpt lat="42.67819" lon="1.9503">
        <ele>1162.37</ele>
        <time>2015-10-11T09:48:39Z</time>
      </trkpt>
      <trkpt lat="42.67831" lon="1.95028">
        <ele>1162.37</ele>
        <time>2015-10-11T09:48:53Z</time>
      </trkpt>
      <trkpt lat="42.67844" lon="1.95025">
        <ele>1161.89</ele>
        <time>2015-10-11T09:49:09Z</time>
      </trkpt>
      <trkpt lat="42.6785" lon="1.95017">
        <ele>1161.41</ele>
        <time>2015-10-11T09:49:17Z</time>
      </trkpt>
      <trkpt lat="42.67856" lon="1.95009">
        <ele>1160.93</ele>
        <time>2015-10-11T09:49:24Z</time>
      </trkpt>
      <trkpt lat="42.67865" lon="1.94989">
        <ele>1160.93</ele>
        <time>2015-10-11T09:49:41Z</time>
      </trkpt>
      <trkpt lat="42.67877" lon="1.94978">
        <ele>1160.93</ele>
        <time>2015-10-11T09:49:54Z</time>
      </trkpt>
      <trkpt lat="42.67893" lon="1.9497">
        <ele>1160.45</ele>
        <time>2015-10-11T09:50:08Z</time>
      </trkpt>
      <trkpt lat="42.67902" lon="1.94969">
        <ele>1160.45</ele>
        <time>2015-10-11T09:50:21Z</time>
      </trkpt>
      <trkpt lat="42.67904" lon="1.9497">
        <ele>1161.41</ele>
        <time>2015-10-11T09:50:39Z</time>
      </trkpt>
      <trkpt lat="42.67903" lon="1.94965">
        <ele>1161.41</ele>
        <time>2015-10-11T09:50:56Z</time>
      </trkpt>
      <trkpt lat="42.679" lon="1.94964">
        <ele>1161.89</ele>
        <time>2015-10-11T09:51:33Z</time>
      </trkpt>
      <trkpt lat="42.67902" lon="1.94957">
        <ele>1161.89</ele>
        <time>2015-10-11T09:52:14Z</time>
      </trkpt>
      <trkpt lat="42.67908" lon="1.94972">
        <ele>1163.33</ele>
        <time>2015-10-11T09:52:43Z</time>
      </trkpt>
      <trkpt lat="42.67898" lon="1.94974">
        <ele>1162.37</ele>
        <time>2015-10-11T09:53:26Z</time>
      </trkpt>
      <trkpt lat="42.67897" lon="1.94954">
        <ele>1161.41</ele>
        <time>2015-10-11T09:53:51Z</time>
      </trkpt>
      <trkpt lat="42.67898" lon="1.94956">
        <ele>1160.93</ele>
        <time>2015-10-11T09:54:25Z</time>
      </trkpt>
    </trkseg>
  </trk>
</gpx>